[[{"header":{"parameterUnit":"m.s-1","parameterCategory":1,"la1":31.0,"la2":29.5877,"lo1":-88.7671,"lo2":-86.6584,"dy":0.0162,"dx":0.0185,"nx":115,"ny":88,"refTime":"2024-03-06T06:00:00:Z","depth":0,"parameterNumber":2,"parameterNumberName":"U-component_of_WINDS"},"data":[0.0,0.0,0.0,0.0,0.0,0.0,0.0,0.0,0.0,0.0,0.0,0.0,0.0,0.0,0.0,0.0,0.0,0.0,0.0,0.0,0.0,0.0,0.0,0.0,0.0,0.0,0.0,0.0,0.0,0.0,0.0,0.0,0.0,0.0,0.0,0.0,0.0,0.0,0.0,0.0,0.0,0.0,0.0,0.0,0.0,0.0,0.0,0.0,0.0,0.0,0.0,0.0,0.0,0.0,0.0,0.0,0.0,0.0,0.0,0.0,0.0,0.0,0.0,0.0,0.0,0.0,0.0,0.0,0.0,0.0,0.0,0.0,0.0,0.0,0.0,0.0,0.0,0.0,0.0,0.0,0.0,0.0,0.0,0.0,0.0,0.0,0.0,0.0,0.0,0.0,0.0,0.0,0.0,0.0,0.0,0.0,0.0,0.0,0.0,0.0,0.0,0.0,0.0,0.0,0.0,0.0,0.0,0.0,0.0,0.0,0.0,0.0,0.0,0.0,0.0,0.0,0.0,0.0,0.0,0.0,0.0,0.0,0.0,0.0,0.0,0.0,0.0,0.0,0.0,0.0,0.0,0.0,0.0,0.0,0.0,0.0,0.0,0.0,0.0,0.0,0.0,0.0,0.0,0.0,0.0,0.0,0.0,0.0,0.0,0.0,0.0,0.0,0.0,0.0,0.0,0.0,0.0,0.0,0.0,0.0,0.0,0.0,0.0,0.0,0.0,0.0,0.0,0.0,0.0,0.0,0.0,0.0,0.0,0.0,0.0,0.0,0.0,0.0,0.0,0.0,0.0,0.0,0.0,0.0,0.0,0.0,0.0,0.0,0.0,0.0,0.0,0.0,0.0,0.0,0.0,0.0,0.0,0.0,0.0,0.0,0.0,0.0,0.0,0.0,0.0,0.0,0.0,0.0,0.0,0.0,0.0,0.0,0.0,0.0,0.0,0.0,0.0,0.0,0.0,0.0,0.0,0.0,0.0,0.0,0.0,0.0,0.0,0.0,0.0,0.0,0.0,0.0,0.0,0.0,0.0,0.0,0.0,0.0,0.0,0.0,0.0,0.0,0.0,0.0,0.0,0.0,0.0,0.0,0.0,0.0,0.0,0.0,0.0,0.0,0.0,0.0,0.0,0.0,0.0,0.0,0.0,0.0,0.0,0.0,0.0,0.0,0.0,0.0,0.0,0.0,0.0,0.0,0.0,0.0,0.0,0.0,0.0,0.0,0.0,0.0,0.0,0.0,0.0,0.0,0.0,0.0,0.0,0.0,0.0,0.0,0.0,0.0,0.0,0.0,0.0,0.0,0.0,0.0,0.0,0.0,0.0,0.0,0.0,0.0,0.0,0.0,0.0,0.0,0.0,0.0,0.0,0.0,0.0,0.0,0.0,0.0,0.0,0.0,0.0,0.0,0.0,0.0,0.0,0.0,0.0,0.0,0.0,0.0,0.0,0.0,0.0,0.0,0.0,0.0,0.0,0.0,0.0,0.0,0.0,0.0,0.0,0.0,0.0,0.0,0.0,0.0,0.0,0.0,0.0,0.0,0.0,0.0,0.0,0.0,0.0,0.0,0.0,0.0,0.0,0.0,0.0,0.0,0.0,0.0,0.0,0.0,0.0,0.0,0.0,0.0,0.0,0.0,0.0,0.0,0.0,0.0,0.0,0.0,0.0,0.0,0.0,0.0,0.0,0.0,0.0,0.0,0.0,0.0,0.0,0.0,0.0,0.0,0.0,0.0,0.0,0.0,0.0,0.0,0.0,0.0,0.0,0.0,0.0,0.0,0.0,0.0,0.0,0.0,0.0,0.0,0.0,0.0,0.0,0.0,0.0,0.0,0.0,0.0,0.0,0.0,0.0,0.0,0.0,0.0,0.0,0.0,0.0,0.0,0.0,0.0,0.0,0.0,0.0,0.0,0.0,0.0,0.0,0.0,0.0,0.0,0.0,0.0,0.0,0.0,0.0,0.0,0.0,0.0,0.0,0.0,0.0,0.0,0.0,0.0,0.0,0.0,0.0,0.0,0.0,0.0,0.0,0.0,0.0,0.0,0.0,0.0,0.0,0.0,0.0,0.0,0.0,0.0,0.0,0.0,0.0,0.0,0.0,0.0,0.0,0.0,0.0,0.0,0.0,0.0,0.0,0.0,0.0,0.0,0.0,0.0,0.0,0.0,0.0,0.0,0.0,0.0,0.0,0.0,0.0,0.0,0.0,0.0,0.0,0.0,0.0,0.0,0.0,0.0,0.0,0.0,0.0,0.0,0.0,0.0,0.0,0.0,0.0,0.0,0.0,0.0,0.0,0.0,0.0,0.0,0.0,0.0,0.0,0.0,0.0,0.0,0.0,0.0,0.0,0.0,0.0,0.0,0.0,0.0,0.0,0.0,0.0,0.0,0.0,0.0,0.0,0.0,0.0,0.0,0.0,0.0,0.0,0.0,0.0,0.0,0.0,0.0,0.0,0.0,0.0,0.0,0.0,0.0,0.0,0.0,0.0,0.0,0.0,0.0,0.0,0.0,0.0,0.0,0.0,0.0,0.0,0.0,0.0,0.0,0.0,0.0,0.0,0.0,0.0,0.0,0.0,0.0,0.0,0.0,0.0,0.0,0.0,0.0,0.0,0.0,0.0,0.0,0.0,0.0,0.0,0.0,0.0,0.0,0.0,0.0,0.0,0.0,0.0,0.0,0.0,0.0,0.0,0.0,0.0,0.0,0.0,0.0,0.0,0.0,0.0,0.0,0.0,0.0,0.0,0.0,0.0,0.0,0.0,0.0,0.0,0.0,0.0,0.0,0.0,0.0,0.0,0.0,0.0,0.0,0.0,0.0,0.0,0.0,0.0,0.0,0.0,0.0,0.0,0.0,0.0,0.0,0.0,0.0,0.0,0.0,0.0,0.0,0.0,0.0,0.0,0.0,0.0,0.0,0.0,0.0,0.0,0.0,0.0,0.0,0.0,0.0,0.0,0.0,0.0,0.0,0.0,0.0,0.0,0.0,0.0,0.0,0.0,0.0,0.0,0.0,0.0,0.0,0.0,0.0,0.0,0.0,0.0,0.0,0.0,0.0,0.0,0.0,0.0,0.0,0.0,0.0,0.0,0.0,0.0,0.0,0.0,0.0,0.0,0.0,0.0,0.0,0.0,0.0,0.0,0.0,0.0,0.0,0.0,0.0,0.0,0.0,0.0,0.0,0.0,0.0,0.0,0.0,0.0,0.0,0.0,0.0,0.0,0.0,0.0,0.0,0.0,0.0,0.0,0.0,0.0,0.0,0.0,0.0,0.0,0.0,0.0,0.0,0.0,0.0,0.0,0.0,0.0,0.0,0.0,0.0,0.0,0.0,0.0,0.0,0.0,0.0,0.0,0.0,0.0,0.0,0.0,0.0,0.0,0.0,0.0,0.0,0.0,0.0,0.0,0.0,0.0,0.0,0.0,0.0,0.0,0.0,0.0,0.0,0.0,0.0,0.0,0.0,0.0,0.0,0.0,0.0,0.0,0.0,0.0,0.0,0.0,0.0,0.0,0.0,0.0,0.0,0.0,0.0,0.0,0.0,0.0,0.0,0.0,0.0,0.0,0.0,0.0,0.0,0.0,0.0,0.0,0.0,0.0,0.0,0.0,0.0,0.0,0.0,0.0,0.0,0.0,0.0,0.0,0.0,0.0,0.0,0.0,0.0,0.0,0.0,0.0,0.0,0.0,0.0,0.0,0.0,0.0,0.0,0.0,0.0,0.0,0.0,0.0,0.0,0.0,0.0,0.0,0.0,0.0,0.0,0.0,0.0,0.0,0.0,0.0,0.0,0.0,0.0,0.0,0.0,0.0,0.0,0.0,0.0,0.0,0.0,0.0,0.0,0.0,0.0,0.0,0.0,0.0,0.0,0.0,0.0,0.0,0.0,0.0,0.0,0.0,0.0,0.0,0.0,0.0,0.0,0.0,0.0,0.0,0.0,0.0,0.0,0.0,0.0,0.0,0.0,0.0,0.0,0.0,0.0,0.0,0.0,0.0,0.0,0.0,0.0,0.0,0.0,0.0,0.0,0.0,0.0,0.0,0.0,0.0,0.0,0.0,0.0,0.0,0.0,0.0,0.0,0.0,0.0,0.0,0.0,0.0,0.0,0.0,0.0,0.0,0.0,0.0,0.0,0.0,0.0,0.0,0.0,0.0,0.0,0.0,0.0,0.0,0.0,0.0,0.0,0.0,0.0,0.0,0.0,0.0,0.0,0.0,0.0,0.0,0.0,0.0,0.0,0.0,0.0,0.0,0.0,4.118,0.0,0.0,0.0,0.0,0.0,0.0,0.0,0.0,0.0,0.0,0.0,0.0,0.0,0.0,0.0,0.0,0.0,0.0,0.0,0.0,0.0,0.0,0.0,0.0,0.0,0.0,0.0,0.0,0.0,0.0,0.0,0.0,0.0,0.0,0.0,0.0,0.0,0.0,0.0,0.0,0.0,0.0,0.0,0.0,0.0,0.0,0.0,0.0,0.0,0.0,0.0,0.0,0.0,0.0,0.0,0.0,0.0,0.0,0.0,0.0,0.0,0.0,0.0,0.0,0.0,0.0,0.0,0.0,0.0,0.0,0.0,0.0,0.0,0.0,0.0,0.0,0.0,0.0,0.0,0.0,0.0,0.0,0.0,0.0,0.0,0.0,0.0,0.0,0.0,0.0,0.0,0.0,0.0,0.0,0.0,0.0,0.0,0.0,0.0,0.0,0.0,0.0,0.0,0.0,0.0,0.0,0.0,0.0,0.0,0.0,4.0275,4.0484,4.0667,4.0882,4.103,0.0,0.0,0.0,0.0,0.0,0.0,0.0,0.0,0.0,0.0,0.0,0.0,0.0,0.0,0.0,0.0,0.0,0.0,0.0,0.0,0.0,0.0,0.0,0.0,0.0,0.0,0.0,0.0,0.0,0.0,0.0,0.0,0.0,0.0,0.0,0.0,0.0,0.0,0.0,0.0,0.0,0.0,0.0,0.0,0.0,0.0,0.0,0.0,0.0,0.0,0.0,0.0,0.0,0.0,0.0,0.0,0.0,0.0,0.0,0.0,0.0,0.0,0.0,0.0,0.0,0.0,0.0,0.0,0.0,0.0,0.0,0.0,0.0,0.0,0.0,0.0,0.0,0.0,0.0,0.0,0.0,0.0,0.0,0.0,0.0,0.0,0.0,0.0,0.0,0.0,0.0,0.0,0.0,0.0,0.0,0.0,0.0,0.0,0.0,0.0,0.0,0.0,0.0,0.0,0.0,0.0,0.0,0.0,0.0,0.0,0.0,0.0,4.0484,4.0703,4.0888,0.0,0.0,0.0,0.0,0.0,0.0,0.0,0.0,0.0,0.0,0.0,0.0,0.0,0.0,0.0,0.0,0.0,0.0,0.0,0.0,0.0,0.0,0.0,0.0,0.0,0.0,0.0,0.0,0.0,0.0,0.0,0.0,0.0,0.0,0.0,0.0,0.0,0.0,0.0,0.0,0.0,0.0,0.0,0.0,0.0,0.0,0.0,0.0,0.0,0.0,0.0,0.0,0.0,0.0,0.0,0.0,0.0,0.0,0.0,0.0,0.0,0.0,0.0,0.0,0.0,0.0,0.0,0.0,0.0,0.0,0.0,0.0,0.0,0.0,0.0,0.0,0.0,0.0,0.0,0.0,0.0,0.0,0.0,0.0,0.0,0.0,0.0,0.0,0.0,0.0,0.0,0.0,0.0,0.0,0.0,0.0,0.0,0.0,0.0,0.0,0.0,0.0,0.0,0.0,0.0,0.0,0.0,0.0,0.0,0.0,3.9961,4.0108,4.0263,0.0,4.0877,0.0,0.0,0.0,0.0,0.0,0.0,0.0,0.0,0.0,0.0,0.0,0.0,0.0,0.0,0.0,0.0,0.0,0.0,0.0,0.0,0.0,0.0,0.0,0.0,0.0,0.0,0.0,0.0,0.0,0.0,0.0,0.0,0.0,0.0,0.0,0.0,0.0,0.0,0.0,0.0,0.0,0.0,0.0,0.0,0.0,0.0,0.0,0.0,0.0,0.0,0.0,0.0,0.0,0.0,0.0,0.0,0.0,0.0,0.0,0.0,0.0,0.0,0.0,0.0,0.0,0.0,0.0,0.0,0.0,0.0,0.0,0.0,0.0,0.0,0.0,0.0,0.0,0.0,0.0,0.0,0.0,0.0,0.0,0.0,0.0,0.0,0.0,0.0,0.0,0.0,0.0,0.0,0.0,0.0,0.0,0.0,0.0,0.0,0.0,0.0,0.0,0.0,0.0,0.0,0.0,0.0,0.0,0.0,0.0,0.0,3.9765,3.9967,4.0199,4.0459,0.0,0.0,0.0,0.0,0.0,0.0,0.0,0.0,0.0,0.0,0.0,0.0,0.0,0.0,0.0,0.0,0.0,0.0,0.0,0.0,0.0,0.0,0.0,0.0,0.0,0.0,0.0,0.0,0.0,0.0,0.0,0.0,0.0,0.0,0.0,0.0,0.0,0.0,0.0,0.0,0.0,0.0,0.0,0.0,0.0,0.0,0.0,0.0,0.0,0.0,0.0,0.0,0.0,0.0,0.0,0.0,0.0,0.0,0.0,0.0,0.0,0.0,0.0,0.0,0.0,0.0,0.0,0.0,0.0,0.0,0.0,0.0,0.0,0.0,0.0,0.0,0.0,0.0,0.0,0.0,0.0,0.0,0.0,0.0,0.0,0.0,0.0,0.0,0.0,0.0,0.0,0.0,0.0,0.0,0.0,0.0,0.0,0.0,0.0,0.0,0.0,0.0,0.0,0.0,0.0,0.0,0.0,0.0,0.0,0.0,3.9488,3.9622,3.9911,4.0161,4.0392,4.0582,0.0,0.0,0.0,0.0,0.0,0.0,0.0,0.0,0.0,0.0,0.0,0.0,0.0,0.0,0.0,0.0,0.0,0.0,0.0,0.0,0.0,0.0,0.0,0.0,0.0,0.0,0.0,0.0,0.0,0.0,0.0,0.0,0.0,0.0,0.0,0.0,0.0,0.0,0.0,0.0,0.0,0.0,0.0,0.0,0.0,0.0,0.0,0.0,0.0,0.0,0.0,0.0,0.0,0.0,0.0,0.0,0.0,0.0,0.0,0.0,0.0,0.0,0.0,0.0,0.0,0.0,0.0,0.0,0.0,0.0,0.0,0.0,0.0,0.0,0.0,0.0,0.0,0.0,0.0,0.0,0.0,0.0,0.0,0.0,0.0,0.0,0.0,0.0,0.0,0.0,0.0,0.0,0.0,0.0,0.0,0.0,0.0,0.0,0.0,0.0,0.0,0.0,0.0,0.0,0.0,0.0,0.0,0.0,3.9319,3.9425,3.9629,3.9905,4.0161,4.0311,0.0,0.0,0.0,0.0,0.0,0.0,0.0,0.0,0.0,0.0,0.0,0.0,0.0,0.0,0.0,0.0,0.0,0.0,0.0,0.0,0.0,0.0,0.0,0.0,0.0,0.0,0.0,0.0,0.0,0.0,0.0,0.0,0.0,0.0,0.0,0.0,0.0,0.0,0.0,0.0,0.0,0.0,0.0,0.0,0.0,0.0,0.0,0.0,0.0,0.0,0.0,0.0,0.0,0.0,0.0,0.0,0.0,0.0,0.0,0.0,0.0,0.0,0.0,0.0,0.0,0.0,0.0,0.0,0.0,0.0,0.0,0.0,0.0,0.0,0.0,0.0,0.0,0.0,0.0,0.0,0.0,0.0,0.0,0.0,0.0,0.0,0.0,0.0,0.0,0.0,0.0,0.0,0.0,0.0,0.0,0.0,0.0,0.0,0.0,0.0,0.0,0.0,0.0,0.0,0.0,0.0,0.0,0.0,0.0,3.9312,3.9524,3.9664,3.9775,4.0037,4.0125,0.0,0.0,0.0,0.0,0.0,0.0,0.0,0.0,0.0,0.0,0.0,0.0,0.0,0.0,0.0,0.0,0.0,0.0,0.0,0.0,0.0,0.0,0.0,0.0,0.0,0.0,0.0,0.0,0.0,0.0,0.0,0.0,0.0,0.0,0.0,0.0,0.0,0.0,0.0,0.0,0.0,0.0,0.0,0.0,0.0,0.0,0.0,0.0,0.0,0.0,0.0,0.0,0.0,0.0,0.0,0.0,0.0,0.0,0.0,0.0,0.0,0.0,0.0,0.0,0.0,0.0,0.0,0.0,0.0,0.0,0.0,0.0,0.0,0.0,0.0,0.0,0.0,0.0,0.0,0.0,0.0,0.0,0.0,0.0,0.0,0.0,0.0,0.0,0.0,0.0,0.0,0.0,0.0,0.0,0.0,0.0,0.0,0.0,0.0,0.0,0.0,0.0,0.0,0.0,0.0,0.0,0.0,0.0,0.0,3.9382,0.0,3.9762,3.9785,3.9969,4.0068,0.0,0.0,0.0,0.0,0.0,0.0,0.0,0.0,0.0,0.0,0.0,0.0,0.0,0.0,0.0,0.0,0.0,0.0,0.0,0.0,0.0,0.0,0.0,0.0,0.0,0.0,0.0,0.0,0.0,0.0,0.0,0.0,0.0,0.0,0.0,0.0,0.0,0.0,0.0,0.0,0.0,0.0,0.0,0.0,0.0,0.0,0.0,0.0,0.0,0.0,0.0,0.0,0.0,0.0,0.0,0.0,0.0,0.0,0.0,0.0,0.0,0.0,0.0,0.0,0.0,0.0,0.0,0.0,0.0,0.0,0.0,0.0,0.0,0.0,0.0,0.0,0.0,0.0,0.0,0.0,0.0,0.0,0.0,0.0,0.0,0.0,0.0,0.0,0.0,0.0,0.0,0.0,0.0,0.0,0.0,0.0,0.0,0.0,0.0,0.0,0.0,0.0,0.0,0.0,0.0,0.0,0.0,0.0,3.9372,3.9504,3.9778,3.9916,3.9897,4.0056,4.0119,0.0,0.0,0.0,0.0,0.0,0.0,0.0,0.0,0.0,0.0,0.0,0.0,0.0,0.0,0.0,0.0,0.0,0.0,0.0,0.0,0.0,0.0,0.0,0.0,0.0,0.0,0.0,0.0,0.0,0.0,0.0,0.0,0.0,0.0,0.0,0.0,0.0,0.0,0.0,0.0,0.0,0.0,0.0,0.0,0.0,0.0,0.0,0.0,0.0,0.0,0.0,0.0,0.0,0.0,0.0,0.0,0.0,0.0,0.0,0.0,0.0,0.0,0.0,0.0,0.0,0.0,0.0,0.0,0.0,0.0,0.0,0.0,0.0,0.0,0.0,0.0,0.0,0.0,0.0,0.0,0.0,0.0,0.0,0.0,0.0,0.0,0.0,0.0,0.0,0.0,0.0,0.0,0.0,0.0,0.0,0.0,0.0,0.0,0.0,0.0,0.0,0.0,0.0,0.0,0.0,0.0,0.0,0.0,0.0,3.9973,4.0248,4.0439,4.0513,4.0465,4.0388,0.0,0.0,0.0,0.0,0.0,0.0,0.0,0.0,0.0,0.0,0.0,0.0,0.0,0.0,0.0,0.0,0.0,0.0,0.0,0.0,0.0,0.0,0.0,0.0,0.0,0.0,0.0,0.0,0.0,0.0,0.0,0.0,0.0,0.0,0.0,0.0,0.0,0.0,0.0,0.0,0.0,0.0,0.0,0.0,0.0,0.0,0.0,0.0,0.0,0.0,0.0,0.0,0.0,0.0,0.0,0.0,0.0,0.0,0.0,0.0,0.0,0.0,0.0,0.0,0.0,0.0,0.0,0.0,0.0,0.0,0.0,0.0,0.0,0.0,0.0,0.0,0.0,0.0,0.0,0.0,0.0,0.0,0.0,0.0,0.0,0.0,0.0,0.0,0.0,0.0,0.0,0.0,0.0,0.0,0.0,0.0,0.0,0.0,0.0,0.0,0.0,0.0,0.0,0.0,0.0,0.0,0.0,0.0,0.0,4.0743,4.0802,4.0878,4.1007,4.0896,4.0723,4.051,0.0,0.0,0.0,0.0,0.0,0.0,0.0,0.0,0.0,0.0,0.0,0.0,0.0,0.0,0.0,0.0,0.0,0.0,0.0,0.0,0.0,0.0,0.0,0.0,0.0,0.0,0.0,0.0,0.0,0.0,0.0,0.0,0.0,0.0,0.0,0.0,0.0,0.0,0.0,0.0,0.0,0.0,0.0,0.0,0.0,0.0,0.0,0.0,0.0,0.0,0.0,0.0,0.0,0.0,0.0,0.0,0.0,0.0,0.0,0.0,0.0,0.0,0.0,0.0,0.0,0.0,0.0,0.0,0.0,0.0,0.0,0.0,0.0,0.0,0.0,0.0,0.0,0.0,0.0,0.0,0.0,0.0,0.0,0.0,0.0,0.0,0.0,0.0,0.0,0.0,0.0,0.0,0.0,0.0,0.0,0.0,0.0,0.0,0.0,0.0,0.0,0.0,0.0,0.0,0.0,0.0,0.0,0.0,4.1709,4.144,4.1339,4.1468,4.1317,4.1094,0.0,0.0,0.0,0.0,0.0,0.0,0.0,0.0,0.0,0.0,0.0,0.0,0.0,0.0,0.0,0.0,0.0,0.0,0.0,0.0,0.0,0.0,0.0,0.0,0.0,0.0,0.0,0.0,0.0,0.0,0.0,0.0,0.0,0.0,0.0,0.0,0.0,0.0,0.0,0.0,0.0,0.0,0.0,0.0,0.0,0.0,0.0,0.0,0.0,0.0,0.0,0.0,0.0,0.0,0.0,0.0,0.0,0.0,0.0,0.0,0.0,0.0,0.0,0.0,0.0,0.0,0.0,0.0,0.0,0.0,0.0,0.0,0.0,0.0,0.0,0.0,0.0,0.0,0.0,0.0,0.0,0.0,0.0,0.0,0.0,0.0,0.0,0.0,0.0,0.0,0.0,0.0,0.0,0.0,0.0,0.0,0.0,0.0,0.0,0.0,0.0,0.0,0.0,0.0,0.0,0.0,0.0,0.0,0.0,4.1901,4.2172,4.2297,4.2277,4.192,4.1562,0.0,0.0,0.0,0.0,0.0,0.0,0.0,0.0,0.0,0.0,0.0,0.0,0.0,0.0,0.0,0.0,0.0,0.0,0.0,0.0,0.0,0.0,0.0,0.0,0.0,0.0,0.0,0.0,0.0,0.0,0.0,0.0,0.0,0.0,0.0,0.0,0.0,0.0,0.0,0.0,0.0,0.0,0.0,0.0,0.0,0.0,0.0,0.0,0.0,0.0,0.0,0.0,0.0,0.0,0.0,0.0,0.0,0.0,0.0,0.0,0.0,0.0,0.0,0.0,0.0,0.0,0.0,0.0,0.0,0.0,0.0,0.0,0.0,0.0,0.0,0.0,0.0,0.0,0.0,0.0,0.0,0.0,0.0,0.0,0.0,0.0,0.0,0.0,0.0,0.0,0.0,0.0,0.0,0.0,0.0,0.0,0.0,0.0,0.0,0.0,0.0,0.0,0.0,0.0,0.0,0.0,0.0,0.0,4.1483,4.2152,4.2624,4.2886,4.2933,4.2454,4.1971,0.0,0.0,0.0,0.0,0.0,0.0,0.0,0.0,0.0,0.0,0.0,0.0,0.0,0.0,0.0,0.0,0.0,0.0,0.0,0.0,0.0,0.0,0.0,0.0,0.0,0.0,0.0,0.0,0.0,0.0,0.0,0.0,0.0,0.0,0.0,0.0,0.0,0.0,0.0,0.0,0.0,0.0,0.0,0.0,0.0,0.0,0.0,0.0,0.0,0.0,0.0,0.0,0.0,0.0,0.0,0.0,0.0,0.0,0.0,0.0,0.0,0.0,0.0,0.0,0.0,0.0,0.0,0.0,0.0,0.0,0.0,0.0,0.0,0.0,0.0,0.0,0.0,0.0,0.0,0.0,0.0,0.0,0.0,0.0,0.0,0.0,0.0,0.0,0.0,0.0,0.0,0.0,0.0,0.0,0.0,0.0,0.0,0.0,0.0,0.0,0.0,0.0,0.0,0.0,0.0,0.0,0.0,0.0,4.1742,4.2393,4.2885,4.3196,4.3381,4.289,4.2348,0.0,0.0,0.0,0.0,0.0,0.0,0.0,0.0,0.0,0.0,0.0,0.0,0.0,0.0,0.0,0.0,0.0,0.0,0.0,0.0,0.0,0.0,0.0,0.0,0.0,0.0,0.0,0.0,0.0,0.0,0.0,0.0,0.0,0.0,0.0,0.0,0.0,0.0,0.0,0.0,0.0,0.0,0.0,0.0,0.0,0.0,0.0,0.0,0.0,0.0,0.0,0.0,0.0,0.0,0.0,0.0,0.0,0.0,0.0,0.0,0.0,0.0,0.0,0.0,0.0,0.0,0.0,0.0,0.0,0.0,0.0,0.0,0.0,0.0,0.0,0.0,0.0,0.0,0.0,0.0,0.0,0.0,0.0,0.0,0.0,0.0,0.0,0.0,0.0,0.0,0.0,0.0,0.0,0.0,0.0,0.0,0.0,0.0,0.0,0.0,0.0,0.0,0.0,0.0,0.0,0.0,0.0,0.0,4.1901,4.2478,4.3041,4.3359,4.3399,4.292,4.2493,0.0,0.0,0.0,0.0,0.0,0.0,0.0,0.0,0.0,0.0,0.0,0.0,0.0,0.0,0.0,0.0,0.0,0.0,0.0,0.0,0.0,0.0,0.0,0.0,0.0,0.0,0.0,0.0,0.0,0.0,0.0,0.0,0.0,0.0,0.0,0.0,0.0,0.0,0.0,0.0,0.0,0.0,0.0,0.0,0.0,0.0,0.0,0.0,4.2877,0.0,0.0,0.0,0.0,0.0,0.0,0.0,0.0,0.0,0.0,0.0,0.0,0.0,0.0,0.0,0.0,0.0,0.0,0.0,0.0,0.0,0.0,0.0,0.0,0.0,0.0,0.0,0.0,0.0,0.0,0.0,0.0,0.0,0.0,0.0,0.0,0.0,0.0,0.0,0.0,0.0,0.0,0.0,0.0,0.0,0.0,0.0,0.0,0.0,0.0,0.0,0.0,0.0,0.0,0.0,0.0,0.0,0.0,0.0,4.2092,4.2664,4.3146,4.3425,4.3433,4.3018,4.259,0.0,0.0,0.0,0.0,0.0,0.0,0.0,0.0,0.0,0.0,0.0,0.0,0.0,0.0,0.0,0.0,0.0,0.0,0.0,0.0,0.0,0.0,0.0,0.0,0.0,0.0,0.0,0.0,0.0,0.0,0.0,0.0,0.0,0.0,0.0,0.0,0.0,0.0,0.0,0.0,0.0,0.0,0.0,0.0,0.0,0.0,0.0,0.0,0.0,0.0,0.0,0.0,0.0,0.0,0.0,0.0,0.0,0.0,0.0,0.0,0.0,0.0,0.0,0.0,0.0,0.0,0.0,0.0,0.0,0.0,0.0,0.0,0.0,0.0,0.0,0.0,0.0,0.0,0.0,0.0,0.0,0.0,0.0,0.0,0.0,0.0,0.0,0.0,0.0,0.0,0.0,0.0,0.0,0.0,0.0,0.0,0.0,0.0,0.0,0.0,0.0,0.0,0.0,0.0,0.0,0.0,0.0,4.1465,4.2274,4.2896,4.3237,4.3437,4.348,4.3078,4.2586,4.2027,0.0,0.0,0.0,0.0,0.0,0.0,0.0,0.0,0.0,0.0,0.0,0.0,0.0,0.0,0.0,0.0,0.0,0.0,0.0,0.0,0.0,0.0,0.0,0.0,0.0,0.0,0.0,0.0,0.0,0.0,0.0,0.0,0.0,0.0,0.0,0.0,0.0,0.0,4.2567,4.2762,0.0,0.0,0.0,0.0,0.0,0.0,0.0,0.0,4.3124,0.0,0.0,0.0,0.0,0.0,0.0,0.0,0.0,0.0,0.0,0.0,0.0,0.0,0.0,0.0,0.0,0.0,0.0,0.0,0.0,0.0,0.0,0.0,0.0,0.0,0.0,0.0,0.0,0.0,0.0,0.0,0.0,0.0,0.0,0.0,0.0,0.0,0.0,0.0,0.0,0.0,0.0,0.0,0.0,0.0,0.0,0.0,0.0,0.0,0.0,0.0,0.0,0.0,0.0,0.0,0.0,4.0674,4.1651,4.2428,4.3067,4.3335,4.3454,4.3402,4.2967,4.2508,4.2004,0.0,0.0,0.0,0.0,0.0,0.0,0.0,0.0,0.0,0.0,0.0,0.0,0.0,0.0,0.0,0.0,0.0,0.0,0.0,0.0,0.0,0.0,0.0,0.0,0.0,0.0,0.0,0.0,0.0,0.0,0.0,0.0,0.0,0.0,0.0,0.0,0.0,0.0,0.0,4.2722,4.2746,0.0,0.0,0.0,0.0,0.0,0.0,0.0,0.0,4.3264,0.0,0.0,0.0,0.0,0.0,0.0,0.0,0.0,0.0,0.0,0.0,0.0,0.0,0.0,0.0,0.0,0.0,0.0,0.0,0.0,0.0,0.0,0.0,0.0,0.0,0.0,0.0,0.0,0.0,0.0,0.0,0.0,0.0,0.0,0.0,0.0,0.0,0.0,0.0,0.0,0.0,0.0,0.0,0.0,0.0,0.0,0.0,0.0,0.0,0.0,0.0,0.0,0.0,0.0,0.0,4.0932,4.1897,4.2658,4.3219,4.3415,4.3481,4.3385,4.2948,4.2473,0.0,0.0,0.0,0.0,0.0,0.0,0.0,0.0,0.0,0.0,0.0,0.0,0.0,0.0,0.0,0.0,0.0,0.0,0.0,0.0,0.0,0.0,0.0,0.0,0.0,0.0,0.0,0.0,0.0,0.0,0.0,0.0,0.0,0.0,0.0,0.0,0.0,0.0,0.0,0.0,4.2527,4.2644,4.2512,0.0,0.0,0.0,0.0,0.0,0.0,4.3304,4.3309,0.0,0.0,0.0,0.0,0.0,0.0,0.0,0.0,0.0,0.0,0.0,0.0,0.0,0.0,0.0,0.0,0.0,0.0,0.0,0.0,0.0,0.0,0.0,0.0,0.0,0.0,0.0,0.0,0.0,0.0,0.0,0.0,0.0,0.0,0.0,0.0,0.0,0.0,0.0,0.0,0.0,0.0,0.0,0.0,0.0,0.0,0.0,0.0,0.0,0.0,0.0,0.0,0.0,0.0,0.0,4.1233,4.2116,4.2821,4.3363,4.3458,4.3441,4.3345,4.2919,4.2421,0.0,0.0,0.0,0.0,0.0,0.0,0.0,0.0,0.0,0.0,0.0,0.0,0.0,0.0,0.0,0.0,0.0,0.0,0.0,0.0,0.0,0.0,0.0,0.0,0.0,0.0,0.0,0.0,0.0,0.0,0.0,0.0,0.0,0.0,0.0,0.0,0.0,0.0,0.0,0.0,0.0,4.252,4.2457,4.2467,0.0,0.0,0.0,0.0,4.316,4.3327,0.0,0.0,0.0,0.0,0.0,0.0,0.0,0.0,0.0,0.0,0.0,0.0,0.0,0.0,0.0,0.0,0.0,0.0,0.0,0.0,0.0,0.0,0.0,0.0,0.0,0.0,0.0,0.0,0.0,0.0,0.0,0.0,0.0,0.0,0.0,0.0,0.0,0.0,0.0,0.0,0.0,0.0,0.0,0.0,0.0,0.0,0.0,0.0,0.0,0.0,0.0,0.0,0.0,0.0,0.0,0.0,4.1349,4.2234,4.291,4.3367,4.3458,4.3402,4.3141,4.2808,4.2292,0.0,0.0,0.0,0.0,0.0,0.0,0.0,0.0,0.0,0.0,0.0,0.0,0.0,0.0,0.0,0.0,0.0,0.0,0.0,0.0,0.0,0.0,0.0,0.0,0.0,0.0,0.0,0.0,0.0,0.0,0.0,0.0,0.0,0.0,0.0,0.0,0.0,0.0,0.0,0.0,0.0,4.2394,4.2542,4.2691,4.2715,0.0,0.0,4.2975,4.316,4.3178,0.0,0.0,0.0,0.0,0.0,0.0,0.0,0.0,0.0,0.0,0.0,0.0,0.0,0.0,0.0,0.0,0.0,0.0,0.0,0.0,0.0,0.0,0.0,0.0,0.0,0.0,0.0,0.0,0.0,0.0,0.0,0.0,0.0,0.0,0.0,0.0,0.0,0.0,0.0,0.0,0.0,0.0,0.0,0.0,0.0,0.0,0.0,0.0,0.0,0.0,0.0,0.0,0.0,0.0,0.0,4.0506,4.1396,4.2216,4.2858,4.3282,4.3318,4.321,4.2994,4.2675,4.2365,0.0,0.0,0.0,0.0,0.0,0.0,0.0,0.0,0.0,0.0,0.0,0.0,0.0,0.0,0.0,0.0,0.0,0.0,0.0,0.0,0.0,0.0,0.0,0.0,0.0,0.0,0.0,0.0,0.0,0.0,0.0,0.0,0.0,0.0,0.0,0.0,0.0,0.0,0.0,0.0,0.0,0.0,4.2565,4.2725,0.0,0.0,0.0,4.3054,4.3187,0.0,0.0,0.0,0.0,0.0,0.0,0.0,0.0,0.0,0.0,0.0,0.0,0.0,0.0,0.0,0.0,0.0,0.0,0.0,0.0,0.0,0.0,0.0,0.0,0.0,0.0,0.0,0.0,0.0,0.0,0.0,0.0,0.0,0.0,0.0,0.0,0.0,0.0,0.0,0.0,0.0,0.0,0.0,0.0,0.0,0.0,0.0,0.0,0.0,0.0,0.0,0.0,0.0,0.0,0.0,0.0,0.0,4.1564,4.2215,4.2752,4.316,4.3178,4.3101,4.2896,4.2811,0.0,0.0,0.0,0.0,0.0,0.0,0.0,0.0,0.0,0.0,0.0,0.0,0.0,0.0,0.0,0.0,0.0,0.0,0.0,0.0,0.0,0.0,0.0,0.0,0.0,0.0,0.0,3.9182,0.0,0.0,0.0,0.0,0.0,0.0,0.0,0.0,0.0,0.0,0.0,0.0,0.0,0.0,4.2202,4.2594,4.2779,4.2903,0.0,0.0,4.3132,4.3178,4.3133,4.2989,0.0,0.0,0.0,0.0,0.0,0.0,0.0,0.0,0.0,0.0,0.0,0.0,0.0,0.0,0.0,0.0,0.0,0.0,0.0,0.0,0.0,0.0,0.0,0.0,0.0,0.0,0.0,0.0,0.0,0.0,0.0,0.0,0.0,0.0,0.0,0.0,0.0,0.0,0.0,0.0,0.0,0.0,0.0,0.0,0.0,0.0,0.0,0.0,0.0,0.0,0.0,0.0,0.0,0.0,0.0,4.2003,4.2294,4.2632,4.3095,4.316,4.3101,4.2914,4.3415,4.337,0.0,0.0,0.0,0.0,0.0,0.0,0.0,0.0,0.0,0.0,0.0,0.0,0.0,0.0,0.0,0.0,0.0,0.0,0.0,0.0,0.0,0.0,0.0,0.0,0.0,0.0,0.0,0.0,0.0,0.0,0.0,0.0,0.0,0.0,0.0,0.0,0.0,0.0,0.0,0.0,0.0,4.2125,4.2715,4.2964,4.3118,0.0,0.0,4.3119,4.3178,4.298,4.2727,4.2461,0.0,0.0,0.0,0.0,0.0,0.0,0.0,0.0,0.0,0.0,0.0,0.0,0.0,0.0,0.0,0.0,0.0,0.0,0.0,0.0,0.0,0.0,0.0,0.0,0.0,0.0,0.0,0.0,0.0,0.0,0.0,0.0,0.0,0.0,0.0,0.0,0.0,0.0,0.0,0.0,0.0,0.0,0.0,0.0,0.0,0.0,0.0,0.0,0.0,0.0,0.0,0.0,0.0,4.0848,4.1719,4.205,4.2447,4.2889,4.2984,4.2957,4.2856,4.2902,4.3114,0.0,0.0,0.0,0.0,0.0,0.0,0.0,0.0,0.0,0.0,0.0,0.0,0.0,0.0,0.0,0.0,0.0,0.0,0.0,0.0,0.0,0.0,0.0,0.0,0.0,0.0,0.0,0.0,4.0411,4.0725,4.0551,0.0,0.0,0.0,0.0,0.0,0.0,0.0,0.0,0.0,0.0,4.2192,4.2596,4.2847,0.0,0.0,4.3003,4.2952,4.2906,4.2767,4.2575,4.2262,4.1941,0.0,0.0,0.0,0.0,0.0,0.0,0.0,0.0,0.0,0.0,0.0,0.0,0.0,0.0,0.0,0.0,0.0,0.0,0.0,0.0,0.0,0.0,0.0,0.0,0.0,0.0,0.0,0.0,0.0,0.0,0.0,0.0,0.0,0.0,0.0,0.0,0.0,0.0,0.0,0.0,0.0,0.0,0.0,0.0,0.0,0.0,0.0,0.0,0.0,0.0,0.0,0.0,4.0868,4.1633,4.1878,4.2223,4.2663,4.2819,4.2877,4.2841,4.2832,4.3155,0.0,0.0,0.0,0.0,0.0,0.0,0.0,0.0,0.0,0.0,0.0,0.0,0.0,0.0,0.0,0.0,0.0,0.0,0.0,0.0,0.0,0.0,0.0,0.0,0.0,0.0,0.0,0.0,4.017,4.0302,3.9902,0.0,0.0,0.0,0.0,0.0,0.0,0.0,0.0,0.0,0.0,4.2142,4.247,4.2679,4.2815,4.2819,4.2815,4.2734,4.2527,4.2439,4.2295,4.1998,0.0,0.0,0.0,0.0,0.0,0.0,0.0,0.0,0.0,0.0,0.0,0.0,0.0,0.0,0.0,0.0,0.0,0.0,0.0,0.0,0.0,0.0,0.0,0.0,0.0,0.0,0.0,0.0,0.0,0.0,2.7797,0.0,0.0,0.0,0.0,0.0,0.0,0.0,0.0,0.0,0.0,0.0,0.0,0.0,0.0,0.0,0.0,0.0,0.0,0.0,0.0,0.0,0.0,4.0797,4.1967,4.1789,4.1947,4.2417,4.272,4.291,4.2923,4.3513,4.3714,4.3422,0.0,0.0,0.0,0.0,0.0,0.0,0.0,0.0,0.0,0.0,0.0,0.0,0.0,0.0,0.0,0.0,0.0,0.0,0.0,0.0,0.0,0.0,0.0,0.0,0.0,0.0,3.9522,3.9607,3.9476,0.0,0.0,0.0,0.0,0.0,0.0,0.0,0.0,0.0,0.0,4.1553,4.1925,4.2251,4.2475,4.2594,4.2571,4.2594,4.2472,4.2069,4.1963,4.1831,0.0,0.0,0.0,0.0,0.0,0.0,0.0,0.0,0.0,0.0,0.0,0.0,0.0,0.0,0.0,0.0,0.0,0.0,0.0,0.0,0.0,0.0,0.0,0.0,0.0,0.0,0.0,2.8599,2.8764,0.0,0.0,0.0,0.0,0.0,0.0,0.0,0.0,0.0,0.0,0.0,3.5505,3.5817,0.0,0.0,0.0,0.0,0.0,0.0,0.0,0.0,0.0,0.0,0.0,0.0,4.0286,4.1093,4.134,4.1733,4.2379,4.2675,4.2843,4.291,4.3076,4.3238,4.3395,0.0,0.0,0.0,0.0,0.0,0.0,0.0,0.0,0.0,0.0,0.0,0.0,0.0,0.0,0.0,0.0,0.0,0.0,0.0,0.0,0.0,0.0,0.0,0.0,0.0,3.8786,0.0,0.0,0.0,0.0,0.0,0.0,0.0,0.0,0.0,0.0,0.0,4.059,4.0995,4.1419,4.1703,4.1829,4.1938,4.1989,0.0,0.0,0.0,0.0,0.0,0.0,0.0,0.0,0.0,0.0,0.0,0.0,0.0,0.0,4.2074,4.0799,4.0717,4.0854,4.0948,0.0,0.0,0.0,0.0,0.0,0.0,0.0,0.0,0.0,0.0,0.0,0.0,0.0,0.0,3.0228,0.0,3.0344,0.0,0.0,0.0,0.0,0.0,0.0,0.0,0.0,3.514,3.574,3.6333,3.6694,3.7119,0.0,3.7889,3.8054,0.0,0.0,0.0,0.0,0.0,0.0,0.0,0.0,4.007,4.0648,4.107,4.1577,4.2223,4.256,4.2783,4.2871,4.2809,4.2938,4.3184,4.3319,4.3298,0.0,0.0,0.0,0.0,0.0,0.0,0.0,0.0,0.0,0.0,0.0,0.0,0.0,0.0,0.0,0.0,0.0,0.0,0.0,0.0,0.0,0.0,0.0,3.869,0.0,0.0,0.0,0.0,0.0,0.0,0.0,0.0,0.0,3.9219,3.9959,4.0529,4.0853,4.1157,4.1363,4.1358,0.0,0.0,0.0,0.0,0.0,0.0,0.0,4.2004,4.1998,4.2683,4.3286,4.3377,4.3692,4.3892,4.3804,0.0,0.0,4.2119,4.1992,4.212,4.2257,4.228,4.228,4.228,4.2205,4.2177,0.0,0.0,0.0,0.0,0.0,0.0,0.0,0.0,3.111,3.1573,0.0,3.1518,0.0,0.0,0.0,0.0,0.0,3.4888,0.0,0.0,3.6219,3.6258,3.615,3.6889,3.7324,3.7507,3.843,3.9045,3.9338,3.9005,0.0,0.0,0.0,0.0,0.0,0.0,4.0176,4.0565,4.0955,4.1424,4.1908,4.2346,4.2649,4.2788,4.2816,4.2816,4.2806,4.2539,4.248,4.2744,4.2069,0.0,0.0,0.0,0.0,0.0,0.0,0.0,0.0,0.0,0.0,0.0,0.0,0.0,0.0,0.0,0.0,0.0,0.0,0.0,0.0,3.8345,0.0,0.0,0.0,0.0,0.0,0.0,0.0,0.0,0.0,0.0,3.9065,3.9829,4.0375,4.0678,0.0,0.0,0.0,0.0,4.2114,4.2213,4.2921,4.3366,4.3128,4.3301,4.3477,4.3479,0.0,0.0,4.4556,4.4599,4.4617,4.4598,4.4647,4.4469,4.4101,4.4019,4.4079,4.4215,4.4208,4.4302,4.4296,4.4149,4.4196,3.2823,0.0,0.0,0.0,0.0,3.1967,3.2503,3.3199,3.3661,3.3922,3.3996,3.3734,0.0,0.0,0.0,0.0,0.0,0.0,3.5383,3.5973,3.631,3.6749,3.7287,3.7622,3.8121,3.8747,3.8763,3.8928,3.9248,3.924,3.9266,3.9309,0.0,0.0,0.0,0.0,3.9684,4.0029,4.0508,4.1111,4.18,4.2098,4.243,4.2783,4.2847,4.2872,4.2867,4.2732,4.2585,4.2432,4.2274,0.0,0.0,0.0,0.0,0.0,0.0,0.0,0.0,0.0,0.0,0.0,0.0,0.0,0.0,0.0,0.0,0.0,0.0,0.0,3.8352,3.8528,3.8383,0.0,0.0,0.0,0.0,0.0,0.0,0.0,0.0,0.0,3.8689,3.9497,4.0161,0.0,0.0,4.0916,4.1345,4.1672,4.2095,4.2699,4.2994,0.0,0.0,4.3474,4.365,4.3892,4.4775,4.5669,4.6332,4.642,4.6426,4.6426,4.6431,4.6413,4.6401,4.5431,4.4732,4.4782,4.4809,4.4791,4.4803,4.4809,4.4803,3.4153,3.3593,3.3319,3.3298,3.3432,3.3794,3.43,3.4863,3.518,3.5358,3.5406,3.5147,3.5023,3.5003,3.496,0.0,0.0,0.0,3.6237,3.6496,3.6758,3.7039,3.7273,3.7421,3.7795,3.8372,3.8254,3.8401,3.877,3.8969,3.9143,3.9247,0.0,0.0,3.8959,3.9359,3.9643,3.9773,4.0342,4.0913,4.147,4.1892,4.2308,4.2711,4.2791,4.2885,4.291,4.2853,4.267,4.2359,4.2199,4.1758,0.0,0.0,0.0,0.0,0.0,0.0,0.0,0.0,0.0,0.0,0.0,3.7397,0.0,0.0,0.0,0.0,3.773,3.8171,3.8637,3.8504,0.0,0.0,0.0,0.0,0.0,0.0,0.0,3.7354,3.8031,3.8691,3.9231,4.01,4.0687,4.0701,4.11,4.1559,4.198,0.0,4.3009,4.3577,4.4012,4.4335,4.4552,4.4745,4.4965,4.5265,4.6021,4.6717,4.7202,4.7361,4.7388,4.7388,4.7401,4.7437,4.7561,4.6657,4.5968,4.6057,4.6072,4.6067,4.6067,4.6062,4.6067,3.4988,3.5304,3.4986,3.479,3.476,3.5059,3.5408,3.576,3.595,3.6101,3.6211,3.5879,3.5962,3.6395,3.6822,0.0,3.7231,3.7602,3.7513,3.7152,3.7343,3.7092,3.6507,3.6639,3.6824,3.7093,3.7333,3.7713,3.8237,3.8587,3.8881,3.9155,3.9841,3.9925,3.9448,3.9757,3.9855,3.9714,4.0325,4.0746,4.1001,4.1701,4.2228,4.2522,4.2678,4.2798,4.2858,4.2858,4.27,4.2358,4.1913,4.1504,4.11,0.0,0.0,0.0,0.0,0.0,0.0,0.0,0.0,0.0,0.0,0.0,0.0,0.0,0.0,0.0,3.8435,0.0,3.8761,3.8385,0.0,0.0,0.0,3.7904,3.7935,3.8259,3.8357,3.808,0.0,0.0,4.0322,4.1321,4.1792,4.1267,4.1959,4.2602,4.2802,4.3666,4.4445,4.4779,4.5613,4.6254,4.6294,4.656,4.6768,4.7,4.7376,4.747,4.7511,4.7586,4.7691,4.7673,4.7689,4.7689,4.7689,4.759,4.7696,4.7585,4.7624,4.7652,4.7569,4.7536,4.7502,3.5936,3.6446,3.6828,3.6448,3.5672,3.5871,3.6085,3.6312,3.6352,3.6391,3.6406,3.6179,3.6089,3.6096,3.6207,3.6324,3.6462,3.6573,3.6624,3.6668,3.673,3.6669,3.6499,3.653,3.6894,3.7499,3.7748,3.8308,3.9152,3.9607,3.9969,4.0268,4.0175,3.9851,3.9343,3.9426,3.9558,3.9703,4.0062,4.0493,4.0995,4.1576,4.1929,4.2072,4.2285,4.2425,4.2455,4.2432,4.231,4.2017,4.1661,4.1105,4.0332,3.9774,0.0,0.0,0.0,0.0,0.0,0.0,0.0,0.0,0.0,3.7938,3.7976,0.0,3.804,0.0,3.8446,3.8614,3.863,3.8406,0.0,0.0,3.7943,3.798,3.8182,3.8764,3.9226,3.9426,4.0228,4.087,4.1174,4.2095,4.2759,4.2817,4.2845,4.3136,4.3799,4.4295,4.4943,4.5806,4.6269,4.6625,4.694,4.7188,4.7349,4.7414,4.7551,4.7646,4.7646,4.7673,4.7694,4.7694,4.7694,4.7694,4.772,4.7625,4.7585,4.7554,4.7625,4.7694,4.7694,4.762,4.7588,3.594,3.6596,3.7187,3.7176,3.6779,3.7008,3.7209,3.7392,3.7376,3.74,3.74,3.7273,3.7177,3.712,3.712,3.7145,3.7217,3.7217,3.7281,3.7384,3.74,3.7392,3.7384,3.7384,3.7609,3.8059,3.8267,3.8724,3.9409,3.9891,4.0353,4.0774,4.0643,4.0514,4.0345,3.9711,3.9481,3.9616,4.0249,4.0997,4.1823,4.2183,4.2264,4.2089,4.2272,4.2244,4.1964,4.1957,4.1835,4.1556,4.1277,4.0772,3.9942,3.9365,3.8615,0.0,0.0,0.0,0.0,0.0,0.0,0.0,0.0,0.0,0.0,0.0,3.7772,3.8252,3.8492,3.8609,3.8607,3.8483,3.8355,3.8223,3.8568,3.8889,3.9156,3.9907,4.0529,4.0751,4.1519,4.2066,4.2254,4.3093,4.3764,4.4007,4.3987,4.4193,4.4768,4.517,4.5639,4.6358,4.6696,4.6945,4.7211,4.7343,4.7389,4.743,4.7484,4.7516,4.7522,4.7522,4.7522,4.754,4.7811,4.8036,4.8,4.8233,4.8387,4.8313,4.832,4.8119,4.7599,4.7421,4.7394,3.5673,3.6387,3.7002,3.7475,3.7854,3.8179,3.8373,3.8475,3.8483,3.8508,3.8508,3.8508,3.8508,3.8508,3.8508,3.8508,3.8508,3.8508,3.8508,3.8508,3.8508,3.8508,3.8508,3.8508,3.8546,3.8638,3.8801,3.9116,3.954,3.9991,4.0506,4.1079,4.1234,4.1472,4.1701,4.0463,3.9804,3.9817,4.0803,4.1811,4.2802,4.3009,4.2839,4.2377,4.2456,4.2178,4.1512,4.1454,4.1295,4.0966,4.0835,4.0487,3.9864,3.9052,3.8389,0.0,3.7266,0.0,0.0,0.0,0.0,0.0,0.0,0.0,0.0,3.7569,3.7778,3.837,3.852,3.8583,3.8611,3.8702,3.8756,3.8786,3.9589,4.024,4.0502,4.1329,4.1938,4.209,4.2751,4.3253,4.3378,4.4053,4.4575,4.4718,4.4886,4.511,4.5518,4.5847,4.6206,4.6542,4.6917,4.7145,4.7233,4.7254,4.7259,4.7265,4.7403,4.739,4.7439,4.7552,4.7595,4.765,4.8123,4.8514,4.8405,4.8924,4.9281,4.9114,4.8993,4.8626,4.7817,4.7535,4.7398,3.6464,3.7158,3.7746,3.8227,3.8595,3.8835,3.8663,3.8271,3.8442,3.8508,3.8508,3.8508,3.8508,3.8508,3.8508,3.8508,3.8508,3.8508,3.8508,3.8508,3.8508,3.8508,3.8508,3.8508,3.8784,3.9291,3.9356,3.985,4.0761,4.1119,4.1574,4.2095,4.1941,4.1961,4.216,0.0,0.0,0.0,4.1765,4.2135,4.2561,4.2807,4.2838,4.2638,4.2593,0.0,4.1383,4.1226,4.0815,4.0115,4.0486,0.0,0.0,0.0,0.0,0.0,0.0,0.0,0.0,0.0,0.0,0.0,3.7185,3.7291,3.7457,3.7924,3.8314,3.8525,3.8483,3.8476,3.859,3.9243,3.9661,3.9701,4.0675,4.1415,4.1593,4.2385,4.2967,4.3124,4.3793,4.4294,4.4298,4.4485,4.4647,4.4762,4.4845,4.5025,4.5406,4.579,4.6107,4.6399,4.6825,4.705,4.7054,4.709,4.7168,4.7107,4.759,4.7912,4.7972,4.8484,4.8835,4.8722,4.8906,4.8923,4.8747,4.8808,4.8951,4.8844,4.8742,4.8637,4.872,4.8563,4.8434,3.6296,0.0,3.7548,3.8052,0.0,3.8824,3.8844,3.8674,3.8965,3.9159,3.9253,3.9355,3.9373,3.9397,3.9458,3.9449,3.9397,3.9373,3.9382,3.9397,3.9388,3.9424,3.9483,3.9483,3.9661,3.9975,3.999,4.0329,4.0935,4.1273,4.1712,4.2254,4.2369,4.2595,4.2941,4.2905,4.2763,4.2557,4.261,4.2939,4.3522,4.3667,4.3487,4.2969,0.0,0.0,0.0,0.0,0.0,0.0,0.0,0.0,0.0,0.0,0.0,3.9647,3.9026,3.8639,3.8532,3.8548,3.8594,3.8685,3.867,3.8309,3.7472,3.7867,3.8295,3.8616,3.8679,3.8898,3.9399,3.9908,4.0292,4.0545,4.1548,4.2317,4.2593,4.3345,4.3908,4.4015,4.4354,4.4591,4.4591,4.4591,4.4636,4.4696,4.4772,4.5008,4.5538,4.5732,4.6017,4.6721,4.6994,4.731,4.764,4.7734,4.774,4.7799,4.8064,4.8265,4.83,4.8625,4.8889,4.886,4.9119,4.9333,4.9174,4.9306,4.9533,4.9428,4.9241,4.9146,4.9318,4.8938,4.8519,3.5881,3.6679,3.7066,3.7558,3.8071,3.8431,3.8718,3.8977,0.0,0.0,0.0,4.0148,4.025,4.0244,4.0366,4.0349,4.025,4.025,4.025,4.0259,4.025,4.032,4.0418,4.0418,4.0427,4.0418,4.0462,4.0558,4.0756,4.1088,4.1514,4.2021,4.2539,4.3083,4.3628,4.3945,4.3889,4.3467,4.3419,4.3771,4.4567,4.4591,4.4219,4.3404,4.3369,4.2946,4.2087,4.2019,4.19,4.1681,4.1784,4.1711,4.1458,4.1427,4.1326,4.1116,4.0839,4.067,4.0662,4.0547,4.0422,4.0323,4.0135,3.9396,3.7935,3.8072,3.8384,3.8853,3.903,3.9436,4.0218,4.0553,4.0856,4.1311,4.2332,4.3072,4.3361,4.4066,4.455,4.4591,4.4567,4.4591,4.4591,4.4591,4.4668,4.4801,4.496,4.5255,4.5886,4.6079,4.6384,4.7192,4.7417,4.7651,4.8213,4.8355,4.843,4.8309,4.8476,4.8601,4.8619,4.8686,4.873,4.881,4.9291,4.9514,4.9485,4.9771,5.0183,5.0086,4.9854,4.9671,4.9605,4.9075,4.8599,3.5794,3.647,3.6889,3.7192,3.7447,3.7677,3.7967,3.8389,3.9304,3.9723,3.9759,3.996,4.0031,4.0055,4.0066,4.0049,4.0046,4.0055,4.0055,4.0046,4.0031,4.0049,4.0066,4.0066,4.0066,4.0084,4.0235,4.0401,4.0558,4.0919,4.1322,4.1695,4.2198,4.2905,4.3721,4.4003,4.4191,4.4397,4.4229,4.4287,4.4584,4.4591,4.4463,4.4175,4.4023,4.359,4.2717,4.2525,4.214,4.1586,4.2079,4.2365,4.2319,4.2336,4.2298,4.2236,4.1702,4.1364,4.1368,4.1176,4.0885,4.0499,4.0174,3.9827,3.9506,3.9442,3.9466,3.9554,3.9585,3.9779,4.0283,4.0997,4.1556,4.1996,4.2978,4.3715,4.3927,4.4313,4.4591,4.4591,4.4591,4.4608,4.4651,4.4642,4.4905,4.5382,4.5654,4.5901,4.6646,4.7019,4.732,4.7698,4.7814,4.7913,4.8223,4.8173,4.825,4.8144,4.8638,4.8927,4.8934,4.9267,4.9497,4.9519,4.9582,4.9603,4.9492,4.9548,4.9642,4.9637,4.9538,4.95,4.951,4.9338,4.9303,3.5797,3.6391,3.6609,3.6973,3.7467,3.7672,3.7924,3.824,3.8695,3.908,3.94,3.9589,3.9738,3.9839,3.9943,3.9934,3.983,3.9839,3.983,3.9845,3.983,3.9898,4.0002,4.0002,4.0002,4.002,4.0093,4.0163,4.0259,4.0483,4.0793,4.1206,4.2134,4.2982,4.3663,4.3967,4.4162,4.4322,4.4303,4.4338,4.4433,4.4423,4.4362,4.4188,4.4181,4.4004,4.3523,4.342,4.3225,4.2915,4.3201,4.3351,4.3375,4.343,4.3473,4.3456,4.3125,4.2865,4.2764,4.2273,4.1859,4.1632,4.1158,4.0793,4.0632,3.9874,3.9558,3.9825,3.9952,4.0357,4.1087,4.1596,4.2086,4.2592,4.3286,4.3778,4.4075,4.4393,4.4584,4.4591,4.4591,4.4736,4.5152,4.5179,4.5473,4.616,4.6592,4.7052,4.7467,4.7925,4.8233,4.8198,4.8173,4.84,4.874,4.886,4.8867,4.885,4.9085,4.9249,4.9266,4.9544,4.9629,4.9622,4.9599,4.9577,4.9503,4.9413,4.9367,4.9345,4.9252,4.9239,4.9239,4.9275,4.9448,3.5884,3.6451,3.6474,3.688,3.7534,3.7749,3.7934,3.8132,3.8193,3.851,3.9031,3.9232,3.9436,3.9643,3.9801,3.9783,3.9652,3.9634,3.9619,3.9634,3.9643,3.9705,3.9863,3.9854,3.9854,3.9872,3.9916,3.9925,3.9951,4.008,4.0396,4.0943,4.2021,4.2874,4.3458,4.3767,4.3974,4.4039,4.4152,4.4234,4.4246,4.4253,4.4203,4.4119,4.4196,4.4196,4.4097,4.4097,4.4097,4.4097,4.4097,4.4104,4.4148,4.4246,4.4324,4.4345,4.4234,4.3986,4.363,4.2982,4.2547,4.2365,4.1859,4.1431,4.1121,4.0162,3.969,4.0124,4.039,4.0856,4.1675,4.1997,4.2357,4.3005,4.3399,4.3735,4.4068,4.4545,4.4855,4.4838,4.498,4.5362,4.5788,4.595,4.6244,4.6955,4.7675,4.8124,4.8225,4.8665,4.8812,4.8645,4.856,4.8797,4.9402,4.9474,4.9447,4.9503,4.9429,4.938,4.9382,4.9411,4.939,4.9383,4.9383,4.9367,4.9375,4.9277,4.9185,4.9163,4.9094,4.9024,4.904,4.913,4.9343,3.6224,3.6642,3.6668,3.6919,3.737,3.7567,3.7754,3.7977,3.8118,3.8436,3.8846,3.905,3.9241,3.9424,3.946,3.9469,3.9442,3.9433,3.9427,3.9427,3.9418,3.9436,3.9487,3.946,3.946,3.9487,3.9643,3.9717,3.975,3.9943,4.0368,4.1062,4.1694,4.2318,4.2923,4.3296,4.3597,4.3816,4.3886,4.3991,4.4112,4.4119,4.4104,4.4097,4.4112,4.4112,4.4097,4.4097,4.4097,4.4097,4.4097,4.4145,4.4267,4.4272,4.4374,4.4552,4.4384,4.397,4.3233,4.2829,4.2325,4.1761,4.1489,4.1189,4.0885,4.0548,4.0468,4.0659,4.0876,4.1251,4.1833,4.2013,4.2365,4.2989,4.3434,4.3719,4.4185,4.4993,4.5594,4.5594,4.6082,4.6641,4.665,4.6759,4.7039,4.7701,4.8334,4.8757,4.8798,4.8892,4.8992,4.896,4.9019,4.9171,4.9428,4.9503,4.9458,4.9441,4.9362,4.9337,4.935,4.9291,4.9106,4.9588,4.9272,4.9331,4.9248,4.9049,4.9134,4.9352,4.9271,4.9095,4.9026,4.9169,4.9422,3.6411,3.6707,3.6821,3.7255,3.7806,3.791,3.8127,3.8432,3.838,3.8594,3.8953,3.9053,3.9219,3.9397,3.9397,3.9397,3.9397,3.9397,3.9397,3.9397,3.9397,3.9397,3.9397,3.9397,3.9397,3.9406,3.9496,3.9517,3.9586,3.9845,4.0261,4.0775,4.1398,4.2021,4.2595,4.3013,4.3325,4.355,4.3665,4.3763,4.3813,4.3925,4.3993,4.3991,4.4063,4.4097,4.4097,4.4097,4.4097,4.4097,4.4097,4.4126,4.4191,4.4184,4.422,4.4279,4.3855,4.3362,4.2836,4.2309,4.1899,4.1597,4.1223,4.0943,4.0816,4.061,4.0533,4.0627,4.0908,4.1228,4.1546,4.1867,4.2357,4.2963,4.371,4.4383,4.4735,4.5691,4.6363,4.638,4.6599,4.7005,4.7421,4.7834,4.8189,4.8529,4.8841,4.9001,4.9018,4.9018,4.9018,4.9018,4.9055,4.9109,4.9225,4.9216,4.9216,4.9269,4.9521,4.9721,4.9764,5.0123,5.0313,5.0262,5.0211,5.0203,5.0371,5.0313,5.0313,5.0228,5.0279,5.0288,5.0288,4.9988,4.9914,3.6756,3.6972,3.7226,3.7649,3.8202,3.8324,3.8523,3.8778,3.8701,3.883,3.9071,3.915,3.925,3.9388,3.9397,3.9397,3.9397,3.9397,3.9397,3.9397,3.9397,3.9397,3.9397,3.9397,3.9397,3.9397,3.9397,3.9397,3.9442,3.9732,4.008,4.0467,4.1005,4.1588,4.2158,4.2609,4.2944,4.3175,4.3364,4.347,4.3485,4.365,4.3785,4.3831,4.3901,4.3967,4.3952,4.3974,4.3937,4.3915,4.3908,4.3908,4.3908,4.3908,4.3908,4.3864,4.3363,4.2875,4.2476,4.1924,4.1522,4.1373,4.0987,4.0766,4.0705,4.0584,4.0513,4.0539,4.0864,4.1177,4.1422,4.1818,4.239,4.3184,4.4171,4.4882,4.5472,4.6456,4.7107,4.7114,4.7361,4.7581,4.8131,4.8605,4.8934,4.8951,4.8984,4.9018,4.9018,4.9018,4.9018,4.9018,4.9154,4.934,4.9314,4.9388,4.934,4.9645,5.0143,5.0404,5.0388,5.0897,5.1167,5.0786,5.11,5.115,5.0914,5.1049,5.1243,5.1218,5.1218,5.1201,5.1015,5.0676,5.0521,3.738,3.7591,3.7976,3.8155,3.824,3.8612,3.8773,3.887,3.8995,3.9086,3.9147,3.9301,3.9388,3.9397,3.9397,3.9397,3.9397,3.9397,3.9397,3.9397,3.9397,3.9397,3.9397,3.9397,3.9397,3.9397,3.9397,3.9397,3.9424,3.9625,3.9879,4.0216,4.0491,4.0928,4.158,4.2013,4.2334,4.2665,4.2951,4.3128,4.3151,4.3312,4.3462,4.3576,4.3621,4.3658,4.3643,4.3635,4.3583,4.344,4.3471,4.344,4.3449,4.3425,4.3441,4.3388,4.3092,4.2657,4.215,4.1736,4.1348,4.0919,4.0782,4.0713,4.0541,4.0505,4.0481,4.0498,4.0864,4.1187,4.1593,4.2018,4.2703,4.3857,4.4466,4.5232,4.615,4.7184,4.7789,4.7954,4.8351,4.8655,4.8883,4.896,4.9001,4.9018,4.9018,4.9018,4.9018,4.9018,4.9103,4.9238,4.9593,5.0075,5.0083,5.0058,5.0364,5.0643,5.0812,5.115,5.115,5.1176,5.1269,5.1336,5.1522,5.1522,5.1302,5.1286,5.1429,5.1488,5.1573,5.1539,5.1793,5.1378,5.1191,3.7572,3.7995,3.8136,3.8417,3.8778,3.894,3.9053,3.9186,3.925,3.9292,3.9301,3.9379,3.9397,3.9397,3.9397,3.9397,3.9397,3.9397,3.9397,3.9397,3.9397,3.9397,3.9397,3.9397,3.9397,3.9397,3.9397,3.9397,3.9409,3.9592,3.9753,3.9939,4.0307,4.0713,4.1138,4.1686,4.2077,4.2294,4.2609,4.2772,4.2772,4.2858,4.2991,4.3161,4.3464,4.3615,4.3615,4.3615,4.3529,4.3402,4.3281,4.3159,4.3076,4.2959,4.2789,4.2586,4.2381,4.2037,4.1514,4.1105,4.0766,4.0474,4.0333,4.0331,4.0366,4.0366,4.0409,4.0524,4.0746,4.1209,4.1998,4.2518,4.3081,4.3871,4.5092,4.6145,4.6959,4.7865,4.8506,4.8608,4.8875,4.9001,4.9018,4.9018,4.9018,4.9018,4.9018,4.9018,4.9103,4.9373,4.9669,4.9813,5.0338,5.0972,5.1488,5.1048,5.0955,5.1209,5.1455,5.1784,5.1902,5.2325,5.2528,5.2452,5.2435,5.2402,5.2368,5.2385,5.2376,5.2444,5.2452,5.2334,5.268,5.2207,5.197,3.8501,3.8922,3.9097,3.9356,3.9734,3.9811,3.9918,4.0043,4.0043,4.0053,4.0043,4.0043,3.9939,3.9744,3.972,3.9586,3.9412,3.9397,3.9397,3.9397,3.9397,3.9397,3.9397,3.9397,3.9397,3.9397,3.9397,3.9397,3.9415,3.9535,3.9634,3.9741,4.008,4.0403,4.0747,4.1271,4.1637,4.1851,4.2118,4.2261,4.2285,4.2317,4.2396,4.2586,4.2975,4.3289,4.3432,4.344,4.3342,4.316,4.2959,4.2758,4.2492,4.2349,4.2158,4.1875,4.1711,4.1422,4.0962,4.0595,4.0327,4.0167,4.006,4.0066,4.0174,4.0215,4.027,4.0458,4.0855,4.1408,4.2167,4.3077,4.3862,4.4406,4.5677,4.6837,4.7582,4.8317,4.8797,4.8937,4.8984,4.9018,4.9018,4.9018,4.9018,4.9018,4.9018,4.9052,4.9373,4.9737,5.0227,5.0456,5.1082,5.1649,5.2089,5.197,5.2004,5.2258,5.2216,5.2494,5.268,5.3213,5.345,5.3492,5.3509,5.3509,5.3509,5.3509,5.3509,5.3509,5.3306,5.3044,5.3103,5.301,5.2756,4.0183,4.0437,4.0892,4.0923,4.0973,4.1105,4.1304,4.1254,4.1283,4.1194,4.1124,4.1298,4.0885,4.0502,4.0421,4.0083,3.9675,3.9631,3.9526,3.9421,3.9397,3.9397,3.9397,3.9397,3.9397,3.9397,3.9397,3.9397,3.9406,3.9433,3.9517,3.9655,3.9741,4.0018,4.0457,4.0722,4.0979,4.1265,4.149,4.1613,4.1613,4.1737,4.1835,4.1876,4.2214,4.2586,4.3012,4.3082,4.2952,4.2657,4.2492,4.2158,4.172,4.1605,4.1474,4.1298,4.1156,4.0887,4.0521,4.0294,4.0115,3.9972,3.9969,3.9958,3.9987,4.0056,4.0181,4.0467,4.106,4.1654,4.2158,4.344,4.4741,4.5657,4.6166,4.6963,4.789,4.8531,4.8848,4.8963,4.9018,4.9018,4.9018,4.9018,4.9035,4.9137,4.9154,4.9407,4.9999,5.0312,5.0541,5.1125,5.1818,5.2418,5.268,5.29,5.3171,5.3391,5.3255,5.3255,5.3188,5.3475,5.3475,5.3509,5.3509,5.3509,5.3509,5.3509,5.3509,5.3509,5.3509,5.3509,5.3391,5.3272,5.334,4.0211,4.0694,4.0839,4.1051,4.1289,4.1375,4.1413,4.1428,4.1413,4.1413,4.1413,4.1413,4.1283,4.1134,4.1098,4.0969,4.078,4.0741,4.0292,3.9556,3.9427,3.9442,3.9442,3.9412,3.9397,3.9397,3.9397,3.9406,3.9427,3.9427,3.9427,3.9499,3.9634,3.9761,3.9965,4.024,4.0459,4.0562,4.0885,4.1046,4.1079,4.123,4.1348,4.1457,4.1573,4.1778,4.2077,4.2499,4.2578,4.2262,4.2133,4.1768,4.1173,4.0911,4.0749,4.0571,4.051,4.032,4.0003,3.9912,3.9788,3.9634,3.961,3.9652,3.9837,4.0248,4.054,4.0802,4.1407,4.2062,4.2949,4.3511,4.4412,4.5355,4.6337,4.7159,4.7934,4.8493,4.8832,4.8987,4.9018,4.9018,4.9011,4.9003,4.9232,4.9664,4.973,5.0017,5.0694,5.1193,5.1623,5.1995,5.2621,5.3027,5.312,5.3171,5.334,5.3509,5.3509,5.3509,5.3509,5.3509,5.3509,5.3509,5.3509,5.3509,5.3509,5.3509,5.3509,5.3509,5.3509,5.3509,5.3509,5.3509,5.3509,4.0784,4.1386,4.1568,4.1812,4.2093,4.2093,4.2102,4.2102,4.2112,4.2112,4.2117,4.2117,4.1972,4.1807,4.1772,4.1637,4.1443,4.1413,4.0945,4.0238,4.0148,4.0148,4.0148,4.0133,4.0133,4.0142,4.0157,4.0157,4.0142,3.9885,3.9789,3.9787,3.9661,3.9643,3.9714,3.9897,4.0023,4.0135,4.0377,4.0489,4.0522,4.0632,4.0712,4.0816,4.0877,4.0939,4.1099,4.1565,4.1811,4.1753,4.1538,4.1137,4.0645,4.0436,4.022,4.0065,4.0012,3.9879,3.9643,3.9598,3.9544,3.9448,3.964,3.9829,4.0067,4.0579,4.1028,4.1297,4.1833,4.25,4.3234,4.3721,4.4245,4.5049,4.6048,4.7049,4.7729,4.8292,4.8611,4.8745,4.8798,4.8933,4.9135,4.9236,4.954,5.0129,5.0315,5.0584,5.1267,5.183,5.2184,5.2563,5.3027,5.3306,5.3433,5.3475,5.3475,5.3509,5.3509,5.3509,5.3509,5.3509,5.3509,5.3509,5.3509,5.3509,5.3509,5.3509,5.3509,5.3509,5.3509,5.3509,5.3509,5.3509,5.3509,4.1758,4.2388,4.277,4.2956,4.3155,4.317,4.315,4.3215,4.321,4.3175,4.321,4.312,4.2925,4.2511,4.2446,4.2167,4.1643,4.1673,4.1663,4.1528,4.1484,4.1424,4.1194,4.1164,4.1149,4.1224,4.1239,4.1298,4.1149,4.0681,4.0457,4.0412,3.9981,3.9655,3.9959,3.9847,4.0048,4.0234,4.0221,4.0271,4.0256,4.0252,4.0225,4.023,4.0325,4.0368,4.0353,4.0534,4.08,4.1097,4.0749,4.0429,4.0261,4.0084,3.9881,3.9714,3.9681,3.9592,3.9445,3.9562,3.9568,3.9595,4.0113,4.0457,4.0569,4.1106,4.1552,4.1754,4.232,4.2823,4.3204,4.3701,4.436,4.4871,4.5681,4.6584,4.7505,4.7959,4.8269,4.8545,4.8609,4.8851,4.9571,4.9696,5.0081,5.0576,5.0844,5.1179,5.1715,5.2244,5.2514,5.2859,5.3196,5.3306,5.3348,5.3382,5.3399,5.3509,5.3509,5.3509,5.3509,5.3509,5.3509,5.3509,5.3509,5.3509,5.3509,5.3509,5.3509,5.3509,5.3509,5.3509,5.3509,5.3509,5.3509,4.1371,4.2106,4.2428,4.2749,4.3076,4.323,4.3305,4.3305,4.3305,4.3295,4.3305,4.3305,4.321,4.3055,4.305,4.2951,4.2771,4.2756,4.2801,4.2801,4.2811,4.2222,4.1568,4.1428,4.1448,4.1463,4.1538,4.1413,4.1388,4.1244,4.1139,4.1124,4.0924,4.0853,4.0945,4.0888,4.0973,4.1038,4.1167,4.1208,4.1196,4.13,4.1161,4.077,4.0769,4.0544,4.0127,4.0086,4.0226,4.0433,4.0141,3.9895,3.9905,3.9733,3.9643,3.9628,3.9556,3.9508,3.9544,3.9879,4.0127,4.0178,4.075,4.1134,4.1164,4.1757,4.2115,4.2319,4.2789,4.3232,4.3473,4.3726,4.4118,4.4695,4.5564,4.6448,4.714,4.748,4.7944,4.8852,4.9051,4.9484,5.0067,5.0384,5.066,5.1237,5.1505,5.1689,5.2207,5.2493,5.2704,5.2788,5.3007,5.3119,5.3204,5.3247,5.3315,5.3458,5.3509,5.3509,5.3509,5.3509,5.3509,5.3509,5.3509,5.3509,5.3509,5.3509,5.3509,5.3509,5.3509,5.3509,5.3509,5.3509,5.3509,4.0869,4.1625,4.2049,4.2428,4.2749,4.2975,4.309,4.3155,4.318,4.323,4.328,4.3305,4.3305,4.3305,4.33,4.33,4.3305,4.3305,4.33,4.33,4.327,4.2861,4.2347,4.2207,4.2217,4.2207,4.2183,4.2212,4.2162,4.1947,4.1832,4.1742,4.1538,4.1428,4.1353,4.1413,4.1428,4.1417,4.1507,4.1569,4.1573,4.1652,4.1518,4.1204,4.1159,4.0942,4.0631,4.0601,4.0486,4.0168,3.9874,3.982,4.0088,3.9937,3.9963,4.0178,4.0238,4.0262,4.0283,4.0621,4.0795,4.093,4.1448,4.1757,4.1937,4.2416,4.2771,4.2845,4.313,4.3339,4.3518,4.3641,4.4036,4.4722,4.5513,4.6301,4.7015,4.7364,4.8069,4.8913,4.9406,4.9739,5.0596,5.0679,5.1129,5.1653,5.1877,5.2138,5.2491,5.2678,5.2755,5.2729,5.2799,5.2912,5.2972,5.3016,5.3144,5.3297,5.3416,5.3425,5.3467,5.3475,5.3509,5.3509,5.3509,5.3509,5.3509,5.3509,5.3509,5.3509,5.3509,5.3509,5.3509,5.3509,5.3509,4.0308,4.0979,4.1625,4.2059,4.2336,4.2581,4.2779,4.2915,4.2996,4.3105,4.323,4.3305,4.3305,4.3305,4.3305,4.3305,4.3305,4.3305,4.3305,4.3305,4.3305,4.318,4.312,4.306,4.3085,4.3105,4.327,4.3195,4.2995,4.2651,4.2511,4.2391,4.1932,4.1693,4.1828,4.1738,4.1603,4.1753,4.1837,4.1871,4.1871,4.1885,4.1799,4.1584,4.1364,4.1364,4.131,4.1295,4.0987,4.0204,3.9979,4.0251,4.07,4.0594,4.0745,4.1124,4.1194,4.1224,4.1358,4.1349,4.1508,4.1598,4.2116,4.2491,4.2586,4.2945,4.3195,4.3195,4.33,4.3384,4.3559,4.3678,4.4207,4.4928,4.5465,4.6101,4.693,4.7479,4.8119,4.913,4.9491,4.9966,5.0461,5.0783,5.1034,5.1484,5.1743,5.195,5.2173,5.2288,5.2367,5.2412,5.2536,5.2728,5.2755,5.2773,5.293,5.3093,5.3246,5.3314,5.3399,5.3425,5.3475,5.3509,5.3509,5.3509,5.3509,5.3509,5.3509,5.3509,5.3509,5.3509,5.3509,5.3509,5.3509,3.984,4.0495,4.1001,4.1479,4.1893,4.2285,4.2479,4.2561,4.2855,4.2996,4.3095,4.323,4.3305,4.3305,4.3305,4.3305,4.3305,4.3305,4.3305,4.3305,4.3305,4.3305,4.3305,4.3305,4.3305,4.3305,4.3305,4.3305,4.3225,4.316,4.31,4.3025,4.2861,4.2876,4.2816,4.2726,4.2891,4.2891,4.2861,4.2786,4.2771,4.2766,4.2566,4.2191,4.1742,4.1463,4.1428,4.1413,4.1301,4.1153,4.1087,4.1168,4.1224,4.1207,4.1313,4.1469,4.1508,4.1463,4.1508,4.1912,4.2191,4.2241,4.2671,4.31,4.3115,4.318,4.3305,4.3305,4.3305,4.3559,4.4007,4.4138,4.4629,4.5314,4.5784,4.6344,4.7245,4.7651,4.8287,4.9146,4.9664,5.0075,5.0853,5.086,5.1069,5.1331,5.1457,5.1619,5.1758,5.1869,5.1926,5.1964,5.2036,5.2179,5.2293,5.2473,5.2936,5.3213,5.3371,5.3529,5.3599,5.3618,5.3754,5.367,5.3509,5.3509,5.3509,5.3509,5.3509,5.3509,5.3509,5.3509,5.3509,5.3509,5.3509,4.0133,4.0704,4.1146,4.1449,4.17,4.2022,4.2179,4.2232,4.2424,4.2724,4.2985,4.3115,4.322,4.3305,4.3305,4.3305,4.3305,4.3305,4.3305,4.3305,4.3305,4.3305,4.3305,4.3305,4.3305,4.3305,4.3305,4.3305,4.3305,4.3305,4.327,4.3305,4.3305,4.3225,4.3305,4.3305,4.327,4.3255,4.3305,4.3305,4.3305,4.33,4.322,4.2865,4.2476,4.2287,4.2327,4.2317,4.2312,4.2287,4.2272,4.2117,4.1912,4.1867,4.1987,4.2252,4.2287,4.2297,4.2447,4.2596,4.2821,4.2806,4.3145,4.324,4.3305,4.3305,4.3305,4.3374,4.3614,4.4032,4.4666,4.4766,4.5193,4.5849,4.619,4.672,4.7543,4.7932,4.8405,4.9283,4.9728,5.0007,5.0378,5.0544,5.0634,5.0663,5.072,5.0895,5.1163,5.1278,5.1378,5.1434,5.1462,5.1568,5.1744,5.2163,5.2921,5.3361,5.3799,5.4025,5.4214,5.4174,5.4148,5.3964,5.3771,5.3518,5.3509,5.3509,5.356,5.3509,5.3509,5.3509,5.3509,5.3509,5.3509,4.051,4.1018,4.1395,4.1544,4.161,4.1843,4.202,4.2098,4.2241,4.2724,4.2983,4.3104,4.3319,4.3285,4.3305,4.3305,4.3305,4.3305,4.3305,4.3305,4.3305,4.3305,4.3305,4.3305,4.3305,4.3305,4.3305,4.3305,4.3305,4.3305,4.3305,4.3305,4.3305,4.3305,4.3305,4.3305,4.3305,4.3305,4.3305,4.3305,4.3305,4.3305,4.327,4.3225,4.3165,4.3105,4.309,4.3135,4.3225,4.3305,4.3305,4.302,4.2696,4.2571,4.2696,4.324,4.315,4.309,4.306,4.3195,4.3255,4.3305,4.3305,4.3305,4.3305,4.3464,4.3554,4.3743,4.4057,4.4736,4.5349,4.5454,4.5852,4.6464,4.6707,4.7131,4.7729,4.8127,4.8589,4.9176,4.9514,4.9775,4.9823,4.991,4.9959,5.0018,5.0061,5.0179,5.0454,5.0672,5.0771,5.0961,5.1025,5.1527,5.1788,5.1965,5.2706,5.3267,5.3855,5.4135,5.437,5.4245,5.4087,5.4215,5.4058,5.3957,5.3898,5.3991,5.3957,5.3704,5.3509,5.3509,5.3509,5.3509,5.3509,4.0131,4.0453,4.0745,4.1084,4.1471,4.1891,4.22,4.2532,4.3149,4.3414,4.3315,4.3658,4.3616,4.3459,4.3319,4.3319,4.3419,4.3359,4.3305,4.3305,4.3305,4.3305,4.3305,4.3305,4.3305,4.3305,4.3305,4.3305,4.3305,4.3305,4.3305,4.3305,4.3305,4.3305,4.3305,4.3305,4.3305,4.3305,4.3305,4.3305,4.3305,4.3305,4.3305,4.3305,4.3305,4.3305,4.3305,4.3305,4.3305,4.3305,4.3305,4.324,4.3115,4.3085,4.3175,4.3255,4.3305,4.3305,4.3305,4.3305,4.3305,4.3305,4.3374,4.3359,4.3464,4.3818,4.4132,4.4371,4.4785,4.5409,4.6031,4.6132,4.6446,4.6976,4.7274,4.7411,4.764,4.7902,4.8207,4.8702,4.9082,4.9351,4.9275,4.9245,4.928,4.934,4.9411,4.9501,4.9676,4.9937,5.0135,5.0371,5.0618,5.1315,5.1976,5.212,5.2509,5.2991,5.3485,5.377,5.3931,5.3936,5.3982,5.4465,5.4824,5.4926,5.4843,5.4607,5.4481,5.4345,5.3957,5.3551,5.3627,5.3712,5.3509,4.0779,4.1035,4.1179,4.1388,4.1686,4.2041,4.2321,4.2565,4.3128,4.3484,4.3686,4.3984,4.4192,4.4182,4.4311,4.4177,4.3833,4.3419,4.3329,4.3305,4.3305,4.3305,4.3359,4.3344,4.3305,4.3305,4.3305,4.3344,4.3305,4.3305,4.3334,4.3305,4.3305,4.3305,4.3305,4.3305,4.3344,4.3344,4.3344,4.3344,4.3329,4.3329,4.3305,4.3305,4.3305,4.3305,4.3305,4.3305,4.3305,4.3305,4.3305,4.3305,4.3334,4.3344,4.3344,4.3359,4.3329,4.3314,4.3314,4.3305,4.3305,4.3344,4.3584,4.3793,4.3982,4.4401,4.493,4.5309,4.5508,4.6087,4.6734,4.6764,4.6984,4.7215,4.7417,4.7445,4.7499,4.7671,4.789,4.8123,4.837,4.8557,4.8568,4.8568,4.8599,4.8661,4.8769,4.8914,4.9068,4.9429,4.9795,5.0236,5.0637,5.1309,5.1973,5.2193,5.2387,5.2817,5.3171,5.3443,5.3842,5.3998,5.458,5.5237,5.5518,5.534,5.5314,5.4926,5.4947,5.4943,5.4505,5.4151,5.4008,5.389,5.3712,4.1423,4.161,4.1623,4.1751,4.1978,4.2295,4.2564,4.2771,4.3175,4.3643,4.4008,4.4351,4.4688,4.4939,4.5086,4.496,4.4471,4.3938,4.3838,4.3838,4.3838,4.3763,4.3718,4.3703,4.3833,4.3967,4.3893,4.3554,4.3364,4.3509,4.3524,4.3643,4.3614,4.3713,4.3803,4.3938,4.3728,4.3703,4.3703,4.3673,4.3549,4.3494,4.3394,4.3305,4.3305,4.3305,4.3305,4.3305,4.3424,4.3524,4.3569,4.3599,4.3688,4.3703,4.3698,4.3668,4.3479,4.3374,4.3509,4.3554,4.3688,4.3923,4.4247,4.4426,4.4651,4.5114,4.5768,4.6341,4.651,4.6644,4.7104,4.7268,4.7294,4.7294,4.7309,4.732,4.7359,4.7456,4.7531,4.7677,4.7773,4.7958,4.8169,4.8207,4.8297,4.847,4.8584,4.8819,4.9006,4.9402,4.9801,5.0306,5.0814,5.1426,5.1935,5.2238,5.2438,5.2735,5.2999,5.322,5.3767,5.4273,5.4788,5.5057,5.503,5.4875,5.5026,5.5281,5.5275,5.5157,5.4921,5.4749,5.4631,5.432,5.4042,4.1324,4.1336,4.1348,4.162,4.2094,4.2581,4.3059,4.3468,4.412,4.4493,4.4397,4.4862,4.5069,4.5187,4.5271,4.5274,4.5165,4.4975,4.4815,4.4785,4.483,4.483,4.499,4.508,4.484,4.477,4.4885,4.4341,4.3853,4.3997,4.4162,4.4252,4.4621,4.5005,4.4781,4.4755,4.508,4.502,4.5005,4.4736,4.4292,4.4187,4.3883,4.3569,4.3449,4.3494,4.3554,4.3584,4.3703,4.4132,4.4177,4.4471,4.492,4.5065,4.5065,4.471,4.4147,4.3544,4.4057,4.4177,4.4371,4.4696,4.508,4.517,4.5439,4.5817,4.6471,4.7115,4.7134,4.7119,4.7264,4.7298,4.7298,4.7298,4.7298,4.7298,4.7331,4.7352,4.7391,4.7496,4.7677,4.7856,4.8037,4.8025,4.8043,4.8235,4.8441,4.8719,4.9038,4.9513,5.0096,5.0667,5.1027,5.1602,5.1857,5.2171,5.2327,5.2607,5.273,5.292,5.3302,5.3712,5.396,5.4163,5.421,5.4582,5.4995,5.5265,5.5433,5.5428,5.5261,5.5244,5.5281,5.4908,5.4447,4.1286,4.1286,4.1286,4.1522,4.1932,4.2461,4.2875,4.3305,4.4023,4.4387,4.455,4.5097,4.5603,4.592,4.5966,4.5867,4.5788,4.5539,4.5315,4.5349,4.5349,4.5334,4.5259,4.5289,4.5289,4.5379,4.5259,4.505,4.4621,4.4666,4.486,4.493,4.5155,4.5229,4.5439,4.5319,4.5274,4.5244,4.5244,4.514,4.4935,4.4845,4.4736,4.4436,4.4396,4.4366,4.4366,4.4441,4.4531,4.4855,4.486,4.4985,4.5214,4.5274,4.5274,4.5225,4.4811,4.4631,4.4825,4.4855,4.508,4.5324,4.5663,4.6042,4.6367,4.6651,4.6924,4.7253,4.7298,4.7298,4.7298,4.7298,4.7298,4.7298,4.7298,4.7298,4.7298,4.7298,4.735,4.7459,4.7634,4.7976,4.8248,4.8354,4.8386,4.8425,4.875,4.9105,4.9465,4.9887,5.0525,5.1224,5.149,5.1767,5.19,5.2071,5.2048,5.2219,5.2234,5.2412,5.2596,5.2905,5.317,5.3357,5.3457,5.4015,5.4778,5.516,5.5276,5.5451,5.5622,5.5634,5.5608,5.5406,5.4949,4.1286,4.1286,4.1286,4.1448,4.1746,4.2265,4.267,4.2984,4.3715,4.4164,4.4586,4.5281,4.6151,4.6733,4.6646,4.654,4.6525,4.6012,4.5843,4.5783,4.5783,4.5873,4.5963,4.5888,4.5873,4.5768,4.5992,4.5888,4.5858,4.5813,4.5783,4.5589,4.5883,4.5888,4.5858,4.5933,4.5978,4.5978,4.5963,4.5813,4.5603,4.5548,4.5424,4.5304,4.5274,4.5289,4.5289,4.5229,4.524,4.5533,4.5548,4.5663,4.5888,4.6007,4.5992,4.5978,4.5813,4.5828,4.5798,4.5738,4.5663,4.5903,4.6172,4.6715,4.7074,4.7298,4.7298,4.7298,4.7298,4.7298,4.7298,4.7298,4.7298,4.7298,4.7298,4.7298,4.7384,4.7578,4.7728,4.7878,4.8117,4.8457,4.8707,4.8786,4.879,4.8715,4.9007,4.949,4.9914,5.0343,5.0738,5.1367,5.1455,5.1589,5.1673,5.1779,5.1787,5.1849,5.1849,5.1929,5.2124,5.2238,5.2393,5.2566,5.2757,5.312,5.3733,5.4438,5.5089,5.5195,5.5368,5.5783,5.5837,5.5676,5.5431,4.1286,4.1286,4.1286,4.1448,4.1721,4.2277,4.2632,4.2887,4.363,4.4117,4.4539,4.5546,4.631,4.6788,4.702,4.7101,4.7194,4.7189,4.6995,4.6995,4.7145,4.6965,4.6905,4.689,4.6995,4.6995,4.686,4.692,4.7085,4.6815,4.6625,4.636,4.6621,4.6995,4.701,4.6815,4.6845,4.686,4.6875,4.6651,4.6371,4.6191,4.5997,4.5544,4.5379,4.5304,4.5319,4.5469,4.5723,4.6196,4.6226,4.6416,4.6711,4.6815,4.6815,4.6815,4.683,4.6815,4.676,4.6505,4.6585,4.6939,4.7134,4.713,4.7279,4.7298,4.7298,4.7298,4.7298,4.7298,4.7298,4.7298,4.7324,4.7504,4.7593,4.7683,4.7844,4.8143,4.8278,4.8368,4.8652,4.9071,4.9415,4.9568,4.9434,4.9344,4.9737,5.023,5.0541,5.0895,5.0973,5.1254,5.1243,5.1281,5.1284,5.1358,5.1474,5.1498,5.1498,5.1556,5.1668,5.1738,5.1841,5.2014,5.2265,5.2461,5.2709,5.3428,5.4099,5.4659,5.5084,5.5481,5.5915,5.5962,5.5749,4.1286,4.1286,4.1286,4.1361,4.1499,4.1858,4.2179,4.2471,4.3055,4.3762,4.4457,4.5341,4.6031,4.6465,4.6898,4.7153,4.7287,4.7298,4.7298,4.7298,4.7294,4.7298,4.7298,4.7298,4.7283,4.7298,4.7298,4.7298,4.7253,4.7298,4.7209,4.7089,4.7179,4.7223,4.7294,4.7298,4.7298,4.7298,4.7298,4.713,4.7055,4.6909,4.679,4.6606,4.652,4.6531,4.6561,4.6546,4.6711,4.682,4.6879,4.7059,4.7234,4.7294,4.7298,4.7298,4.7298,4.7298,4.7298,4.7044,4.7074,4.7164,4.7283,4.7298,4.7298,4.7298,4.7298,4.7298,4.7298,4.7298,4.7313,4.7339,4.7414,4.7739,4.7978,4.8098,4.8338,4.8678,4.8861,4.8966,4.9363,4.98,5.0114,5.0398,5.02,5.0036,5.0503,5.0892,5.1071,5.1217,5.1217,5.1217,5.1217,5.1217,5.1217,5.1217,5.1217,5.1217,5.1217,5.1311,5.1416,5.1369,5.1471,5.1625,5.1787,5.2006,5.228,5.2593,5.3153,5.3889,5.457,5.5155,5.5607,5.6072,5.5986,4.1286,4.1286,4.1286,4.1286,4.1336,4.1585,4.1808,4.2067,4.2655,4.3477,4.4434,4.5092,4.5663,4.6121,4.6591,4.6942,4.7142,4.724,4.7298,4.7298,4.7298,4.7298,4.7298,4.7298,4.7298,4.7298,4.7298,4.7298,4.7298,4.7298,4.7253,4.7253,4.7298,4.7298,4.7298,4.7298,4.7298,4.7298,4.7298,4.7298,4.7294,4.7268,4.7253,4.7209,4.7164,4.7149,4.7145,4.7115,4.716,4.7209,4.7238,4.7268,4.7298,4.7298,4.7298,4.7298,4.7298,4.7298,4.7298,4.7298,4.7298,4.7298,4.7298,4.7298,4.7298,4.7298,4.7298,4.7298,4.7298,4.7384,4.7504,4.7698,4.8008,4.8397,4.8573,4.8708,4.8992,4.9292,4.9445,4.9583,5.0051,5.0503,5.0592,5.0832,5.0727,5.0574,5.0772,5.1041,5.1116,5.1217,5.1217,5.1217,5.1217,5.1217,5.1217,5.1217,5.1217,5.1217,5.1217,5.1217,5.1253,5.1217,5.1229,5.1378,5.1518,5.1625,5.183,5.2113,5.2634,5.3234,5.3975,5.4769,5.5324,5.5772,5.6062,4.1286,4.1286,4.1286,4.1286,4.1336,4.1572,4.1709,4.187,4.2571,4.3415,4.4294,4.4847,4.5401,4.5903,4.6369,4.6723,4.6986,4.7197,4.7298,4.7298,4.7298,4.7298,4.7298,4.7298,4.7298,4.7298,4.7298,4.7298,4.7298,4.7298,4.7298,4.7298,4.7298,4.7298,4.7298,4.7298,4.7298,4.7298,4.7298,4.7298,4.7298,4.7298,4.7298,4.7298,4.7298,4.7298,4.7298,4.7298,4.7298,4.7298,4.7298,4.7298,4.7298,4.7298,4.7298,4.7298,4.7298,4.7298,4.7298,4.7298,4.7298,4.7298,4.7298,4.7298,4.7298,4.7328,4.7433,4.7549,4.7574,4.7799,4.8038,4.8323,4.8682,4.9026,4.9202,4.9441,4.9714,4.9969,5.0137,5.0215,5.0709,5.1158,5.1158,5.1173,5.1158,5.1113,5.1173,5.1217,5.1217,5.1217,5.1217,5.1217,5.1217,5.1217,5.1217,5.1217,5.1217,5.1217,5.1217,5.1217,5.1217,5.1217,5.1214,5.1238,5.1296,5.1424,5.1518,5.163,5.2181,5.2784,5.3635,5.4396,5.4972,5.5412,5.5639,4.1286,4.1286,4.1286,4.1286,4.1311,4.1386,4.1536,4.182,4.2533,4.3201,4.3725,4.4338,4.5023,4.5606,4.6124,4.6524,4.6898,4.7164,4.7298,4.7298,4.7298,4.7298,4.7298,4.7298,4.7298,4.7298,4.7298,4.7298,4.7298,4.7298,4.7298,4.7298,4.7459,4.7298,4.7298,4.7298,4.7298,4.7298,4.7298,4.7298,4.7298,4.7298,4.7298,4.7298,4.7298,4.7298,4.7298,4.7298,4.7298,4.7298,4.7298,4.7298,4.7313,4.7313,4.7354,4.7339,4.7313,4.7298,4.7298,4.7298,4.7298,4.7354,4.7384,4.7399,4.7313,4.7758,4.7878,4.8057,4.8278,4.8603,4.8929,4.8962,4.9247,4.9707,4.9961,5.0245,5.0514,5.0709,5.0862,5.0877,5.1176,5.1191,5.1217,5.1217,5.1217,5.1217,5.1217,5.1217,5.1217,5.1217,5.1217,5.1217,5.1217,5.1217,5.1217,5.1217,5.1217,5.1217,5.1217,5.1217,5.1217,5.1217,5.1217,5.1214,5.1214,5.1226,5.1343,5.1494,5.1787,5.2356,5.3064,5.3743,5.4317,5.4733,5.5046,4.1286,4.1286,4.1286,4.1286,4.1286,4.1286,4.1461,4.1796,4.2448,4.296,4.3393,4.3999,4.4679,4.531,4.5787,4.6314,4.6778,4.7044,4.7262,4.7277,4.7298,4.7298,4.7298,4.7313,4.7298,4.7324,4.7324,4.7298,4.7298,4.7298,4.7474,4.7698,4.7863,4.8113,4.7982,4.7743,4.7298,4.7298,4.7298,4.7298,4.7298,4.7298,4.7298,4.7298,4.7298,4.7298,4.7298,4.7313,4.7339,4.7354,4.7339,4.7339,4.7343,4.7519,4.7608,4.7653,4.7893,4.7967,4.8083,4.8098,4.8173,4.8128,4.7829,4.7788,4.7952,4.8442,4.8588,4.8798,4.9127,4.937,4.9565,4.958,4.9853,5.0312,5.0578,5.0847,5.0907,5.1086,5.1131,5.1176,5.1191,5.1191,5.1217,5.1217,5.1217,5.1217,5.1217,5.1217,5.1217,5.1217,5.1217,5.1217,5.1217,5.1217,5.1217,5.1217,5.1217,5.1217,5.1217,5.1217,5.1217,5.1217,5.1217,5.1217,5.1202,5.1214,5.1238,5.1378,5.1602,5.1834,5.2204,5.2902,5.359,5.3991,5.4333,4.1286,4.1286,4.1286,4.1286,4.1286,4.1286,4.1448,4.1709,4.2241,4.2753,4.3285,4.3727,4.4362,4.5009,4.5375,4.5933,4.6546,4.6822,4.7088,4.724,4.7298,4.7298,4.7354,4.7399,4.7504,4.7444,4.7534,4.7803,4.7459,4.7698,4.7978,4.8319,4.8753,4.8887,4.8622,4.8218,4.7743,4.7758,4.7758,4.7799,4.7814,4.7638,4.7724,4.7739,4.7728,4.7713,4.7698,4.7683,4.7623,4.7589,4.7519,4.7474,4.7623,4.8008,4.8218,4.8472,4.8902,4.8992,4.9037,4.8977,4.9146,4.9011,4.8727,4.8831,4.8977,4.9131,4.928,4.9385,4.961,4.9886,5.0114,5.0293,5.0473,5.0787,5.1041,5.1158,5.1158,5.1202,5.1202,5.1217,5.1217,5.1217,5.1217,5.1217,5.1217,5.1217,5.1217,5.1217,5.1217,5.1217,5.1217,5.1217,5.1217,5.1217,5.1217,5.1217,5.1217,5.1217,5.1217,5.1217,5.1217,5.1217,5.1217,5.1217,5.1217,5.1217,5.1214,5.1249,5.1331,5.1564,5.1761,5.2162,5.2869,5.3179,5.3499,4.1286,4.1286,4.1286,4.1286,4.1286,4.1286,4.1336,4.1473,4.1783,4.2227,4.2767,4.3273,4.3962,4.4607,4.5218,4.5784,4.6277,4.6697,4.7044,4.7241,4.7478,4.7358,4.7489,4.7799,4.7934,4.8158,4.8379,4.8543,4.8693,4.8678,4.8723,4.9078,4.9363,4.9393,4.9262,4.8932,4.8813,4.8663,4.8648,4.8528,4.8558,4.8543,4.8558,4.8543,4.8528,4.8528,4.8543,4.8547,4.8573,4.8618,4.8678,4.8693,4.8768,4.8929,4.9007,4.9033,4.9198,4.9273,4.9288,4.9303,4.9501,4.9871,4.9695,4.9449,4.952,4.9699,4.9946,5.0036,5.0227,5.0529,5.0652,5.0787,5.0892,5.1026,5.1217,5.1217,5.1217,5.1217,5.1217,5.1217,5.1217,5.1217,5.1217,5.1217,5.1217,5.1217,5.1217,5.1217,5.1217,5.1217,5.1217,5.1217,5.1217,5.1217,5.1217,5.1217,5.1217,5.1217,5.1217,5.1217,5.1217,5.1217,5.1217,5.1217,5.1217,5.1217,5.1217,5.1253,5.1261,5.1253,5.1424,5.1749,5.2094,5.2442,5.2746,4.1286,4.1286,4.1286,4.1286,4.1286,4.1286,4.1286,4.1361,4.1585,4.1993,4.2536,4.3067,4.3701,4.442,4.5058,4.5606,4.6131,4.6896,4.7358,4.7601,4.7864,4.8143,4.8319,4.8427,4.8633,4.8884,4.9018,4.9123,4.9396,4.9595,4.9643,4.9673,4.9834,4.9999,5.0059,5.0077,5.0089,4.9845,4.9621,4.9393,4.9333,4.9348,4.9303,4.9348,4.9348,4.9348,4.9348,4.9363,4.9333,4.9303,4.9288,4.9288,4.9352,4.9471,4.9879,4.9969,5.0133,5.0178,5.0193,5.0148,5.0305,5.0458,5.0566,5.0413,5.0346,5.0466,5.0574,5.0652,5.0948,5.1173,5.1187,5.1202,5.1202,5.1202,5.1217,5.1217,5.1217,5.1217,5.1217,5.1217,5.1217,5.1217,5.1217,5.1217,5.1217,5.1217,5.1217,5.1217,5.1217,5.1217,5.1217,5.1217,5.1217,5.1217,5.1217,5.1217,5.1217,5.1217,5.1217,5.1217,5.1217,5.1217,5.1217,5.1217,5.1217,5.1217,5.1217,5.1217,5.1229,5.1217,5.1217,5.1424,5.168,5.1876,5.2162,4.1299,4.139,4.1429,4.1534,4.1443,4.1507,4.1507,4.1454,4.1771,4.2102,4.262,4.3077,4.3777,4.4615,4.5194,4.5677,4.6329,4.711,4.7623,4.7952,4.8563,4.8861,4.8959,4.9325,4.9352,4.9366,4.9531,4.9834,4.9729,4.9987,5.0293,5.03,5.0742,5.0918,5.0873,5.0888,5.084,5.0694,5.0193,4.9771,4.9677,4.9542,4.9441,4.9531,4.9561,4.9561,4.9546,4.9513,4.9453,4.9468,4.9486,4.9576,4.9774,5.0017,5.0574,5.0814,5.0903,5.0903,5.0885,5.087,5.0963,5.1098,5.1202,5.1038,5.0933,5.0903,5.0951,5.0966,5.1173,5.1217,5.1217,5.1217,5.1217,5.1217,5.1217,5.1217,5.1217,5.1217,5.1217,5.1217,5.1217,5.1217,5.1217,5.1217,5.1217,5.1217,5.1217,5.1217,5.1427,5.1427,5.1352,5.1337,5.1247,5.1247,5.1217,5.1217,5.1217,5.1217,5.1277,5.1217,5.1217,5.1217,5.1217,5.1217,5.1217,5.1217,5.1217,5.1217,5.1232,5.1217,5.1217,5.1217,5.1346,5.1521,5.1703,4.1382,4.2016,4.2422,4.2605,4.2592,4.2592,4.2553,4.2605,4.2656,4.2739,4.2938,4.331,4.403,4.5028,4.5573,4.6087,4.6713,4.7277,4.7756,4.8178,4.8806,4.9261,4.9225,4.9738,4.9938,5.017,5.0395,5.0586,5.0601,5.0799,5.0936,5.0951,5.1191,5.1191,5.1217,5.1217,5.1187,5.1146,5.0858,5.0537,5.0541,5.0676,5.0739,5.0679,5.0676,5.0601,5.0616,5.0661,5.0705,5.0765,5.075,5.0765,5.078,5.0903,5.1011,5.1161,5.1217,5.1217,5.1217,5.1217,5.1217,5.1217,5.1217,5.1217,5.1202,5.1217,5.1217,5.1217,5.1217,5.1217,5.1217,5.1217,5.1217,5.1217,5.1217,5.1217,5.1217,5.1247,5.1247,5.1262,5.1262,5.1322,5.1337,5.1307,5.1217,5.1217,5.1217,5.1337,5.1831,5.1992,5.1756,5.1666,5.1352,5.1292,5.1352,5.1502,5.1651,5.1546,5.1546,5.1427,5.1307,5.1487,5.1678,5.1337,5.1217,5.1457,5.1532,5.1251,5.1251,5.1337,5.1217,5.1217,5.1217,5.1346,5.1483,4.1931,4.2411,4.2827,4.301,4.301,4.301,4.301,4.301,4.301,4.3231,4.355,4.3758,4.4291,4.5205,4.5723,4.6259,4.6801,4.7463,4.7881,4.8309,4.8931,4.9527,4.9848,5.0146,5.0458,5.0752,5.0966,5.1158,5.1217,5.1202,5.1173,5.1217,5.1217,5.1217,5.1217,5.1217,5.1217,5.1217,5.1217,5.1217,5.1217,5.1191,5.1191,5.1217,5.1217,5.1217,5.1217,5.1217,5.1202,5.1202,5.1128,5.1128,5.1098,5.1128,5.1173,5.1202,5.1217,5.1217,5.1217,5.1217,5.1217,5.1217,5.1217,5.1217,5.1217,5.1217,5.1217,5.1217,5.1217,5.1217,5.1217,5.1217,5.1217,5.1217,5.1217,5.1217,5.1382,5.1546,5.1636,5.1771,5.1962,5.2321,5.2351,5.2351,5.2291,5.2276,5.2127,5.2052,5.2441,5.2665,5.2411,5.2276,5.2157,5.2097,5.2318,5.2351,5.2351,5.2172,5.192,5.2127,5.2247,5.2187,5.2112,5.1992,5.1992,5.2202,5.2157,5.1816,5.1666,5.1798,5.1517,5.1217,5.1232,5.1277,5.1364,4.2617,4.2787,4.3114,4.3219,4.3219,4.3232,4.3258,4.3258,4.3258,4.3651,4.4256,4.4302,4.45,4.4956,4.5485,4.5934,4.6548,4.7403,4.7938,4.8486,4.9369,4.9682,5.0093,5.0594,5.0836,5.1013,5.1176,5.1217,5.1217,5.1217,5.1217,5.1217,5.1217,5.1217,5.1217,5.1217,5.1217,5.1217,5.1217,5.1217,5.1217,5.1217,5.1217,5.1217,5.1217,5.1217,5.1217,5.1217,5.1217,5.1217,5.1217,5.1217,5.1217,5.1217,5.1217,5.1217,5.1217,5.1217,5.1217,5.1217,5.1217,5.1217,5.1217,5.1232,5.1247,5.1262,5.1262,5.1367,5.1367,5.1262,5.1262,5.1262,5.1262,5.1442,5.1442,5.1502,5.1771,5.1995,5.2172,5.2336,5.2677,5.3097,5.3156,5.3186,5.3201,5.3228,5.3258,5.3276,5.3321,5.3396,5.3324,5.3414,5.3488,5.3456,5.3228,5.3067,5.2932,5.2812,5.2648,5.2962,5.3124,5.2827,5.2737,5.2917,5.2962,5.2917,5.2812,5.2543,5.2438,5.2333,5.2187,5.1932,5.1561,5.1561,5.1367,4.2823,4.3688,4.4172,4.4355,4.4355,4.4342,4.4381,4.4381,4.4342,4.4514,4.4622,4.4943,4.5276,4.5723,4.6076,4.6383,4.659,4.7351,4.779,4.8282,4.8981,4.9481,4.9936,5.0396,5.0896,5.1061,5.1123,5.1194,5.1155,5.1167,5.1217,5.1217,5.1217,5.1217,5.1217,5.1247,5.1322,5.1352,5.1412,5.1442,5.1367,5.1322,5.1217,5.1217,5.1217,5.1217,5.1217,5.1217,5.1217,5.1217,5.1217,5.1217,5.1217,5.1217,5.1217,5.1217,5.1217,5.1217,5.1217,5.1217,5.1217,5.1367,5.1382,5.1385,5.1415,5.1472,5.1591,5.1917,5.1843,5.1517,5.1472,5.1457,5.1513,5.2037,5.2258,5.2483,5.2722,5.2842,5.295,5.3052,5.3186,5.3396,5.3438,5.3453,5.3456,5.3498,5.3501,5.359,5.3982,5.4087,5.4174,5.4354,5.4548,5.4009,5.3441,5.3471,5.3366,5.3303,5.3333,5.3588,5.3588,5.3228,5.3228,5.3588,5.3483,5.3306,5.3201,5.3306,5.3111,5.3022,5.3007,5.2797,5.2306,5.1992,5.1917]},{"header":{"parameterUnit":"m.s-1","parameterCategory":1,"la1":31.0,"la2":29.5877,"lo1":-88.7671,"lo2":-86.6584,"dy":0.0162,"dx":0.0185,"nx":115,"ny":88,"refTime":"2024-03-06T06:00:00:Z","depth":0,"parameterNumber":3,"parameterNumberName":"V-component_of_WINDS"},"data":[0.0,0.0,0.0,0.0,0.0,0.0,0.0,0.0,0.0,0.0,0.0,0.0,0.0,0.0,0.0,0.0,0.0,0.0,0.0,0.0,0.0,0.0,0.0,0.0,0.0,0.0,0.0,0.0,0.0,0.0,0.0,0.0,0.0,0.0,0.0,0.0,0.0,0.0,0.0,0.0,0.0,0.0,0.0,0.0,0.0,0.0,0.0,0.0,0.0,0.0,0.0,0.0,0.0,0.0,0.0,0.0,0.0,0.0,0.0,0.0,0.0,0.0,0.0,0.0,0.0,0.0,0.0,0.0,0.0,0.0,0.0,0.0,0.0,0.0,0.0,0.0,0.0,0.0,0.0,0.0,0.0,0.0,0.0,0.0,0.0,0.0,0.0,0.0,0.0,0.0,0.0,0.0,0.0,0.0,0.0,0.0,0.0,0.0,0.0,0.0,0.0,0.0,0.0,0.0,0.0,0.0,0.0,0.0,0.0,0.0,0.0,0.0,0.0,0.0,0.0,0.0,0.0,0.0,0.0,0.0,0.0,0.0,0.0,0.0,0.0,0.0,0.0,0.0,0.0,0.0,0.0,0.0,0.0,0.0,0.0,0.0,0.0,0.0,0.0,0.0,0.0,0.0,0.0,0.0,0.0,0.0,0.0,0.0,0.0,0.0,0.0,0.0,0.0,0.0,0.0,0.0,0.0,0.0,0.0,0.0,0.0,0.0,0.0,0.0,0.0,0.0,0.0,0.0,0.0,0.0,0.0,0.0,0.0,0.0,0.0,0.0,0.0,0.0,0.0,0.0,0.0,0.0,0.0,0.0,0.0,0.0,0.0,0.0,0.0,0.0,0.0,0.0,0.0,0.0,0.0,0.0,0.0,0.0,0.0,0.0,0.0,0.0,0.0,0.0,0.0,0.0,0.0,0.0,0.0,0.0,0.0,0.0,0.0,0.0,0.0,0.0,0.0,0.0,0.0,0.0,0.0,0.0,0.0,0.0,0.0,0.0,0.0,0.0,0.0,0.0,0.0,0.0,0.0,0.0,0.0,0.0,0.0,0.0,0.0,0.0,0.0,0.0,0.0,0.0,0.0,0.0,0.0,0.0,0.0,0.0,0.0,0.0,0.0,0.0,0.0,0.0,0.0,0.0,0.0,0.0,0.0,0.0,0.0,0.0,0.0,0.0,0.0,0.0,0.0,0.0,0.0,0.0,0.0,0.0,0.0,0.0,0.0,0.0,0.0,0.0,0.0,0.0,0.0,0.0,0.0,0.0,0.0,0.0,0.0,0.0,0.0,0.0,0.0,0.0,0.0,0.0,0.0,0.0,0.0,0.0,0.0,0.0,0.0,0.0,0.0,0.0,0.0,0.0,0.0,0.0,0.0,0.0,0.0,0.0,0.0,0.0,0.0,0.0,0.0,0.0,0.0,0.0,0.0,0.0,0.0,0.0,0.0,0.0,0.0,0.0,0.0,0.0,0.0,0.0,0.0,0.0,0.0,0.0,0.0,0.0,0.0,0.0,0.0,0.0,0.0,0.0,0.0,0.0,0.0,0.0,0.0,0.0,0.0,0.0,0.0,0.0,0.0,0.0,0.0,0.0,0.0,0.0,0.0,0.0,0.0,0.0,0.0,0.0,0.0,0.0,0.0,0.0,0.0,0.0,0.0,0.0,0.0,0.0,0.0,0.0,0.0,0.0,0.0,0.0,0.0,0.0,0.0,0.0,0.0,0.0,0.0,0.0,0.0,0.0,0.0,0.0,0.0,0.0,0.0,0.0,0.0,0.0,0.0,0.0,0.0,0.0,0.0,0.0,0.0,0.0,0.0,0.0,0.0,0.0,0.0,0.0,0.0,0.0,0.0,0.0,0.0,0.0,0.0,0.0,0.0,0.0,0.0,0.0,0.0,0.0,0.0,0.0,0.0,0.0,0.0,0.0,0.0,0.0,0.0,0.0,0.0,0.0,0.0,0.0,0.0,0.0,0.0,0.0,0.0,0.0,0.0,0.0,0.0,0.0,0.0,0.0,0.0,0.0,0.0,0.0,0.0,0.0,0.0,0.0,0.0,0.0,0.0,0.0,0.0,0.0,0.0,0.0,0.0,0.0,0.0,0.0,0.0,0.0,0.0,0.0,0.0,0.0,0.0,0.0,0.0,0.0,0.0,0.0,0.0,0.0,0.0,0.0,0.0,0.0,0.0,0.0,0.0,0.0,0.0,0.0,0.0,0.0,0.0,0.0,0.0,0.0,0.0,0.0,0.0,0.0,0.0,0.0,0.0,0.0,0.0,0.0,0.0,0.0,0.0,0.0,0.0,0.0,0.0,0.0,0.0,0.0,0.0,0.0,0.0,0.0,0.0,0.0,0.0,0.0,0.0,0.0,0.0,0.0,0.0,0.0,0.0,0.0,0.0,0.0,0.0,0.0,0.0,0.0,0.0,0.0,0.0,0.0,0.0,0.0,0.0,0.0,0.0,0.0,0.0,0.0,0.0,0.0,0.0,0.0,0.0,0.0,0.0,0.0,0.0,0.0,0.0,0.0,0.0,0.0,0.0,0.0,0.0,0.0,0.0,0.0,0.0,0.0,0.0,0.0,0.0,0.0,0.0,0.0,0.0,0.0,0.0,0.0,0.0,0.0,0.0,0.0,0.0,0.0,0.0,0.0,0.0,0.0,0.0,0.0,0.0,0.0,0.0,0.0,0.0,0.0,0.0,0.0,0.0,0.0,0.0,0.0,0.0,0.0,0.0,0.0,0.0,0.0,0.0,0.0,0.0,0.0,0.0,0.0,0.0,0.0,0.0,0.0,0.0,0.0,0.0,0.0,0.0,0.0,0.0,0.0,0.0,0.0,0.0,0.0,0.0,0.0,0.0,0.0,0.0,0.0,0.0,0.0,0.0,0.0,0.0,0.0,0.0,0.0,0.0,0.0,0.0,0.0,0.0,0.0,0.0,0.0,0.0,0.0,0.0,0.0,0.0,0.0,0.0,0.0,0.0,0.0,0.0,0.0,0.0,0.0,0.0,0.0,0.0,0.0,0.0,0.0,0.0,0.0,0.0,0.0,0.0,0.0,0.0,0.0,0.0,0.0,0.0,0.0,0.0,0.0,0.0,0.0,0.0,0.0,0.0,0.0,0.0,0.0,0.0,0.0,0.0,0.0,0.0,0.0,0.0,0.0,0.0,0.0,0.0,0.0,0.0,0.0,0.0,0.0,0.0,0.0,0.0,0.0,0.0,0.0,0.0,0.0,0.0,0.0,0.0,0.0,0.0,0.0,0.0,0.0,0.0,0.0,0.0,0.0,0.0,0.0,0.0,0.0,0.0,0.0,0.0,0.0,0.0,0.0,0.0,0.0,0.0,0.0,0.0,0.0,0.0,0.0,0.0,0.0,0.0,0.0,0.0,0.0,0.0,0.0,0.0,0.0,0.0,0.0,0.0,0.0,0.0,0.0,0.0,0.0,0.0,0.0,0.0,0.0,0.0,0.0,0.0,0.0,0.0,0.0,0.0,0.0,0.0,0.0,0.0,0.0,0.0,0.0,0.0,0.0,0.0,0.0,0.0,0.0,0.0,0.0,0.0,0.0,0.0,0.0,0.0,0.0,0.0,0.0,0.0,0.0,0.0,0.0,0.0,0.0,0.0,0.0,0.0,0.0,0.0,0.0,0.0,0.0,0.0,0.0,0.0,0.0,0.0,0.0,0.0,0.0,0.0,0.0,0.0,0.0,0.0,0.0,0.0,0.0,0.0,0.0,0.0,0.0,0.0,0.0,0.0,0.0,0.0,0.0,0.0,0.0,0.0,0.0,0.0,0.0,0.0,0.0,0.0,0.0,0.0,0.0,0.0,0.0,0.0,0.0,0.0,0.0,0.0,0.0,0.0,0.0,0.0,0.0,0.0,0.0,0.0,0.0,0.0,0.0,0.0,0.0,0.0,0.0,0.0,0.0,0.0,0.0,0.0,0.0,0.0,0.0,0.0,0.0,0.0,0.0,0.0,0.0,0.0,0.0,0.0,0.0,0.0,0.0,0.0,0.0,0.0,0.0,0.0,0.0,0.0,0.0,0.0,0.0,0.0,0.0,0.0,0.0,0.0,0.0,0.0,0.0,0.0,0.0,0.0,0.0,0.0,0.0,0.0,0.0,0.0,0.0,0.0,0.0,0.0,0.0,0.0,0.0,0.0,0.0,0.0,0.0,0.0,0.0,0.0,0.0,0.0,0.0,0.0,0.0,0.0,0.0,0.0,0.0,0.0,0.0,0.0,0.0,0.0,0.0,0.0,0.0,2.1011,0.0,0.0,0.0,0.0,0.0,0.0,0.0,0.0,0.0,0.0,0.0,0.0,0.0,0.0,0.0,0.0,0.0,0.0,0.0,0.0,0.0,0.0,0.0,0.0,0.0,0.0,0.0,0.0,0.0,0.0,0.0,0.0,0.0,0.0,0.0,0.0,0.0,0.0,0.0,0.0,0.0,0.0,0.0,0.0,0.0,0.0,0.0,0.0,0.0,0.0,0.0,0.0,0.0,0.0,0.0,0.0,0.0,0.0,0.0,0.0,0.0,0.0,0.0,0.0,0.0,0.0,0.0,0.0,0.0,0.0,0.0,0.0,0.0,0.0,0.0,0.0,0.0,0.0,0.0,0.0,0.0,0.0,0.0,0.0,0.0,0.0,0.0,0.0,0.0,0.0,0.0,0.0,0.0,0.0,0.0,0.0,0.0,0.0,0.0,0.0,0.0,0.0,0.0,0.0,0.0,0.0,0.0,0.0,0.0,0.0,2.2816,2.2484,2.2109,2.1752,2.1387,0.0,0.0,0.0,0.0,0.0,0.0,0.0,0.0,0.0,0.0,0.0,0.0,0.0,0.0,0.0,0.0,0.0,0.0,0.0,0.0,0.0,0.0,0.0,0.0,0.0,0.0,0.0,0.0,0.0,0.0,0.0,0.0,0.0,0.0,0.0,0.0,0.0,0.0,0.0,0.0,0.0,0.0,0.0,0.0,0.0,0.0,0.0,0.0,0.0,0.0,0.0,0.0,0.0,0.0,0.0,0.0,0.0,0.0,0.0,0.0,0.0,0.0,0.0,0.0,0.0,0.0,0.0,0.0,0.0,0.0,0.0,0.0,0.0,0.0,0.0,0.0,0.0,0.0,0.0,0.0,0.0,0.0,0.0,0.0,0.0,0.0,0.0,0.0,0.0,0.0,0.0,0.0,0.0,0.0,0.0,0.0,0.0,0.0,0.0,0.0,0.0,0.0,0.0,0.0,0.0,0.0,0.0,0.0,0.0,0.0,0.0,0.0,2.2484,2.2085,2.1698,0.0,0.0,0.0,0.0,0.0,0.0,0.0,0.0,0.0,0.0,0.0,0.0,0.0,0.0,0.0,0.0,0.0,0.0,0.0,0.0,0.0,0.0,0.0,0.0,0.0,0.0,0.0,0.0,0.0,0.0,0.0,0.0,0.0,0.0,0.0,0.0,0.0,0.0,0.0,0.0,0.0,0.0,0.0,0.0,0.0,0.0,0.0,0.0,0.0,0.0,0.0,0.0,0.0,0.0,0.0,0.0,0.0,0.0,0.0,0.0,0.0,0.0,0.0,0.0,0.0,0.0,0.0,0.0,0.0,0.0,0.0,0.0,0.0,0.0,0.0,0.0,0.0,0.0,0.0,0.0,0.0,0.0,0.0,0.0,0.0,0.0,0.0,0.0,0.0,0.0,0.0,0.0,0.0,0.0,0.0,0.0,0.0,0.0,0.0,0.0,0.0,0.0,0.0,0.0,0.0,0.0,0.0,0.0,0.0,0.0,2.3363,2.3069,2.2838,0.0,2.172,0.0,0.0,0.0,0.0,0.0,0.0,0.0,0.0,0.0,0.0,0.0,0.0,0.0,0.0,0.0,0.0,0.0,0.0,0.0,0.0,0.0,0.0,0.0,0.0,0.0,0.0,0.0,0.0,0.0,0.0,0.0,0.0,0.0,0.0,0.0,0.0,0.0,0.0,0.0,0.0,0.0,0.0,0.0,0.0,0.0,0.0,0.0,0.0,0.0,0.0,0.0,0.0,0.0,0.0,0.0,0.0,0.0,0.0,0.0,0.0,0.0,0.0,0.0,0.0,0.0,0.0,0.0,0.0,0.0,0.0,0.0,0.0,0.0,0.0,0.0,0.0,0.0,0.0,0.0,0.0,0.0,0.0,0.0,0.0,0.0,0.0,0.0,0.0,0.0,0.0,0.0,0.0,0.0,0.0,0.0,0.0,0.0,0.0,0.0,0.0,0.0,0.0,0.0,0.0,0.0,0.0,0.0,0.0,0.0,0.0,2.3731,2.3352,2.299,2.2528,0.0,0.0,0.0,0.0,0.0,0.0,0.0,0.0,0.0,0.0,0.0,0.0,0.0,0.0,0.0,0.0,0.0,0.0,0.0,0.0,0.0,0.0,0.0,0.0,0.0,0.0,0.0,0.0,0.0,0.0,0.0,0.0,0.0,0.0,0.0,0.0,0.0,0.0,0.0,0.0,0.0,0.0,0.0,0.0,0.0,0.0,0.0,0.0,0.0,0.0,0.0,0.0,0.0,0.0,0.0,0.0,0.0,0.0,0.0,0.0,0.0,0.0,0.0,0.0,0.0,0.0,0.0,0.0,0.0,0.0,0.0,0.0,0.0,0.0,0.0,0.0,0.0,0.0,0.0,0.0,0.0,0.0,0.0,0.0,0.0,0.0,0.0,0.0,0.0,0.0,0.0,0.0,0.0,0.0,0.0,0.0,0.0,0.0,0.0,0.0,0.0,0.0,0.0,0.0,0.0,0.0,0.0,0.0,0.0,0.0,2.4228,2.397,2.3524,2.3056,2.2649,2.2307,0.0,0.0,0.0,0.0,0.0,0.0,0.0,0.0,0.0,0.0,0.0,0.0,0.0,0.0,0.0,0.0,0.0,0.0,0.0,0.0,0.0,0.0,0.0,0.0,0.0,0.0,0.0,0.0,0.0,0.0,0.0,0.0,0.0,0.0,0.0,0.0,0.0,0.0,0.0,0.0,0.0,0.0,0.0,0.0,0.0,0.0,0.0,0.0,0.0,0.0,0.0,0.0,0.0,0.0,0.0,0.0,0.0,0.0,0.0,0.0,0.0,0.0,0.0,0.0,0.0,0.0,0.0,0.0,0.0,0.0,0.0,0.0,0.0,0.0,0.0,0.0,0.0,0.0,0.0,0.0,0.0,0.0,0.0,0.0,0.0,0.0,0.0,0.0,0.0,0.0,0.0,0.0,0.0,0.0,0.0,0.0,0.0,0.0,0.0,0.0,0.0,0.0,0.0,0.0,0.0,0.0,0.0,0.0,2.4465,2.4293,2.3959,2.3535,2.3056,2.2792,0.0,0.0,0.0,0.0,0.0,0.0,0.0,0.0,0.0,0.0,0.0,0.0,0.0,0.0,0.0,0.0,0.0,0.0,0.0,0.0,0.0,0.0,0.0,0.0,0.0,0.0,0.0,0.0,0.0,0.0,0.0,0.0,0.0,0.0,0.0,0.0,0.0,0.0,0.0,0.0,0.0,0.0,0.0,0.0,0.0,0.0,0.0,0.0,0.0,0.0,0.0,0.0,0.0,0.0,0.0,0.0,0.0,0.0,0.0,0.0,0.0,0.0,0.0,0.0,0.0,0.0,0.0,0.0,0.0,0.0,0.0,0.0,0.0,0.0,0.0,0.0,0.0,0.0,0.0,0.0,0.0,0.0,0.0,0.0,0.0,0.0,0.0,0.0,0.0,0.0,0.0,0.0,0.0,0.0,0.0,0.0,0.0,0.0,0.0,0.0,0.0,0.0,0.0,0.0,0.0,0.0,0.0,0.0,0.0,2.4475,2.4131,2.3862,2.3678,2.3232,2.3079,0.0,0.0,0.0,0.0,0.0,0.0,0.0,0.0,0.0,0.0,0.0,0.0,0.0,0.0,0.0,0.0,0.0,0.0,0.0,0.0,0.0,0.0,0.0,0.0,0.0,0.0,0.0,0.0,0.0,0.0,0.0,0.0,0.0,0.0,0.0,0.0,0.0,0.0,0.0,0.0,0.0,0.0,0.0,0.0,0.0,0.0,0.0,0.0,0.0,0.0,0.0,0.0,0.0,0.0,0.0,0.0,0.0,0.0,0.0,0.0,0.0,0.0,0.0,0.0,0.0,0.0,0.0,0.0,0.0,0.0,0.0,0.0,0.0,0.0,0.0,0.0,0.0,0.0,0.0,0.0,0.0,0.0,0.0,0.0,0.0,0.0,0.0,0.0,0.0,0.0,0.0,0.0,0.0,0.0,0.0,0.0,0.0,0.0,0.0,0.0,0.0,0.0,0.0,0.0,0.0,0.0,0.0,0.0,0.0,2.44,0.0,2.37,2.3699,2.3309,2.3177,0.0,0.0,0.0,0.0,0.0,0.0,0.0,0.0,0.0,0.0,0.0,0.0,0.0,0.0,0.0,0.0,0.0,0.0,0.0,0.0,0.0,0.0,0.0,0.0,0.0,0.0,0.0,0.0,0.0,0.0,0.0,0.0,0.0,0.0,0.0,0.0,0.0,0.0,0.0,0.0,0.0,0.0,0.0,0.0,0.0,0.0,0.0,0.0,0.0,0.0,0.0,0.0,0.0,0.0,0.0,0.0,0.0,0.0,0.0,0.0,0.0,0.0,0.0,0.0,0.0,0.0,0.0,0.0,0.0,0.0,0.0,0.0,0.0,0.0,0.0,0.0,0.0,0.0,0.0,0.0,0.0,0.0,0.0,0.0,0.0,0.0,0.0,0.0,0.0,0.0,0.0,0.0,0.0,0.0,0.0,0.0,0.0,0.0,0.0,0.0,0.0,0.0,0.0,0.0,0.0,0.0,0.0,0.0,2.4379,2.4164,2.371,2.3439,2.3472,2.3199,2.309,0.0,0.0,0.0,0.0,0.0,0.0,0.0,0.0,0.0,0.0,0.0,0.0,0.0,0.0,0.0,0.0,0.0,0.0,0.0,0.0,0.0,0.0,0.0,0.0,0.0,0.0,0.0,0.0,0.0,0.0,0.0,0.0,0.0,0.0,0.0,0.0,0.0,0.0,0.0,0.0,0.0,0.0,0.0,0.0,0.0,0.0,0.0,0.0,0.0,0.0,0.0,0.0,0.0,0.0,0.0,0.0,0.0,0.0,0.0,0.0,0.0,0.0,0.0,0.0,0.0,0.0,0.0,0.0,0.0,0.0,0.0,0.0,0.0,0.0,0.0,0.0,0.0,0.0,0.0,0.0,0.0,0.0,0.0,0.0,0.0,0.0,0.0,0.0,0.0,0.0,0.0,0.0,0.0,0.0,0.0,0.0,0.0,0.0,0.0,0.0,0.0,0.0,0.0,0.0,0.0,0.0,0.0,0.0,0.0,2.3224,2.2786,2.2444,2.2269,2.2358,2.2575,0.0,0.0,0.0,0.0,0.0,0.0,0.0,0.0,0.0,0.0,0.0,0.0,0.0,0.0,0.0,0.0,0.0,0.0,0.0,0.0,0.0,0.0,0.0,0.0,0.0,0.0,0.0,0.0,0.0,0.0,0.0,0.0,0.0,0.0,0.0,0.0,0.0,0.0,0.0,0.0,0.0,0.0,0.0,0.0,0.0,0.0,0.0,0.0,0.0,0.0,0.0,0.0,0.0,0.0,0.0,0.0,0.0,0.0,0.0,0.0,0.0,0.0,0.0,0.0,0.0,0.0,0.0,0.0,0.0,0.0,0.0,0.0,0.0,0.0,0.0,0.0,0.0,0.0,0.0,0.0,0.0,0.0,0.0,0.0,0.0,0.0,0.0,0.0,0.0,0.0,0.0,0.0,0.0,0.0,0.0,0.0,0.0,0.0,0.0,0.0,0.0,0.0,0.0,0.0,0.0,0.0,0.0,0.0,0.0,2.1763,2.1695,2.155,2.1304,2.1559,2.1924,2.2397,0.0,0.0,0.0,0.0,0.0,0.0,0.0,0.0,0.0,0.0,0.0,0.0,0.0,0.0,0.0,0.0,0.0,0.0,0.0,0.0,0.0,0.0,0.0,0.0,0.0,0.0,0.0,0.0,0.0,0.0,0.0,0.0,0.0,0.0,0.0,0.0,0.0,0.0,0.0,0.0,0.0,0.0,0.0,0.0,0.0,0.0,0.0,0.0,0.0,0.0,0.0,0.0,0.0,0.0,0.0,0.0,0.0,0.0,0.0,0.0,0.0,0.0,0.0,0.0,0.0,0.0,0.0,0.0,0.0,0.0,0.0,0.0,0.0,0.0,0.0,0.0,0.0,0.0,0.0,0.0,0.0,0.0,0.0,0.0,0.0,0.0,0.0,0.0,0.0,0.0,0.0,0.0,0.0,0.0,0.0,0.0,0.0,0.0,0.0,0.0,0.0,0.0,0.0,0.0,0.0,0.0,0.0,0.0,1.9894,2.0492,2.0696,2.0436,2.0741,2.1136,0.0,0.0,0.0,0.0,0.0,0.0,0.0,0.0,0.0,0.0,0.0,0.0,0.0,0.0,0.0,0.0,0.0,0.0,0.0,0.0,0.0,0.0,0.0,0.0,0.0,0.0,0.0,0.0,0.0,0.0,0.0,0.0,0.0,0.0,0.0,0.0,0.0,0.0,0.0,0.0,0.0,0.0,0.0,0.0,0.0,0.0,0.0,0.0,0.0,0.0,0.0,0.0,0.0,0.0,0.0,0.0,0.0,0.0,0.0,0.0,0.0,0.0,0.0,0.0,0.0,0.0,0.0,0.0,0.0,0.0,0.0,0.0,0.0,0.0,0.0,0.0,0.0,0.0,0.0,0.0,0.0,0.0,0.0,0.0,0.0,0.0,0.0,0.0,0.0,0.0,0.0,0.0,0.0,0.0,0.0,0.0,0.0,0.0,0.0,0.0,0.0,0.0,0.0,0.0,0.0,0.0,0.0,0.0,0.0,1.9441,1.8845,1.8611,1.8754,1.9492,2.0201,0.0,0.0,0.0,0.0,0.0,0.0,0.0,0.0,0.0,0.0,0.0,0.0,0.0,0.0,0.0,0.0,0.0,0.0,0.0,0.0,0.0,0.0,0.0,0.0,0.0,0.0,0.0,0.0,0.0,0.0,0.0,0.0,0.0,0.0,0.0,0.0,0.0,0.0,0.0,0.0,0.0,0.0,0.0,0.0,0.0,0.0,0.0,0.0,0.0,0.0,0.0,0.0,0.0,0.0,0.0,0.0,0.0,0.0,0.0,0.0,0.0,0.0,0.0,0.0,0.0,0.0,0.0,0.0,0.0,0.0,0.0,0.0,0.0,0.0,0.0,0.0,0.0,0.0,0.0,0.0,0.0,0.0,0.0,0.0,0.0,0.0,0.0,0.0,0.0,0.0,0.0,0.0,0.0,0.0,0.0,0.0,0.0,0.0,0.0,0.0,0.0,0.0,0.0,0.0,0.0,0.0,0.0,0.0,2.0317,1.8891,1.7901,1.7368,1.7305,1.835,1.9335,0.0,0.0,0.0,0.0,0.0,0.0,0.0,0.0,0.0,0.0,0.0,0.0,0.0,0.0,0.0,0.0,0.0,0.0,0.0,0.0,0.0,0.0,0.0,0.0,0.0,0.0,0.0,0.0,0.0,0.0,0.0,0.0,0.0,0.0,0.0,0.0,0.0,0.0,0.0,0.0,0.0,0.0,0.0,0.0,0.0,0.0,0.0,0.0,0.0,0.0,0.0,0.0,0.0,0.0,0.0,0.0,0.0,0.0,0.0,0.0,0.0,0.0,0.0,0.0,0.0,0.0,0.0,0.0,0.0,0.0,0.0,0.0,0.0,0.0,0.0,0.0,0.0,0.0,0.0,0.0,0.0,0.0,0.0,0.0,0.0,0.0,0.0,0.0,0.0,0.0,0.0,0.0,0.0,0.0,0.0,0.0,0.0,0.0,0.0,0.0,0.0,0.0,0.0,0.0,0.0,0.0,0.0,0.0,1.9826,1.8392,1.7422,1.669,1.626,1.741,1.8592,0.0,0.0,0.0,0.0,0.0,0.0,0.0,0.0,0.0,0.0,0.0,0.0,0.0,0.0,0.0,0.0,0.0,0.0,0.0,0.0,0.0,0.0,0.0,0.0,0.0,0.0,0.0,0.0,0.0,0.0,0.0,0.0,0.0,0.0,0.0,0.0,0.0,0.0,0.0,0.0,0.0,0.0,0.0,0.0,0.0,0.0,0.0,0.0,0.0,0.0,0.0,0.0,0.0,0.0,0.0,0.0,0.0,0.0,0.0,0.0,0.0,0.0,0.0,0.0,0.0,0.0,0.0,0.0,0.0,0.0,0.0,0.0,0.0,0.0,0.0,0.0,0.0,0.0,0.0,0.0,0.0,0.0,0.0,0.0,0.0,0.0,0.0,0.0,0.0,0.0,0.0,0.0,0.0,0.0,0.0,0.0,0.0,0.0,0.0,0.0,0.0,0.0,0.0,0.0,0.0,0.0,0.0,0.0,1.9441,1.8195,1.6981,1.6319,1.6213,1.7232,1.816,0.0,0.0,0.0,0.0,0.0,0.0,0.0,0.0,0.0,0.0,0.0,0.0,0.0,0.0,0.0,0.0,0.0,0.0,0.0,0.0,0.0,0.0,0.0,0.0,0.0,0.0,0.0,0.0,0.0,0.0,0.0,0.0,0.0,0.0,0.0,0.0,0.0,0.0,0.0,0.0,0.0,0.0,0.0,0.0,0.0,0.0,0.0,0.0,1.7391,0.0,0.0,0.0,0.0,0.0,0.0,0.0,0.0,0.0,0.0,0.0,0.0,0.0,0.0,0.0,0.0,0.0,0.0,0.0,0.0,0.0,0.0,0.0,0.0,0.0,0.0,0.0,0.0,0.0,0.0,0.0,0.0,0.0,0.0,0.0,0.0,0.0,0.0,0.0,0.0,0.0,0.0,0.0,0.0,0.0,0.0,0.0,0.0,0.0,0.0,0.0,0.0,0.0,0.0,0.0,0.0,0.0,0.0,0.0,1.9072,1.7754,1.6711,1.6142,1.6064,1.6986,1.7982,0.0,0.0,0.0,0.0,0.0,0.0,0.0,0.0,0.0,0.0,0.0,0.0,0.0,0.0,0.0,0.0,0.0,0.0,0.0,0.0,0.0,0.0,0.0,0.0,0.0,0.0,0.0,0.0,0.0,0.0,0.0,0.0,0.0,0.0,0.0,0.0,0.0,0.0,0.0,0.0,0.0,0.0,0.0,0.0,0.0,0.0,0.0,0.0,0.0,0.0,0.0,0.0,0.0,0.0,0.0,0.0,0.0,0.0,0.0,0.0,0.0,0.0,0.0,0.0,0.0,0.0,0.0,0.0,0.0,0.0,0.0,0.0,0.0,0.0,0.0,0.0,0.0,0.0,0.0,0.0,0.0,0.0,0.0,0.0,0.0,0.0,0.0,0.0,0.0,0.0,0.0,0.0,0.0,0.0,0.0,0.0,0.0,0.0,0.0,0.0,0.0,0.0,0.0,0.0,0.0,0.0,0.0,2.0266,1.8711,1.729,1.653,1.6052,1.5879,1.6833,1.794,1.9167,0.0,0.0,0.0,0.0,0.0,0.0,0.0,0.0,0.0,0.0,0.0,0.0,0.0,0.0,0.0,0.0,0.0,0.0,0.0,0.0,0.0,0.0,0.0,0.0,0.0,0.0,0.0,0.0,0.0,0.0,0.0,0.0,0.0,0.0,0.0,0.0,0.0,0.0,1.8137,1.7672,0.0,0.0,0.0,0.0,0.0,0.0,0.0,0.0,1.6662,0.0,0.0,0.0,0.0,0.0,0.0,0.0,0.0,0.0,0.0,0.0,0.0,0.0,0.0,0.0,0.0,0.0,0.0,0.0,0.0,0.0,0.0,0.0,0.0,0.0,0.0,0.0,0.0,0.0,0.0,0.0,0.0,0.0,0.0,0.0,0.0,0.0,0.0,0.0,0.0,0.0,0.0,0.0,0.0,0.0,0.0,0.0,0.0,0.0,0.0,0.0,0.0,0.0,0.0,0.0,0.0,2.1769,1.988,1.8311,1.7073,1.627,1.595,1.6147,1.7115,1.8126,1.917,0.0,0.0,0.0,0.0,0.0,0.0,0.0,0.0,0.0,0.0,0.0,0.0,0.0,0.0,0.0,0.0,0.0,0.0,0.0,0.0,0.0,0.0,0.0,0.0,0.0,0.0,0.0,0.0,0.0,0.0,0.0,0.0,0.0,0.0,0.0,0.0,0.0,0.0,0.0,1.7819,1.7761,0.0,0.0,0.0,0.0,0.0,0.0,0.0,0.0,1.6459,0.0,0.0,0.0,0.0,0.0,0.0,0.0,0.0,0.0,0.0,0.0,0.0,0.0,0.0,0.0,0.0,0.0,0.0,0.0,0.0,0.0,0.0,0.0,0.0,0.0,0.0,0.0,0.0,0.0,0.0,0.0,0.0,0.0,0.0,0.0,0.0,0.0,0.0,0.0,0.0,0.0,0.0,0.0,0.0,0.0,0.0,0.0,0.0,0.0,0.0,0.0,0.0,0.0,0.0,0.0,2.1152,1.9356,1.782,1.6631,1.6057,1.5933,1.6194,1.7162,1.8207,0.0,0.0,0.0,0.0,0.0,0.0,0.0,0.0,0.0,0.0,0.0,0.0,0.0,0.0,0.0,0.0,0.0,0.0,0.0,0.0,0.0,0.0,0.0,0.0,0.0,0.0,0.0,0.0,0.0,0.0,0.0,0.0,0.0,0.0,0.0,0.0,0.0,0.0,0.0,0.0,1.823,1.8005,1.8265,0.0,0.0,0.0,0.0,0.0,0.0,1.6353,1.6341,0.0,0.0,0.0,0.0,0.0,0.0,0.0,0.0,0.0,0.0,0.0,0.0,0.0,0.0,0.0,0.0,0.0,0.0,0.0,0.0,0.0,0.0,0.0,0.0,0.0,0.0,0.0,0.0,0.0,0.0,0.0,0.0,0.0,0.0,0.0,0.0,0.0,0.0,0.0,0.0,0.0,0.0,0.0,0.0,0.0,0.0,0.0,0.0,0.0,0.0,0.0,0.0,0.0,0.0,0.0,2.0558,1.8875,1.7423,1.6253,1.5938,1.5986,1.6355,1.7286,1.8376,0.0,0.0,0.0,0.0,0.0,0.0,0.0,0.0,0.0,0.0,0.0,0.0,0.0,0.0,0.0,0.0,0.0,0.0,0.0,0.0,0.0,0.0,0.0,0.0,0.0,0.0,0.0,0.0,0.0,0.0,0.0,0.0,0.0,0.0,0.0,0.0,0.0,0.0,0.0,0.0,0.0,1.8295,1.8392,1.8369,0.0,0.0,0.0,0.0,1.6676,1.6293,0.0,0.0,0.0,0.0,0.0,0.0,0.0,0.0,0.0,0.0,0.0,0.0,0.0,0.0,0.0,0.0,0.0,0.0,0.0,0.0,0.0,0.0,0.0,0.0,0.0,0.0,0.0,0.0,0.0,0.0,0.0,0.0,0.0,0.0,0.0,0.0,0.0,0.0,0.0,0.0,0.0,0.0,0.0,0.0,0.0,0.0,0.0,0.0,0.0,0.0,0.0,0.0,0.0,0.0,0.0,0.0,2.0279,1.8611,1.7255,1.6241,1.5938,1.6147,1.6885,1.7663,1.8719,0.0,0.0,0.0,0.0,0.0,0.0,0.0,0.0,0.0,0.0,0.0,0.0,0.0,0.0,0.0,0.0,0.0,0.0,0.0,0.0,0.0,0.0,0.0,0.0,0.0,0.0,0.0,0.0,0.0,0.0,0.0,0.0,0.0,0.0,0.0,0.0,0.0,0.0,0.0,0.0,0.0,1.8585,1.8195,1.7943,1.7885,0.0,0.0,1.7145,1.6676,1.6737,0.0,0.0,0.0,0.0,0.0,0.0,0.0,0.0,0.0,0.0,0.0,0.0,0.0,0.0,0.0,0.0,0.0,0.0,0.0,0.0,0.0,0.0,0.0,0.0,0.0,0.0,0.0,0.0,0.0,0.0,0.0,0.0,0.0,0.0,0.0,0.0,0.0,0.0,0.0,0.0,0.0,0.0,0.0,0.0,0.0,0.0,0.0,0.0,0.0,0.0,0.0,0.0,0.0,0.0,0.0,2.2844,2.0274,1.8699,1.7438,1.6466,1.6317,1.6546,1.7153,1.7881,1.9084,0.0,0.0,0.0,0.0,0.0,0.0,0.0,0.0,0.0,0.0,0.0,0.0,0.0,0.0,0.0,0.0,0.0,0.0,0.0,0.0,0.0,0.0,0.0,0.0,0.0,0.0,0.0,0.0,0.0,0.0,0.0,0.0,0.0,0.0,0.0,0.0,0.0,0.0,0.0,0.0,0.0,0.0,1.8191,1.7861,0.0,0.0,0.0,1.7,1.6659,0.0,0.0,0.0,0.0,0.0,0.0,0.0,0.0,0.0,0.0,0.0,0.0,0.0,0.0,0.0,0.0,0.0,0.0,0.0,0.0,0.0,0.0,0.0,0.0,0.0,0.0,0.0,0.0,0.0,0.0,0.0,0.0,0.0,0.0,0.0,0.0,0.0,0.0,0.0,0.0,0.0,0.0,0.0,0.0,0.0,0.0,0.0,0.0,0.0,0.0,0.0,0.0,0.0,0.0,0.0,0.0,0.0,2.0596,1.8989,1.7695,1.673,1.6629,1.6829,1.729,1.8062,0.0,0.0,0.0,0.0,0.0,0.0,0.0,0.0,0.0,0.0,0.0,0.0,0.0,0.0,0.0,0.0,0.0,0.0,0.0,0.0,0.0,0.0,0.0,0.0,0.0,0.0,0.0,2.4573,0.0,0.0,0.0,0.0,0.0,0.0,0.0,0.0,0.0,0.0,0.0,0.0,0.0,0.0,1.8969,1.8121,1.7733,1.7429,0.0,0.0,1.6909,1.6629,1.6746,1.7164,0.0,0.0,0.0,0.0,0.0,0.0,0.0,0.0,0.0,0.0,0.0,0.0,0.0,0.0,0.0,0.0,0.0,0.0,0.0,0.0,0.0,0.0,0.0,0.0,0.0,0.0,0.0,0.0,0.0,0.0,0.0,0.0,0.0,0.0,0.0,0.0,0.0,0.0,0.0,0.0,0.0,0.0,0.0,0.0,0.0,0.0,0.0,0.0,0.0,0.0,0.0,0.0,0.0,0.0,0.0,2.1546,1.9428,1.7932,1.7003,1.673,1.6829,1.7298,1.8136,1.9324,0.0,0.0,0.0,0.0,0.0,0.0,0.0,0.0,0.0,0.0,0.0,0.0,0.0,0.0,0.0,0.0,0.0,0.0,0.0,0.0,0.0,0.0,0.0,0.0,0.0,0.0,0.0,0.0,0.0,0.0,0.0,0.0,0.0,0.0,0.0,0.0,0.0,0.0,0.0,0.0,0.0,1.9045,1.7885,1.7331,1.6944,0.0,0.0,1.689,1.6629,1.7188,1.7807,1.8284,0.0,0.0,0.0,0.0,0.0,0.0,0.0,0.0,0.0,0.0,0.0,0.0,0.0,0.0,0.0,0.0,0.0,0.0,0.0,0.0,0.0,0.0,0.0,0.0,0.0,0.0,0.0,0.0,0.0,0.0,0.0,0.0,0.0,0.0,0.0,0.0,0.0,0.0,0.0,0.0,0.0,0.0,0.0,0.0,0.0,0.0,0.0,0.0,0.0,0.0,0.0,0.0,0.0,2.4848,2.2299,2.0043,1.8415,1.7464,1.7176,1.7192,1.7546,1.8197,1.9323,0.0,0.0,0.0,0.0,0.0,0.0,0.0,0.0,0.0,0.0,0.0,0.0,0.0,0.0,0.0,0.0,0.0,0.0,0.0,0.0,0.0,0.0,0.0,0.0,0.0,0.0,0.0,0.0,2.2414,2.1839,2.2161,0.0,0.0,0.0,0.0,0.0,0.0,0.0,0.0,0.0,0.0,1.8992,1.8067,1.7516,0.0,0.0,1.7129,1.7204,1.7267,1.766,1.8168,1.8788,1.9446,0.0,0.0,0.0,0.0,0.0,0.0,0.0,0.0,0.0,0.0,0.0,0.0,0.0,0.0,0.0,0.0,0.0,0.0,0.0,0.0,0.0,0.0,0.0,0.0,0.0,0.0,0.0,0.0,0.0,0.0,0.0,0.0,0.0,0.0,0.0,0.0,0.0,0.0,0.0,0.0,0.0,0.0,0.0,0.0,0.0,0.0,0.0,0.0,0.0,0.0,0.0,0.0,2.5708,2.3271,2.0709,1.8923,1.7959,1.7532,1.7391,1.7581,1.8112,1.9087,0.0,0.0,0.0,0.0,0.0,0.0,0.0,0.0,0.0,0.0,0.0,0.0,0.0,0.0,0.0,0.0,0.0,0.0,0.0,0.0,0.0,0.0,0.0,0.0,0.0,0.0,0.0,0.0,2.2843,2.257,2.3153,0.0,0.0,0.0,0.0,0.0,0.0,0.0,0.0,0.0,0.0,1.915,1.8411,1.787,1.7543,1.7532,1.7543,1.7687,1.8079,1.8384,1.8762,1.9417,0.0,0.0,0.0,0.0,0.0,0.0,0.0,0.0,0.0,0.0,0.0,0.0,0.0,0.0,0.0,0.0,0.0,0.0,0.0,0.0,0.0,0.0,0.0,0.0,0.0,0.0,0.0,0.0,0.0,0.0,3.1994,0.0,0.0,0.0,0.0,0.0,0.0,0.0,0.0,0.0,0.0,0.0,0.0,0.0,0.0,0.0,0.0,0.0,0.0,0.0,0.0,0.0,0.0,2.6399,2.4459,2.1407,1.9435,1.8485,1.7722,1.7309,1.7328,1.7899,1.8584,1.9447,0.0,0.0,0.0,0.0,0.0,0.0,0.0,0.0,0.0,0.0,0.0,0.0,0.0,0.0,0.0,0.0,0.0,0.0,0.0,0.0,0.0,0.0,0.0,0.0,0.0,0.0,2.3909,2.3769,2.391,0.0,0.0,0.0,0.0,0.0,0.0,0.0,0.0,0.0,0.0,2.0351,1.962,1.8908,1.84,1.8121,1.8125,1.8121,1.8357,1.9075,1.9401,1.9729,0.0,0.0,0.0,0.0,0.0,0.0,0.0,0.0,0.0,0.0,0.0,0.0,0.0,0.0,0.0,0.0,0.0,0.0,0.0,0.0,0.0,0.0,0.0,0.0,0.0,0.0,0.0,3.1833,3.1736,0.0,0.0,0.0,0.0,0.0,0.0,0.0,0.0,0.0,0.0,0.0,3.0932,3.093,0.0,0.0,0.0,0.0,0.0,0.0,0.0,0.0,0.0,0.0,0.0,0.0,2.6681,2.4251,2.1678,1.9752,1.8523,1.7881,1.7473,1.7309,1.7678,1.8354,1.9363,0.0,0.0,0.0,0.0,0.0,0.0,0.0,0.0,0.0,0.0,0.0,0.0,0.0,0.0,0.0,0.0,0.0,0.0,0.0,0.0,0.0,0.0,0.0,0.0,0.0,2.5158,0.0,0.0,0.0,0.0,0.0,0.0,0.0,0.0,0.0,0.0,0.0,2.2211,2.1369,2.0623,2.0087,1.9825,1.95,1.9343,0.0,0.0,0.0,0.0,0.0,0.0,0.0,0.0,0.0,0.0,0.0,0.0,0.0,0.0,2.2298,2.2195,2.1935,2.168,2.1501,0.0,0.0,0.0,0.0,0.0,0.0,0.0,0.0,0.0,0.0,0.0,0.0,0.0,0.0,3.1439,0.0,3.1354,0.0,0.0,0.0,0.0,0.0,0.0,0.0,0.0,3.0698,3.0239,3.0017,2.9947,3.0075,0.0,3.0426,3.0936,0.0,0.0,0.0,0.0,0.0,0.0,0.0,0.0,2.6758,2.4273,2.1938,2.0124,1.8923,1.8203,1.7721,1.7457,1.7609,1.8061,1.8777,1.977,2.0783,0.0,0.0,0.0,0.0,0.0,0.0,0.0,0.0,0.0,0.0,0.0,0.0,0.0,0.0,0.0,0.0,0.0,0.0,0.0,0.0,0.0,0.0,0.0,2.5518,0.0,0.0,0.0,0.0,0.0,0.0,0.0,0.0,0.0,2.4477,2.3289,2.2321,2.1722,2.1141,2.0778,2.0789,0.0,0.0,0.0,0.0,0.0,0.0,0.0,2.1416,2.1385,2.1107,2.0806,2.0617,2.1045,2.1437,2.1572,0.0,0.0,2.1533,2.1396,2.1144,2.0868,2.0821,2.0821,2.0821,2.0928,2.0986,0.0,0.0,0.0,0.0,0.0,0.0,0.0,0.0,3.0622,3.0257,0.0,3.037,0.0,0.0,0.0,0.0,0.0,3.3234,0.0,0.0,3.0611,2.9955,2.916,2.9425,2.9474,2.9304,2.9388,2.9223,2.8893,3.056,0.0,0.0,0.0,0.0,0.0,0.0,2.6671,2.4449,2.2193,2.0569,1.9611,1.8646,1.7994,1.771,1.7694,1.7694,1.7717,1.84,1.9303,2.0402,2.1929,0.0,0.0,0.0,0.0,0.0,0.0,0.0,0.0,0.0,0.0,0.0,0.0,0.0,0.0,0.0,0.0,0.0,0.0,0.0,0.0,2.5894,0.0,0.0,0.0,0.0,0.0,0.0,0.0,0.0,0.0,0.0,2.4722,2.3549,2.264,2.2172,0.0,0.0,0.0,0.0,2.2011,2.2033,2.2195,2.244,2.2811,2.2481,2.2138,2.2049,0.0,0.0,2.0305,2.0164,2.0172,2.0119,2.02,2.0354,2.1094,2.0996,2.073,2.0486,2.0409,2.0438,2.045,2.0397,2.0433,3.2167,0.0,0.0,0.0,0.0,3.2335,3.1628,3.0925,3.0509,3.0277,3.0193,3.0457,0.0,0.0,0.0,0.0,0.0,0.0,3.0656,2.9687,2.9273,2.9036,2.8952,2.8901,2.8955,2.9066,2.8455,2.7928,2.7545,2.7861,2.8528,2.9521,0.0,0.0,0.0,0.0,2.5925,2.3785,2.244,2.1145,1.984,1.9199,1.8504,1.7721,1.7516,1.7403,1.7415,1.7796,1.8392,1.9267,2.0833,0.0,0.0,0.0,0.0,0.0,0.0,0.0,0.0,0.0,0.0,0.0,0.0,0.0,0.0,0.0,0.0,0.0,0.0,0.0,2.5884,2.5622,2.6012,0.0,0.0,0.0,0.0,0.0,0.0,0.0,0.0,0.0,2.5306,2.41,2.3056,0.0,0.0,2.2143,2.258,2.2552,2.2589,2.2868,2.2981,0.0,0.0,2.2316,2.1927,2.1348,2.0671,2.0259,2.0402,2.0395,2.0382,2.0382,2.037,2.0362,2.0146,1.9975,1.977,1.9559,1.9498,1.949,1.951,1.9498,1.951,3.1158,3.1619,3.1879,3.1929,3.176,3.1375,3.085,3.0272,2.9964,2.9784,2.9726,3.0002,3.0445,3.1002,3.1547,0.0,0.0,0.0,3.0072,2.9291,2.8962,2.8792,2.8714,2.852,2.848,2.8524,2.7793,2.7186,2.6693,2.6331,2.6527,2.7274,0.0,0.0,2.7311,2.6626,2.5377,2.3604,2.2578,2.1568,2.0521,1.9646,1.8781,1.7896,1.7602,1.7422,1.7309,1.745,1.7893,1.8666,2.0001,2.1723,0.0,0.0,0.0,0.0,0.0,0.0,0.0,0.0,0.0,0.0,0.0,3.0999,0.0,0.0,0.0,0.0,2.7052,2.6081,2.5422,2.5622,0.0,0.0,0.0,0.0,0.0,0.0,0.0,2.7436,2.6831,2.622,2.5477,2.4649,2.3862,2.3174,2.2943,2.2962,2.321,0.0,2.3034,2.3048,2.3018,2.2819,2.235,2.2005,2.1553,2.0868,2.0235,1.9905,2.0112,2.0088,2.0024,2.0024,2.0044,1.9907,1.9609,1.9445,1.932,1.921,1.9172,1.9185,1.9185,1.9197,1.9185,3.0633,3.0269,3.0547,3.0594,3.045,3.0075,2.9694,2.9331,2.9128,2.8941,2.8803,2.9184,2.9761,3.0522,3.1258,0.0,3.1258,3.0842,3.0208,2.9503,2.9324,2.8979,2.849,2.8321,2.8144,2.7983,2.7531,2.7009,2.6433,2.592,2.5476,2.5125,2.6715,2.7184,2.653,2.5849,2.4934,2.3818,2.2728,2.1922,2.1401,2.0002,1.8912,1.8241,1.7924,1.7686,1.7438,1.7438,1.7769,1.8569,1.9461,2.1019,2.3342,0.0,0.0,0.0,0.0,0.0,0.0,0.0,0.0,0.0,0.0,0.0,0.0,0.0,0.0,0.0,2.6524,0.0,2.5232,2.58,0.0,0.0,0.0,2.8498,2.8392,2.8085,2.7518,2.6556,0.0,0.0,2.5365,2.5198,2.491,2.4263,2.4042,2.3858,2.3619,2.3463,2.3244,2.2724,2.254,2.2341,2.1942,2.1464,2.096,2.0482,2.0003,1.9678,1.968,1.9498,1.9344,1.9337,1.9298,1.9298,1.9298,1.9333,1.9331,1.9346,1.9302,1.9283,1.928,1.9311,1.9343,3.2127,3.1577,3.116,3.0398,2.9438,2.9194,2.8929,2.8707,2.8657,2.8608,2.8588,2.8843,2.9143,2.9475,2.9648,2.9628,2.9427,2.932,2.91,2.8761,2.8713,2.8633,2.85,2.8461,2.8534,2.8709,2.8413,2.8249,2.8153,2.7508,2.6944,2.6495,2.6246,2.5741,2.5049,2.4846,2.4449,2.3797,2.3188,2.2388,2.1412,2.0306,1.9566,1.9256,1.8785,1.8516,1.8446,1.845,1.8727,1.9329,2.0039,2.1284,2.311,2.5172,0.0,0.0,0.0,0.0,0.0,0.0,0.0,0.0,0.0,3.0739,2.9687,0.0,2.729,0.0,2.6024,2.5528,2.5432,2.5768,0.0,0.0,2.6955,2.6903,2.6581,2.6735,2.6614,2.6034,2.6093,2.6069,2.5697,2.5654,2.5423,2.4861,2.4025,2.3497,2.3503,2.3151,2.2745,2.2326,2.2038,2.1649,2.1006,2.0442,2.0068,1.9913,1.9635,1.9402,1.9402,1.9337,1.9285,1.9285,1.9285,1.9285,1.9325,1.9454,1.9604,1.9576,1.9454,1.9285,1.9285,1.9467,1.9545,3.3024,3.2324,3.1673,3.0867,2.9966,2.9652,2.9399,2.923,2.9218,2.922,2.922,2.9318,2.944,2.9543,2.9543,2.948,2.9389,2.9389,2.9308,2.9208,2.922,2.9198,2.9208,2.9208,2.9301,2.9485,2.9247,2.9065,2.8896,2.8192,2.7492,2.6828,2.6205,2.5609,2.4997,2.4574,2.4239,2.398,2.3605,2.3048,2.2311,2.1624,2.1029,2.05,2.012,1.9769,1.9443,1.9412,1.9675,2.0212,2.0777,2.175,2.3162,2.4942,2.6882,0.0,0.0,0.0,0.0,0.0,0.0,0.0,0.0,0.0,0.0,0.0,2.6757,2.6136,2.578,2.557,2.5538,2.5653,2.581,2.604,2.6122,2.6031,2.5626,2.587,2.5913,2.5526,2.5771,2.5889,2.5656,2.5701,2.5603,2.5184,2.4382,2.3761,2.3553,2.3031,2.2445,2.1988,2.1496,2.0994,2.039,2.0081,1.9872,1.9874,1.9745,1.9667,1.9654,1.9654,1.9654,1.9661,1.9773,1.9943,2.0082,2.0334,2.057,2.0694,2.0728,2.0503,1.9975,1.9946,2.0011,3.3797,3.2998,3.2396,3.1848,3.1396,3.0969,3.054,3.0128,3.0117,3.0086,3.0086,3.0086,3.0086,3.0086,3.0086,3.0086,3.0086,3.0086,3.0086,3.0086,3.0086,3.0086,3.0086,3.0086,3.0132,3.0204,3.0026,2.9744,2.9342,2.8624,2.7822,2.6933,2.6586,2.6214,2.5774,2.4842,2.4347,2.4326,2.405,2.3791,2.3497,2.32,2.2688,2.1928,2.1691,2.1288,2.0655,2.064,2.0871,2.1297,2.1798,2.2558,2.3643,2.4924,2.6523,0.0,2.9296,0.0,0.0,0.0,0.0,0.0,0.0,0.0,0.0,2.7705,2.6714,2.5927,2.5738,2.5644,2.5602,2.5571,2.5561,2.555,2.5679,2.5605,2.5262,2.5373,2.5386,2.5134,2.5513,2.5701,2.5488,2.5611,2.5606,2.5316,2.4897,2.4365,2.3806,2.3078,2.2396,2.1827,2.1058,2.0591,2.0339,2.0241,2.0228,2.0215,2.0289,2.0269,2.0305,2.0338,2.0387,2.0457,2.0691,2.0969,2.1267,2.1591,2.1893,2.2076,2.2344,2.216,2.1149,2.0916,2.084,3.5483,3.4841,3.4174,3.3635,3.3182,3.2931,3.1889,3.0323,3.017,3.0086,3.0086,3.0086,3.0086,3.0086,3.0086,3.0086,3.0086,3.0086,3.0086,3.0086,3.0086,3.0086,3.0086,3.0086,3.0335,3.0732,3.0713,3.0682,3.0646,3.0064,2.9398,2.8611,2.7613,2.6974,2.6698,0.0,0.0,0.0,2.4725,2.4403,2.3972,2.353,2.335,2.3392,2.3352,0.0,2.2836,2.2999,2.3092,2.3058,2.3625,0.0,0.0,0.0,0.0,0.0,0.0,0.0,0.0,0.0,0.0,0.0,2.7862,2.772,2.7527,2.6678,2.601,2.5696,2.5759,2.577,2.5633,2.5744,2.5818,2.5828,2.5648,2.5457,2.5239,2.5326,2.5341,2.5149,2.5475,2.5702,2.5656,2.5684,2.5599,2.5357,2.5211,2.4846,2.4143,2.3363,2.2644,2.2085,2.1401,2.0856,2.075,2.0812,2.0877,2.0774,2.1033,2.1222,2.128,2.1476,2.1743,2.1948,2.2111,2.2215,2.2505,2.2792,2.3038,2.3036,2.3298,2.3199,2.2331,2.2484,2.2714,3.6375,0.0,3.511,3.4564,0.0,3.3694,3.292,3.1845,3.1518,3.1341,3.1223,3.1094,3.1039,3.1041,3.0932,3.0943,3.1041,3.1039,3.1029,3.1041,3.1051,3.0975,3.0899,3.0899,3.1021,3.1285,3.1297,3.1244,3.1128,3.0645,3.0011,2.9278,2.831,2.7612,2.7143,2.6389,2.5758,2.5303,2.5177,2.5041,2.489,2.4674,2.4557,2.4637,0.0,0.0,0.0,0.0,0.0,0.0,0.0,0.0,0.0,0.0,0.0,2.7313,2.7453,2.7561,2.7643,2.7687,2.7656,2.7562,2.7583,2.7484,2.7209,2.6623,2.635,2.6571,2.6583,2.6609,2.6637,2.665,2.6495,2.6142,2.5946,2.5742,2.5435,2.5468,2.551,2.5444,2.5559,2.5696,2.5696,2.5696,2.5657,2.5513,2.5379,2.5238,2.4967,2.4029,2.3132,2.2677,2.2289,2.2076,2.2246,2.2275,2.2262,2.2321,2.2445,2.257,2.2587,2.2722,2.2895,2.3093,2.3232,2.3464,2.3752,2.4148,2.4528,2.4695,2.5022,2.521,2.474,2.4233,2.3713,3.6813,3.6045,3.5619,3.51,3.4543,3.4113,3.3787,3.3547,0.0,0.0,0.0,3.2168,3.207,3.2047,3.1893,3.1915,3.207,3.207,3.207,3.206,3.207,3.1983,3.1827,3.1827,3.1816,3.1827,3.1772,3.1617,3.1362,3.0892,3.0318,2.9612,2.8896,2.8079,2.7262,2.6748,2.616,2.5492,2.5496,2.5591,2.5698,2.5696,2.5675,2.5599,2.5658,2.5566,2.5367,2.5404,2.5488,2.562,2.5715,2.5906,2.6237,2.6249,2.6407,2.6733,2.6871,2.6951,2.6962,2.7205,2.7426,2.7536,2.7843,2.7843,2.7435,2.711,2.7143,2.7697,2.7583,2.7549,2.7689,2.7579,2.7235,2.654,2.6388,2.6153,2.5749,2.5666,2.5689,2.5696,2.5698,2.5696,2.5696,2.5696,2.5757,2.5801,2.568,2.5636,2.5829,2.4954,2.4002,2.3577,2.3432,2.3531,2.376,2.3781,2.385,2.3742,2.3889,2.4033,2.4042,2.4125,2.4213,2.4402,2.4576,2.4872,2.5146,2.5617,2.6054,2.6282,2.6718,2.7057,2.6933,2.5854,2.4863,3.6924,3.6312,3.5858,3.5487,3.5246,3.5,3.4657,3.4189,3.3163,3.2691,3.2647,3.2431,3.2344,3.2346,3.23,3.2322,3.2356,3.2346,3.2346,3.2356,3.2344,3.2322,3.23,3.23,3.23,3.2279,3.2058,3.1849,3.1617,3.1116,3.0612,3.0068,2.9359,2.8314,2.7039,2.6652,2.6225,2.5681,2.5891,2.5908,2.5708,2.5696,2.58,2.6021,2.624,2.624,2.5985,2.6187,2.6141,2.5812,2.6166,2.6408,2.6444,2.6455,2.6479,2.6504,2.6216,2.602,2.6086,2.6279,2.6694,2.7381,2.7821,2.8114,2.8228,2.8183,2.8183,2.8295,2.8285,2.808,2.7767,2.7865,2.7734,2.7207,2.6937,2.6674,2.6362,2.594,2.5696,2.5696,2.5696,2.5706,2.5747,2.5725,2.5893,2.6201,2.6276,2.6317,2.6391,2.5963,2.5327,2.4863,2.4725,2.466,2.4654,2.4496,2.4601,2.4465,2.5,2.5335,2.5321,2.5698,2.6059,2.6434,2.6398,2.6566,2.6855,2.7078,2.7111,2.7161,2.73,2.7368,2.7391,2.7015,2.6752,3.6948,3.6391,3.6172,3.5743,3.5226,3.5034,3.4732,3.4356,3.3842,3.3396,3.3079,3.2853,3.2703,3.255,3.2453,3.2464,3.2561,3.255,3.2561,3.2573,3.2561,3.2508,3.2411,3.2411,3.2411,3.2389,3.2268,3.218,3.206,3.1682,3.1249,3.0735,2.9417,2.8163,2.7168,2.6712,2.6388,2.6157,2.6113,2.6052,2.5929,2.5907,2.605,2.6306,2.6318,2.631,2.6313,2.6445,2.6391,2.6186,2.6393,2.6484,2.6483,2.6354,2.6283,2.6273,2.6217,2.6268,2.6431,2.7174,2.7772,2.8147,2.8836,2.935,2.9572,2.9087,2.8956,2.9318,2.9244,2.9086,2.8903,2.8856,2.8521,2.7759,2.7328,2.6909,2.6532,2.6036,2.5708,2.5696,2.5696,2.5796,2.6052,2.6084,2.6238,2.665,2.6917,2.7097,2.7198,2.7184,2.6874,2.6169,2.5969,2.604,2.6069,2.6133,2.612,2.6111,2.6375,2.6566,2.6575,2.6883,2.7052,2.7188,2.7229,2.7269,2.7404,2.7566,2.7647,2.7687,2.7812,2.7876,2.7876,2.7772,2.7462,3.6836,3.6331,3.6335,3.5868,3.5154,3.4952,3.4722,3.4504,3.4408,3.4052,3.3484,3.3249,3.3036,3.2788,3.2627,3.2649,3.2777,3.2799,3.2786,3.2799,3.2788,3.2712,3.2551,3.2562,3.2562,3.254,3.2486,3.2475,3.2442,3.2221,3.1792,3.1116,2.9543,2.8327,2.7569,2.7001,2.67,2.6592,2.6366,2.6267,2.6209,2.6197,2.6282,2.646,2.6294,2.6294,2.6496,2.6496,2.6496,2.6496,2.6496,2.6484,2.6412,2.6209,2.6076,2.604,2.6267,2.6642,2.7148,2.8163,2.8885,2.9117,2.984,3.0431,3.0654,3.011,2.9892,3.0322,3.0195,3.0026,2.9829,2.9612,2.9094,2.8128,2.7515,2.7015,2.6544,2.6125,2.5864,2.5854,2.592,2.6157,2.6435,2.6546,2.6699,2.7109,2.7542,2.7819,2.7878,2.8132,2.7916,2.7417,2.7091,2.7066,2.7384,2.7336,2.7303,2.7404,2.7417,2.7425,2.7461,2.753,2.7607,2.762,2.762,2.7647,2.7634,2.7809,2.797,2.801,2.813,2.8251,2.8224,2.8027,2.7651,3.6502,3.6166,3.6112,3.5828,3.5328,3.5147,3.4918,3.4704,3.4491,3.4136,3.3639,3.3462,3.3238,3.3081,3.3038,3.3027,3.3059,3.307,3.3047,3.3047,3.3058,3.3036,3.3006,3.3038,3.3038,3.3006,3.2788,3.2667,3.2658,3.2453,3.1859,3.096,3.0136,2.9254,2.8359,2.7749,2.7275,2.6884,2.6844,2.6711,2.6472,2.646,2.6484,2.6496,2.6472,2.6472,2.6496,2.6496,2.6496,2.6496,2.6496,2.6378,2.6173,2.6127,2.5992,2.5803,2.6014,2.6632,2.7775,2.8466,2.9174,2.9977,3.0352,3.0758,3.116,3.1343,3.1351,3.1199,3.1012,3.0576,2.9977,2.9657,2.9083,2.8151,2.757,2.7005,2.6615,2.6404,2.634,2.634,2.6589,2.6911,2.6934,2.6979,2.7158,2.7575,2.7923,2.8168,2.8174,2.8246,2.8268,2.8089,2.7946,2.7678,2.7539,2.7404,2.7485,2.7476,2.7697,2.786,2.7957,2.8101,2.8227,2.8288,2.8251,2.8266,2.8254,2.8247,2.8296,2.8386,2.8411,2.8363,2.8287,2.8156,2.7749,3.6371,3.6072,3.5928,3.545,3.4833,3.4719,3.4481,3.417,3.4199,3.3958,3.3545,3.3428,3.3293,3.3113,3.3113,3.3113,3.3113,3.3113,3.3113,3.3113,3.3113,3.3113,3.3113,3.3113,3.3113,3.3102,3.2995,3.2939,3.2887,3.2573,3.2025,3.1305,3.0476,2.9646,2.8815,2.815,2.7668,2.7312,2.7202,2.7081,2.6964,2.6818,2.6745,2.6711,2.659,2.6496,2.6496,2.6496,2.6496,2.6496,2.6496,2.6448,2.634,2.6352,2.6292,2.6229,2.6858,2.7575,2.842,2.9198,2.9783,3.017,3.0713,3.1116,3.1284,3.155,3.165,3.1528,3.1195,3.0804,3.0341,2.9829,2.9162,2.8369,2.7863,2.7415,2.6913,2.6796,2.6768,2.6777,2.6904,2.7139,2.7396,2.7617,2.7822,2.8054,2.8216,2.8291,2.8301,2.8301,2.8301,2.8301,2.8197,2.8104,2.7939,2.7916,2.7916,2.7981,2.825,2.849,2.8532,2.8848,2.9066,2.9037,2.9008,2.9021,2.9082,2.9066,2.9066,2.9018,2.9047,2.907,2.907,2.877,2.8348,3.6022,3.5801,3.548,3.4974,3.4397,3.4262,3.4008,3.3747,3.3865,3.3717,3.3407,3.3345,3.3227,3.3124,3.3113,3.3113,3.3113,3.3113,3.3113,3.3113,3.3113,3.3113,3.3113,3.3113,3.3113,3.3113,3.3113,3.3113,3.3059,3.268,3.2221,3.167,3.097,3.0216,2.9416,2.8723,2.8256,2.7938,2.7643,2.7477,2.7453,2.7226,2.7046,2.7008,2.682,2.6712,2.6736,2.67,2.676,2.6796,2.6808,2.6808,2.6808,2.6808,2.6808,2.688,2.7609,2.8361,2.8955,2.9749,3.0306,3.051,3.1026,3.1316,3.1428,3.1583,3.1706,3.1673,3.1285,3.0871,3.0476,2.9897,2.9219,2.8566,2.8157,2.7723,2.7356,2.7228,2.7197,2.7184,2.7344,2.7471,2.7806,2.808,2.8252,2.8262,2.8281,2.8301,2.8301,2.8301,2.8301,2.8301,2.8379,2.8486,2.8453,2.8442,2.8486,2.8699,2.8932,2.9064,2.9092,2.9422,2.9579,2.934,2.954,2.9569,2.9432,2.951,2.9604,2.9608,2.9608,2.9598,2.9491,2.9258,2.9058,3.5318,3.5093,3.4647,3.4449,3.4356,3.3937,3.3723,3.3641,3.3526,3.342,3.3379,3.3197,3.3124,3.3113,3.3113,3.3113,3.3113,3.3113,3.3113,3.3113,3.3113,3.3113,3.3113,3.3113,3.3113,3.3113,3.3113,3.3113,3.3081,3.281,3.2438,3.1989,3.1671,3.1105,3.0227,2.9623,2.9197,2.871,2.821,2.7974,2.7939,2.7726,2.7489,2.7345,2.7274,2.7214,2.7238,2.725,2.7333,2.7524,2.7511,2.7524,2.7547,2.7548,2.7559,2.7641,2.8101,2.8722,2.9428,3.0011,3.0544,3.1116,3.1328,3.1417,3.1639,3.1717,3.1716,3.1694,3.1285,3.0826,3.0375,2.9919,2.9349,2.8788,2.8277,2.7974,2.7781,2.7724,2.7695,2.7721,2.7933,2.8109,2.8223,2.8285,2.8291,2.8301,2.8301,2.8301,2.8301,2.8301,2.835,2.8428,2.8633,2.8893,2.8879,2.8883,2.9096,2.9276,2.9373,2.9569,2.9569,2.9602,2.9637,2.9676,2.9784,2.9784,2.9657,2.9647,2.9711,2.9764,2.9813,2.9794,2.994,2.9682,2.9499,3.5113,3.4626,3.447,3.4157,3.3747,3.359,3.3428,3.3302,3.3227,3.3208,3.3197,3.3135,3.3113,3.3113,3.3113,3.3113,3.3113,3.3113,3.3113,3.3113,3.3113,3.3113,3.3113,3.3113,3.3113,3.3113,3.3113,3.3113,3.3068,3.2819,3.2624,3.2396,3.1936,3.1417,3.0859,3.0148,2.96,2.9221,2.8723,2.8445,2.8445,2.835,2.822,2.7996,2.7523,2.732,2.732,2.732,2.7382,2.7584,2.7773,2.7927,2.8091,2.8233,2.8456,2.8792,2.9162,2.9657,3.0318,3.087,3.1316,3.1693,3.1903,3.1937,3.1893,3.1893,3.1838,3.1661,3.1407,3.1089,3.0847,3.0328,2.973,2.9262,2.9074,2.8799,2.8408,2.83,2.8288,2.8152,2.8236,2.8291,2.8301,2.8301,2.8301,2.8301,2.8301,2.8301,2.835,2.8506,2.8658,2.876,2.9062,2.9447,2.9726,2.9473,2.9438,2.9584,2.9745,2.9916,2.9985,3.0229,3.0346,3.0322,3.0312,3.0292,3.0273,3.0282,3.0258,3.0297,3.0322,3.0253,3.0434,3.0161,3.0024,3.5318,3.4853,3.4686,3.4362,3.3955,3.3833,3.3737,3.3619,3.3619,3.3608,3.3619,3.3619,3.3531,3.3368,3.3366,3.3253,3.3126,3.3113,3.3113,3.3113,3.3113,3.3113,3.3113,3.3113,3.3113,3.3113,3.3113,3.3113,3.3092,3.2918,3.2799,3.2669,3.2221,3.1815,3.1373,3.0713,3.0182,2.9852,2.9406,2.9198,2.9164,2.9084,2.9002,2.8792,2.8209,2.7761,2.7536,2.7524,2.7678,2.7961,2.8233,2.8536,2.8932,2.9106,2.9382,2.9817,3.008,3.0476,3.106,3.1538,3.188,3.2112,3.2277,3.23,3.2135,3.2114,3.2014,3.1841,3.1776,3.1666,3.1505,3.119,3.0659,3.0041,2.9858,2.957,2.8962,2.8763,2.8565,2.8325,2.8281,2.8301,2.8301,2.8301,2.8301,2.8301,2.8301,2.832,2.8506,2.8697,2.898,2.9131,2.9492,2.9838,3.0092,3.0024,3.0043,3.019,3.0185,3.0327,3.0434,3.0723,3.0859,3.0903,3.0913,3.0913,3.0913,3.0913,3.0913,3.0913,3.0796,3.0664,3.0678,3.0605,3.0459,3.5963,3.5677,3.5274,3.5029,3.4879,3.4663,3.4639,3.4577,3.4603,3.4527,3.4488,3.4615,3.4288,3.3985,3.3898,3.3633,3.3329,3.3291,3.3203,3.3115,3.3113,3.3113,3.3113,3.3113,3.3113,3.3113,3.3113,3.3113,3.3102,3.307,3.2939,3.2743,3.2669,3.2298,3.1715,3.1406,3.1038,3.0656,3.0318,3.0182,3.0182,2.9943,2.9806,2.9715,2.9302,2.8792,2.8116,2.8045,2.8244,2.8722,2.8966,2.9451,3.0034,3.0193,3.034,3.0611,3.0802,3.1126,3.157,3.189,3.2178,3.2386,3.2421,3.2466,3.2399,3.2437,3.2375,3.2207,3.2369,3.2434,3.2294,3.2346,3.1987,3.105,3.0466,3.0027,2.9581,2.9052,2.8594,2.8358,2.8301,2.8301,2.8301,2.8301,2.831,2.8369,2.8379,2.8525,2.8867,2.9029,2.918,2.9535,2.9936,3.0264,3.0434,3.0561,3.0718,3.0845,3.0766,3.0766,3.0727,3.0893,3.0893,3.0913,3.0913,3.0913,3.0913,3.0913,3.0913,3.0913,3.0913,3.0913,3.0845,3.0776,3.0815,3.6048,3.5531,3.5365,3.5119,3.4838,3.4737,3.4692,3.4704,3.4692,3.4692,3.4692,3.4692,3.4603,3.4477,3.4428,3.4339,3.42,3.4186,3.3809,3.3228,3.3138,3.3151,3.3151,3.3126,3.3113,3.3113,3.3113,3.3102,3.3138,3.3138,3.3047,3.2961,3.2799,3.2613,3.2363,3.199,3.1681,3.1548,3.116,3.0948,3.0938,3.0736,3.0544,3.0363,3.0204,2.992,2.9531,2.8852,2.877,2.9267,2.9519,3.0034,3.078,3.1127,3.1339,3.1537,3.1615,3.1857,3.2286,3.2429,3.2581,3.2799,3.2889,3.2777,3.2675,3.2975,3.3049,3.2912,3.3251,3.3495,3.3442,3.3482,3.2938,3.1592,3.109,3.0589,2.9916,2.9192,2.8621,2.8354,2.8301,2.8301,2.8314,2.8327,2.8478,2.8746,2.8748,2.8914,2.9305,2.9612,2.9805,3.0019,3.0381,3.0615,3.0688,3.0718,3.0815,3.0913,3.0913,3.0913,3.0913,3.0913,3.0913,3.0913,3.0913,3.0913,3.0913,3.0913,3.0913,3.0913,3.0913,3.0913,3.0913,3.0913,3.0913,3.6843,3.6195,3.5956,3.5671,3.534,3.534,3.5328,3.5328,3.5317,3.5317,3.5341,3.5341,3.518,3.5042,3.4993,3.488,3.4717,3.4692,3.4338,3.3782,3.3707,3.3707,3.3707,3.3694,3.3694,3.3684,3.3696,3.3696,3.3684,3.3504,3.3406,3.3348,3.3041,3.2788,3.2702,3.2416,3.223,3.2122,3.1848,3.1705,3.1695,3.1585,3.1451,3.1284,3.1172,3.1025,3.0813,3.0181,2.984,2.9988,3.0318,3.0893,3.1506,3.1805,3.2046,3.2209,3.2275,3.2438,3.2788,3.2842,3.2907,3.3083,3.328,3.3328,3.3286,3.3618,3.384,3.376,3.4122,3.4416,3.4313,3.4389,3.3873,3.2862,3.2169,3.1326,3.0352,2.9485,2.8956,2.8731,2.8601,2.868,2.8799,2.8858,2.9036,2.9381,2.949,2.9648,3.0029,3.0264,3.0395,3.052,3.0693,3.0835,3.0888,3.0893,3.0893,3.0913,3.0913,3.0913,3.0913,3.0913,3.0913,3.0913,3.0913,3.0913,3.0913,3.0913,3.0913,3.0913,3.0913,3.0913,3.0913,3.0913,3.0913,3.8181,3.7481,3.6954,3.6587,3.6352,3.6304,3.6267,3.6342,3.6318,3.6268,3.6318,3.6242,3.6019,3.5631,3.5557,3.5343,3.4904,3.4929,3.494,3.4827,3.479,3.4739,3.4527,3.4502,3.449,3.4552,3.4565,3.4615,3.449,3.4135,3.3947,3.3909,3.3511,3.3109,3.3049,3.2847,3.2849,3.2745,3.2606,3.2575,3.2563,3.2505,3.2446,3.2378,3.2166,3.1985,3.1847,3.1616,3.1272,3.0881,3.1339,3.1782,3.2025,3.2279,3.2529,3.2702,3.2711,3.2819,3.3025,3.316,3.3183,3.3242,3.3658,3.3947,3.3966,3.4358,3.4616,3.4496,3.4944,3.5163,3.5005,3.5074,3.4872,3.4373,3.3189,3.1979,3.0666,2.9987,2.9598,2.9295,2.9189,2.9316,2.9711,2.9768,2.9999,3.0314,3.0437,3.06,3.0882,3.0986,3.0991,3.1059,3.114,3.1068,3.1112,3.1054,3.1025,3.0913,3.0913,3.0913,3.0913,3.0913,3.0913,3.0913,3.0913,3.0913,3.0913,3.0913,3.0913,3.0913,3.0913,3.0913,3.0913,3.0913,3.0913,3.86,3.7767,3.7434,3.7038,3.6628,3.6476,3.6417,3.6417,3.6417,3.6429,3.6417,3.6417,3.6318,3.6168,3.6143,3.608,3.5929,3.5916,3.5954,3.5954,3.5942,3.5429,3.4841,3.4704,3.4741,3.4753,3.4816,3.4692,3.469,3.4589,3.4501,3.4488,3.4301,3.4204,3.4186,3.4101,3.4152,3.4074,3.3917,3.3837,3.379,3.3631,3.3369,3.3015,3.2922,3.2704,3.235,3.2245,3.2069,3.1714,3.2145,3.245,3.2531,3.2771,3.2971,3.305,3.3045,3.3041,3.3181,3.3481,3.3671,3.3732,3.4175,3.4477,3.4502,3.498,3.5222,3.5313,3.5725,3.5956,3.5757,3.5726,3.5428,3.4665,3.3581,3.2278,3.1294,3.0705,3.0342,2.9992,2.9967,3.012,3.0325,3.0443,3.059,3.092,3.1081,3.1154,3.1505,3.156,3.1512,3.1562,3.1575,3.1426,3.132,3.1247,3.1131,3.0962,3.0913,3.0913,3.0913,3.0913,3.0913,3.0913,3.0913,3.0913,3.0913,3.0913,3.0913,3.0913,3.0913,3.0913,3.0913,3.0913,3.0913,3.9102,3.8268,3.7861,3.7434,3.7038,3.6806,3.664,3.6534,3.6535,3.6476,3.6417,3.6417,3.6417,3.6417,3.6393,3.6393,3.6417,3.6417,3.6393,3.6393,3.6368,3.6004,3.5553,3.5416,3.5404,3.5416,3.5415,3.544,3.5378,3.5179,3.5043,3.4968,3.4816,3.4704,3.4641,3.4692,3.4704,3.4657,3.4579,3.4534,3.4499,3.4373,3.4168,3.3872,3.3835,3.3638,3.3401,3.3376,3.3023,3.2455,3.2506,3.2788,3.3046,3.3289,3.3533,3.3732,3.3782,3.3784,3.382,3.4085,3.4212,3.4325,3.4741,3.498,3.5131,3.5532,3.5869,3.5932,3.623,3.6285,3.6193,3.6075,3.5839,3.5454,3.4433,3.3332,3.2351,3.1873,3.1553,3.1292,3.1173,3.1193,3.1443,3.1495,3.1659,3.1925,3.2083,3.2107,3.2166,3.2084,3.2032,3.2076,3.196,3.1773,3.1672,3.16,3.1383,3.1199,3.1034,3.102,3.0947,3.0932,3.0913,3.0913,3.0913,3.0913,3.0913,3.0913,3.0913,3.0913,3.0913,3.0913,3.0913,3.0913,3.0913,3.9653,3.893,3.8268,3.7849,3.7539,3.7261,3.7003,3.6815,3.6722,3.6592,3.6476,3.6417,3.6417,3.6417,3.6417,3.6417,3.6417,3.6417,3.6417,3.6417,3.6417,3.6292,3.6242,3.6192,3.6193,3.623,3.6368,3.6305,3.6117,3.5768,3.5631,3.5531,3.5166,3.4965,3.5078,3.5003,3.489,3.5015,3.5067,3.5056,3.5056,3.501,3.4899,3.47,3.4536,3.4536,3.451,3.4497,3.4013,3.272,3.281,3.3217,3.3625,3.3874,3.4151,3.4488,3.4527,3.4552,3.4665,3.4677,3.4791,3.4866,3.5281,3.5595,3.5694,3.6055,3.6305,3.6305,3.6393,3.6444,3.651,3.6306,3.634,3.6321,3.5962,3.5175,3.4195,3.3361,3.2917,3.2886,3.2661,3.272,3.2927,3.3077,3.3122,3.3036,3.3103,3.2996,3.2899,3.2753,3.2663,3.2592,3.2391,3.2114,3.2032,3.1965,3.1705,3.1469,3.1286,3.117,3.1025,3.0981,3.0932,3.0913,3.0913,3.0913,3.0913,3.0913,3.0913,3.0913,3.0913,3.0913,3.0913,3.0913,3.0913,4.0123,3.9406,3.8908,3.8427,3.8032,3.7596,3.7377,3.7284,3.6886,3.6722,3.6604,3.6476,3.6417,3.6417,3.6417,3.6417,3.6417,3.6417,3.6417,3.6417,3.6417,3.6417,3.6417,3.6417,3.6417,3.6417,3.6417,3.6417,3.633,3.6256,3.6205,3.6143,3.6004,3.6017,3.5967,3.5891,3.6029,3.6029,3.6004,3.5942,3.5929,3.5905,3.5717,3.5344,3.4968,3.4753,3.4704,3.4692,3.4521,3.4302,3.4229,3.4315,3.44,3.4481,3.4628,3.4777,3.4791,3.4753,3.4791,3.513,3.5344,3.5406,3.5805,3.6205,3.6218,3.6292,3.6417,3.6417,3.6417,3.6631,3.6947,3.6974,3.7056,3.7147,3.7034,3.674,3.6252,3.516,3.4383,3.4213,3.4014,3.3896,3.414,3.4164,3.4204,3.4197,3.4079,3.3904,3.3692,3.3484,3.336,3.3264,3.3151,3.2962,3.2855,3.2789,3.2598,3.237,3.2108,3.1768,3.1612,3.1269,3.1309,3.1142,3.0913,3.0913,3.0913,3.0913,3.0913,3.0913,3.0913,3.0913,3.0913,3.0913,3.0913,4.1559,4.0972,4.05,3.9852,3.9163,3.876,3.827,3.7714,3.741,3.7037,3.6733,3.6581,3.6487,3.6417,3.6417,3.6417,3.6417,3.6417,3.6417,3.6417,3.6417,3.6417,3.6417,3.6417,3.6417,3.6417,3.6417,3.6417,3.6417,3.6417,3.6368,3.6417,3.6417,3.633,3.6417,3.6417,3.6368,3.6355,3.6417,3.6417,3.6417,3.6393,3.6306,3.5968,3.5642,3.5503,3.5516,3.5528,3.5504,3.5503,3.549,3.5341,3.513,3.5092,3.5192,3.5454,3.5503,3.5491,3.5617,3.5742,3.5931,3.5918,3.6243,3.6343,3.6417,3.6417,3.6417,3.6456,3.6657,3.7009,3.75,3.7563,3.7691,3.7879,3.7865,3.7833,3.7648,3.651,3.5553,3.554,3.5389,3.53,3.5316,3.5248,3.5187,3.5146,3.5063,3.4877,3.4449,3.4242,3.4127,3.4043,3.4001,3.391,3.3784,3.3713,3.3653,3.3505,3.3393,3.3026,3.2716,3.225,3.1796,3.1491,3.1123,3.0937,3.0913,3.0913,3.0942,3.0913,3.0913,3.0913,3.0913,3.0913,3.0913,4.3087,4.2685,4.2238,4.1431,4.0557,4.0231,3.9507,3.8533,3.8201,3.7778,3.7036,3.6896,3.6733,3.6441,3.6417,3.6417,3.6417,3.6417,3.6417,3.6417,3.6417,3.6417,3.6417,3.6417,3.6417,3.6417,3.6417,3.6417,3.6417,3.6417,3.6417,3.6417,3.6417,3.6417,3.6417,3.6417,3.6417,3.6417,3.6417,3.6417,3.6417,3.6417,3.6368,3.633,3.628,3.623,3.6217,3.6255,3.633,3.6417,3.6417,3.6118,3.5806,3.5682,3.5806,3.6343,3.6267,3.6217,3.6192,3.6305,3.6355,3.6417,3.6417,3.6417,3.6417,3.6531,3.6607,3.6746,3.7009,3.7538,3.8052,3.814,3.8304,3.8515,3.8588,3.8658,3.8542,3.7538,3.6969,3.6743,3.6451,3.6226,3.6261,3.6241,3.6173,3.6091,3.5998,3.5834,3.5411,3.5132,3.5058,3.5127,3.5171,3.5372,3.5302,3.5216,3.5093,3.4882,3.4765,3.4364,3.3954,3.3527,3.2962,3.1796,3.1368,3.127,3.1177,3.1172,3.1152,3.1006,3.0913,3.0913,3.0913,3.0913,3.0913,4.3414,4.3168,4.2866,4.2405,4.1834,4.1414,4.093,4.0472,3.9582,3.8855,3.8112,3.7659,3.7108,3.6628,3.643,3.643,3.6494,3.6443,3.6417,3.6417,3.6417,3.6417,3.6417,3.6417,3.6417,3.6417,3.6417,3.6417,3.6417,3.6417,3.6417,3.6417,3.6417,3.6417,3.6417,3.6417,3.6417,3.6417,3.6417,3.6417,3.6417,3.6417,3.6417,3.6417,3.6417,3.6417,3.6417,3.6417,3.6417,3.6417,3.6417,3.6343,3.6218,3.6193,3.6268,3.6355,3.6417,3.6417,3.6417,3.6417,3.6417,3.6417,3.6456,3.6443,3.6531,3.6808,3.7072,3.7273,3.76,3.8103,3.8668,3.873,3.8994,3.9243,3.9252,3.9148,3.9054,3.8639,3.8068,3.7816,3.7386,3.7062,3.7131,3.7172,3.7093,3.7012,3.6918,3.6796,3.6528,3.6302,3.6196,3.6303,3.6461,3.6729,3.6946,3.6878,3.6767,3.6484,3.6246,3.5822,3.5401,3.4964,3.4204,3.3356,3.2455,3.2052,3.1883,3.1667,3.1534,3.1535,3.127,3.0957,3.0981,3.103,3.0913,4.4649,4.444,4.428,4.3709,4.2909,4.2479,4.1839,4.1059,4.0438,3.9737,3.9077,3.8594,3.8057,3.7527,3.7284,3.711,3.6821,3.6494,3.6418,3.6417,3.6417,3.6417,3.6443,3.6431,3.6417,3.6417,3.6417,3.6431,3.6417,3.6417,3.6443,3.6417,3.6417,3.6417,3.6417,3.6417,3.6431,3.6431,3.6431,3.6431,3.6418,3.6418,3.6417,3.6417,3.6417,3.6417,3.6417,3.6417,3.6417,3.6417,3.6417,3.6417,3.6443,3.6431,3.6431,3.6443,3.6418,3.6406,3.6406,3.6417,3.6417,3.6431,3.6632,3.6808,3.6947,3.7298,3.7701,3.804,3.8228,3.8693,3.9258,3.9283,3.9446,3.9596,3.9568,3.9504,3.9439,3.9231,3.8932,3.8644,3.8303,3.8065,3.8052,3.8052,3.8012,3.7933,3.7825,3.7702,3.7566,3.7608,3.7545,3.7641,3.7855,3.8162,3.8414,3.8445,3.8412,3.8154,3.7861,3.7443,3.7004,3.6637,3.6083,3.536,3.4439,3.3457,3.2664,3.2475,3.2286,3.2062,3.1687,3.1402,3.1221,3.1113,3.103,4.5779,4.5583,4.5598,4.4895,4.3875,4.3488,4.2703,4.1688,4.1241,4.0631,3.9887,3.9476,3.8975,3.8445,3.8062,3.7726,3.7336,3.6909,3.6845,3.6845,3.6845,3.6783,3.6745,3.6732,3.6821,3.6934,3.6871,3.6607,3.6468,3.6569,3.6582,3.6682,3.6657,3.672,3.6796,3.6909,3.6733,3.6732,3.6732,3.6707,3.6582,3.6556,3.6493,3.6417,3.6417,3.6417,3.6417,3.6417,3.6518,3.6582,3.6619,3.6644,3.672,3.6732,3.6708,3.6683,3.6544,3.6456,3.6569,3.6607,3.672,3.6896,3.7148,3.7299,3.7487,3.7876,3.8404,3.8906,3.907,3.9183,3.9547,3.9685,3.9685,3.9685,3.9697,3.9684,3.9607,3.9491,3.94,3.9193,3.9076,3.8879,3.8681,3.8539,3.8395,3.8554,3.8473,3.868,3.8633,3.9076,3.9106,3.9127,3.93,3.9594,3.9829,3.9948,3.9943,3.9874,3.9621,3.9291,3.884,3.8401,3.7765,3.7093,3.6359,3.5382,3.4342,3.3442,3.3377,3.308,3.2331,3.1929,3.186,3.15,3.1201,4.5895,4.5858,4.5847,4.5495,4.4869,4.4407,4.3889,4.3208,4.2513,4.1695,4.0794,4.0195,3.9459,3.8636,3.8176,3.799,3.7877,3.7739,3.7625,3.76,3.7638,3.7638,3.7751,3.7826,3.7626,3.7588,3.7663,3.7248,3.6858,3.6959,3.7097,3.7173,3.7462,3.7764,3.7575,3.7575,3.7826,3.7776,3.7764,3.7538,3.7186,3.7098,3.6883,3.6619,3.6519,3.6556,3.6607,3.6632,3.6732,3.7072,3.711,3.7336,3.7713,3.7814,3.7814,3.7537,3.7085,3.6619,3.7009,3.711,3.7273,3.7525,3.7826,3.7902,3.8128,3.8467,3.8994,3.9534,3.9572,3.9559,3.9659,3.971,3.971,3.971,3.971,3.971,3.9671,3.9645,3.9568,3.9656,3.9499,3.9252,3.903,3.889,3.8775,3.8973,3.9183,3.943,3.9688,4.0094,4.0522,4.0529,4.0453,4.0702,4.0789,4.099,4.1044,4.1194,4.1036,4.0791,4.0257,3.9677,3.9339,3.8656,3.7981,3.7272,3.6271,3.5462,3.487,3.4175,3.3513,3.301,3.2604,3.2122,3.1554,4.5903,4.5903,4.5903,4.5663,4.5287,4.4818,4.4422,4.3948,4.3285,4.263,4.1977,4.1302,4.039,3.9372,3.8806,3.8529,3.8442,3.8191,3.8002,3.8052,3.8052,3.804,3.7977,3.8002,3.8002,3.8078,3.7977,3.7801,3.7462,3.75,3.7663,3.7701,3.7889,3.7952,3.8128,3.8027,3.799,3.7965,3.7965,3.7877,3.7726,3.765,3.7538,3.7287,3.7274,3.7248,3.7248,3.7311,3.7387,3.7638,3.7663,3.7726,3.7939,3.799,3.799,3.7927,3.76,3.745,3.7613,3.7638,3.7826,3.8052,3.8316,3.8655,3.8906,3.9145,3.9396,3.9672,3.971,3.971,3.971,3.971,3.971,3.971,3.971,3.971,3.971,3.971,3.9709,3.9823,3.9948,3.9813,3.9728,3.9815,3.9776,3.9852,4.0164,4.0501,4.0708,4.0964,4.1419,4.1829,4.1719,4.1687,4.1677,4.1745,4.168,4.1747,4.1759,4.1504,4.1208,4.0779,4.0432,4.0185,3.9692,3.893,3.8089,3.7184,3.6305,3.5497,3.4714,3.4176,3.3619,3.2738,3.2166,4.5903,4.5903,4.5903,4.5756,4.5458,4.5003,4.4646,4.4317,4.3596,4.3141,4.2705,4.188,4.092,4.0135,3.9423,3.9095,3.9082,3.863,3.8467,3.8417,3.8417,3.8492,3.8567,3.8504,3.8492,3.8404,3.8592,3.8504,3.8479,3.8442,3.8417,3.8253,3.8479,3.8504,3.8479,3.8542,3.858,3.858,3.8567,3.8442,3.8266,3.8241,3.8115,3.8015,3.799,3.8002,3.8002,3.7952,3.794,3.8228,3.8241,3.8316,3.8504,3.8605,3.8592,3.858,3.8442,3.8454,3.8429,3.8379,3.8316,3.8517,3.8743,3.922,3.9522,3.971,3.971,3.971,3.971,3.971,3.971,3.971,3.971,3.971,3.971,3.971,3.976,3.9923,4.0049,4.0174,4.0375,4.0638,4.0644,4.0823,4.0849,4.0786,4.1076,4.1504,4.1697,4.1823,4.2081,4.2485,4.244,4.2338,4.236,4.2353,4.2312,4.2268,4.2268,4.2169,4.1834,4.1692,4.1466,4.1277,4.1033,4.053,3.9647,3.8674,3.7707,3.6923,3.6129,3.5303,3.4553,3.3619,3.2773,4.5903,4.5903,4.5903,4.5756,4.5481,4.4991,4.4656,4.4411,4.3654,4.3189,4.2753,4.1621,4.077,4.016,3.9828,3.961,3.9622,3.9597,3.9433,3.9433,3.9559,3.9408,3.9358,3.9346,3.9433,3.9433,3.932,3.9371,3.9509,3.9283,3.9145,3.8944,3.912,3.9433,3.9446,3.9283,3.9308,3.932,3.9333,3.9145,3.8931,3.8781,3.8617,3.8216,3.8078,3.8015,3.8027,3.8153,3.8366,3.8806,3.8831,3.8969,3.9195,3.9283,3.9283,3.9283,3.9295,3.9283,3.9258,3.9044,3.9132,3.9409,3.9572,3.9546,3.9672,3.971,3.971,3.971,3.971,3.971,3.971,3.971,3.971,3.986,3.9936,4.0011,4.0123,4.0374,4.0487,4.0563,4.0801,4.1153,4.1441,4.1593,4.148,4.1404,4.1757,4.2171,4.2409,4.2564,4.2653,4.2865,4.2879,4.2863,4.289,4.2832,4.2692,4.2664,4.2664,4.2594,4.2427,4.2342,4.2215,4.2003,4.169,4.1473,4.1158,4.0124,3.9147,3.8361,3.7506,3.6527,3.5386,3.4314,3.3498,4.5903,4.5903,4.5903,4.5835,4.5737,4.5381,4.5083,4.4755,4.4221,4.3548,4.2838,4.1844,4.1084,4.0592,4.0121,3.9852,3.9723,3.971,3.971,3.971,3.9685,3.971,3.971,3.971,3.9697,3.971,3.971,3.971,3.9672,3.971,3.9635,3.9534,3.9609,3.9647,3.9685,3.971,3.971,3.971,3.971,3.9546,3.9484,3.9383,3.9283,3.9107,3.9057,3.9044,3.9069,3.9057,3.9195,3.9308,3.9358,3.9509,3.9634,3.9685,3.971,3.971,3.971,3.971,3.971,3.9496,3.9522,3.9597,3.9697,3.971,3.971,3.971,3.971,3.971,3.971,3.971,3.9723,3.9722,3.9785,4.0036,4.0236,4.0337,4.0538,4.08,4.0977,4.1065,4.1443,4.1833,4.2097,4.2336,4.2146,4.2008,4.2424,4.275,4.2901,4.3,4.3,4.3,4.3,4.3,4.3,4.3,4.3,4.3,4.3,4.2888,4.2762,4.2818,4.2666,4.2509,4.2312,4.2043,4.1702,4.1275,4.0487,3.9468,3.8522,3.7576,3.6371,3.5101,3.435,4.5903,4.5903,4.5903,4.5903,4.5858,4.5606,4.5401,4.5161,4.4607,4.3834,4.2863,4.2141,4.1522,4.0984,4.0478,4.007,3.9865,3.9749,3.971,3.971,3.971,3.971,3.971,3.971,3.971,3.971,3.971,3.971,3.971,3.971,3.9672,3.9672,3.971,3.971,3.971,3.971,3.971,3.971,3.971,3.971,3.9685,3.9685,3.9672,3.9635,3.9597,3.9584,3.9559,3.9534,3.9572,3.9635,3.966,3.9685,3.971,3.971,3.971,3.971,3.971,3.971,3.971,3.971,3.971,3.971,3.971,3.971,3.971,3.971,3.971,3.971,3.971,3.976,3.986,4.0023,4.0261,4.0588,4.0713,4.0826,4.1064,4.1315,4.1466,4.1605,4.2021,4.2424,4.2499,4.27,4.2612,4.246,4.265,4.2876,4.2939,4.3,4.3,4.3,4.3,4.3,4.3,4.3,4.3,4.3,4.3,4.3,4.2958,4.3,4.2986,4.2778,4.261,4.2509,4.2229,4.1848,4.1191,4.0412,3.935,3.8238,3.7361,3.6154,3.5373,4.5903,4.5903,4.5903,4.5903,4.5884,4.5617,4.5492,4.5344,4.4714,4.3867,4.3008,4.2373,4.1808,4.1286,4.0732,4.0326,4.0019,3.98,3.971,3.971,3.971,3.971,3.971,3.971,3.971,3.971,3.971,3.971,3.971,3.971,3.971,3.971,3.971,3.971,3.971,3.971,3.971,3.971,3.971,3.971,3.971,3.971,3.971,3.971,3.971,3.971,3.971,3.971,3.971,3.971,3.971,3.971,3.971,3.971,3.971,3.971,3.971,3.971,3.971,3.971,3.971,3.971,3.971,3.971,3.971,3.9735,3.9823,3.9898,3.9898,4.0086,4.0287,4.0525,4.0826,4.1115,4.124,4.144,4.1692,4.1906,4.207,4.2159,4.2573,4.295,4.295,4.2963,4.295,4.2912,4.2963,4.3,4.3,4.3,4.3,4.3,4.3,4.3,4.3,4.3,4.3,4.3,4.3,4.3,4.3,4.3,4.2974,4.2946,4.2876,4.2722,4.261,4.2442,4.1763,4.1031,3.9846,3.88,3.798,3.7266,3.65,4.5903,4.5903,4.5903,4.5903,4.588,4.5813,4.5677,4.539,4.4723,4.4105,4.3558,4.2934,4.2215,4.1585,4.1009,4.0555,4.0121,3.9839,3.971,3.971,3.971,3.971,3.971,3.971,3.971,3.971,3.971,3.971,3.971,3.971,3.971,3.971,3.9823,3.971,3.971,3.971,3.971,3.971,3.971,3.971,3.971,3.971,3.971,3.971,3.971,3.971,3.971,3.971,3.971,3.971,3.971,3.971,3.9723,3.9723,3.9735,3.9722,3.9723,3.971,3.971,3.971,3.971,3.9735,3.976,3.9772,3.9723,4.0074,4.0174,4.0325,4.0487,4.0738,4.0988,4.1039,4.1277,4.1732,4.1945,4.2184,4.241,4.2573,4.2725,4.2738,4.2989,4.3002,4.3,4.3,4.3,4.3,4.3,4.3,4.3,4.3,4.3,4.3,4.3,4.3,4.3,4.3,4.3,4.3,4.3,4.3,4.3,4.3,4.3,4.2974,4.2974,4.296,4.282,4.2638,4.2312,4.1576,4.0603,3.97,3.8945,3.8324,3.77,4.5903,4.5903,4.5903,4.5903,4.5903,4.5903,4.5745,4.5413,4.4804,4.434,4.3917,4.3309,4.2608,4.1907,4.1385,4.0795,4.0262,3.998,3.9723,3.9736,3.971,3.971,3.971,3.9723,3.971,3.971,3.971,3.971,3.971,3.971,3.9835,4.0023,4.0162,4.0349,4.0262,4.0061,3.971,3.971,3.971,3.971,3.971,3.971,3.971,3.971,3.971,3.971,3.971,3.9723,3.9722,3.9735,3.9722,3.9722,3.9748,3.9873,3.9948,3.9986,4.0187,4.0249,4.0324,4.0337,4.04,4.0362,4.0111,4.0099,4.0237,4.0625,4.0725,4.0901,4.1177,4.1404,4.1567,4.1579,4.1831,4.2287,4.2487,4.2713,4.2763,4.2914,4.2951,4.2989,4.3002,4.3002,4.3,4.3,4.3,4.3,4.3,4.3,4.3,4.3,4.3,4.3,4.3,4.3,4.3,4.3,4.3,4.3,4.3,4.3,4.3,4.3,4.3,4.3,4.2988,4.2974,4.2946,4.2778,4.2538,4.2256,4.1735,4.0846,3.9972,3.9362,3.8822,4.5903,4.5903,4.5903,4.5903,4.5903,4.5903,4.5756,4.5492,4.5026,4.4539,4.4023,4.3584,4.291,4.2202,4.1807,4.1223,4.0529,4.0211,3.9929,3.9749,3.971,3.971,3.9735,3.9772,3.986,3.981,3.9885,4.0111,3.9823,4.0023,4.0236,4.0499,4.0863,4.0976,4.0776,4.0437,4.0061,4.0074,4.0074,4.0086,4.0098,3.9973,4.0023,4.0036,4.0049,4.0036,4.0023,4.0011,3.9961,3.991,3.9873,3.9835,3.9961,4.0261,4.0437,4.0651,4.0989,4.1064,4.1102,4.1051,4.1215,4.1102,4.0864,4.0952,4.1051,4.1203,4.1328,4.1416,4.1604,4.1883,4.2097,4.2248,4.2399,4.2663,4.2876,4.295,4.295,4.2988,4.2988,4.3,4.3,4.3,4.3,4.3,4.3,4.3,4.3,4.3,4.3,4.3,4.3,4.3,4.3,4.3,4.3,4.3,4.3,4.3,4.3,4.3,4.3,4.3,4.3,4.3,4.3,4.3,4.2974,4.2932,4.2834,4.2553,4.2314,4.1818,4.0889,4.0484,3.9995,4.5903,4.5903,4.5903,4.5903,4.5903,4.5903,4.5858,4.5734,4.5424,4.5012,4.4553,4.4035,4.3319,4.2655,4.2006,4.136,4.0807,4.0326,3.998,3.9838,3.9861,3.976,3.9848,4.0086,4.0199,4.0387,4.0549,4.0688,4.0813,4.08,4.0838,4.1113,4.1352,4.1377,4.129,4.1014,4.0913,4.0788,4.0775,4.0675,4.07,4.0688,4.07,4.0688,4.0675,4.0675,4.0688,4.0713,4.0713,4.075,4.08,4.0813,4.0876,4.0988,4.1076,4.1076,4.1214,4.1276,4.1289,4.1301,4.149,4.187,4.1745,4.1492,4.1529,4.168,4.1933,4.2008,4.2145,4.2423,4.2549,4.2663,4.275,4.2864,4.3,4.3,4.3,4.3,4.3,4.3,4.3,4.3,4.3,4.3,4.3,4.3,4.3,4.3,4.3,4.3,4.3,4.3,4.3,4.3,4.3,4.3,4.3,4.3,4.3,4.3,4.3,4.3,4.3,4.3,4.3,4.3,4.3,4.2958,4.2918,4.2958,4.2722,4.2328,4.1903,4.1435,4.1048,4.5903,4.5903,4.5903,4.5903,4.5903,4.5903,4.5903,4.5861,4.5606,4.523,4.4774,4.4209,4.3582,4.2849,4.2178,4.1585,4.106,4.0811,4.0515,4.032,4.0251,4.0374,4.0499,4.0613,4.0763,4.095,4.1063,4.1151,4.1403,4.1592,4.1656,4.1681,4.1793,4.1931,4.1981,4.202,4.2006,4.1779,4.1591,4.1377,4.1326,4.1339,4.1301,4.1339,4.1339,4.1339,4.1339,4.1352,4.1326,4.1301,4.1289,4.1289,4.1365,4.1465,4.183,4.1906,4.2044,4.2081,4.2094,4.2056,4.2234,4.2386,4.25,4.2348,4.2246,4.2346,4.246,4.2549,4.2774,4.2963,4.2975,4.2988,4.2988,4.2988,4.3,4.3,4.3,4.3,4.3,4.3,4.3,4.3,4.3,4.3,4.3,4.3,4.3,4.3,4.3,4.3,4.3,4.3,4.3,4.3,4.3,4.3,4.3,4.3,4.3,4.3,4.3,4.3,4.3,4.3,4.3,4.3,4.3,4.3,4.2986,4.3,4.3,4.2722,4.2413,4.2173,4.1818,4.5943,4.5993,4.6037,4.6153,4.6077,4.6124,4.6124,4.6014,4.5911,4.5422,4.4937,4.4389,4.392,4.3462,4.2888,4.2316,4.1921,4.1634,4.1375,4.1023,4.1089,4.1159,4.1195,4.1366,4.1365,4.1378,4.1516,4.1793,4.1705,4.1944,4.2248,4.2301,4.2625,4.2749,4.2711,4.2724,4.266,4.2561,4.2094,4.1716,4.1615,4.1502,4.144,4.1516,4.1541,4.1541,4.1528,4.1477,4.1427,4.1439,4.1478,4.1553,4.1742,4.1969,4.246,4.2661,4.2737,4.2737,4.2698,4.2685,4.2787,4.29,4.2988,4.285,4.2762,4.2737,4.2801,4.2813,4.2963,4.3,4.3,4.3,4.3,4.3,4.3,4.3,4.3,4.3,4.3,4.3,4.3,4.3,4.3,4.3,4.3,4.3,4.3,4.3,4.3176,4.3176,4.3113,4.3101,4.3025,4.3025,4.3,4.3,4.3,4.3,4.3051,4.3,4.3,4.3,4.3,4.3,4.3,4.3,4.3,4.3,4.3013,4.3,4.3,4.3,4.2846,4.2636,4.2384,4.6289,4.6638,4.714,4.7343,4.7355,4.7355,4.7312,4.7343,4.7271,4.6667,4.5844,4.544,4.5124,4.4685,4.4129,4.3592,4.3181,4.2708,4.2437,4.2135,4.2007,4.1957,4.1787,4.1967,4.1973,4.2121,4.231,4.2446,4.2459,4.2649,4.2788,4.2801,4.3002,4.3002,4.3,4.3,4.2975,4.2964,4.2699,4.2382,4.2409,4.2522,4.2598,4.2548,4.2522,4.2459,4.2472,4.2509,4.2547,4.2597,4.2585,4.2597,4.261,4.2737,4.2851,4.2977,4.3,4.3,4.3,4.3,4.3,4.3,4.3,4.3,4.2988,4.3,4.3,4.3,4.3,4.3,4.3,4.3,4.3,4.3,4.3,4.3,4.3,4.3025,4.3025,4.3038,4.3038,4.3088,4.3101,4.3076,4.3,4.3,4.3,4.3101,4.3515,4.3627,4.3452,4.3377,4.3113,4.3063,4.3113,4.3239,4.3364,4.3277,4.3277,4.3176,4.3076,4.3226,4.3363,4.3101,4.3,4.3201,4.3264,4.3052,4.3052,4.3101,4.3,4.3,4.3,4.2846,4.2652,4.7212,4.7439,4.7669,4.7794,4.7794,4.7794,4.7794,4.7794,4.7794,4.7541,4.7009,4.644,4.6015,4.575,4.5177,4.4769,4.4315,4.3922,4.3611,4.3283,4.3053,4.2935,4.2833,4.2664,4.2598,4.2704,4.2813,4.295,4.3,4.2988,4.2963,4.3,4.3,4.3,4.3,4.3,4.3,4.3,4.3,4.3,4.3,4.3002,4.3002,4.3,4.3,4.3,4.3,4.3,4.2988,4.2988,4.2925,4.2925,4.29,4.2925,4.2963,4.2988,4.3,4.3,4.3,4.3,4.3,4.3,4.3,4.3,4.3,4.3,4.3,4.3,4.3,4.3,4.3,4.3,4.3,4.3,4.3,4.3,4.3138,4.3277,4.3352,4.3465,4.3601,4.3903,4.3928,4.3928,4.3878,4.3865,4.374,4.3677,4.4003,4.4192,4.3978,4.3865,4.3765,4.3714,4.3876,4.3928,4.3928,4.3777,4.3591,4.374,4.384,4.379,4.3727,4.3627,4.3627,4.3802,4.3765,4.3503,4.3377,4.3463,4.3251,4.3,4.3013,4.3051,4.2885,4.8223,4.8229,4.812,4.8052,4.8052,4.8067,4.8096,4.8096,4.8069,4.8241,4.8297,4.743,4.6868,4.6376,4.5858,4.5436,4.5172,4.5156,4.4874,4.46,4.4354,4.4003,4.3713,4.3523,4.3179,4.2971,4.2989,4.3,4.3,4.3,4.3,4.3,4.3,4.3,4.3,4.3,4.3,4.3,4.3,4.3,4.3,4.3,4.3,4.3,4.3,4.3,4.3,4.3,4.3,4.3,4.3,4.3,4.3,4.3,4.3,4.3,4.3,4.3,4.3,4.3,4.3,4.3,4.3,4.3013,4.3025,4.3038,4.3038,4.3126,4.3126,4.3038,4.3038,4.3038,4.3038,4.3189,4.3189,4.3239,4.3465,4.3653,4.3777,4.3915,4.4177,4.4529,4.4579,4.4604,4.4616,4.4614,4.464,4.4679,4.4717,4.478,4.4744,4.4819,4.4882,4.483,4.4614,4.4503,4.4391,4.429,4.4152,4.4416,4.4527,4.4303,4.4227,4.4378,4.4416,4.4378,4.429,4.4064,4.3976,4.3889,4.379,4.3576,4.3289,4.3289,4.3126,4.8509,4.8654,4.9112,4.9315,4.9315,4.9301,4.9345,4.9345,4.9301,4.9383,4.9233,4.9019,4.8552,4.805,4.7739,4.7277,4.6742,4.6558,4.6276,4.6018,4.5302,4.4871,4.4423,4.393,4.335,4.3155,4.3112,4.3028,4.3044,4.303,4.3,4.3,4.3,4.3,4.3,4.3025,4.3088,4.3113,4.3164,4.3189,4.3126,4.3088,4.3,4.3,4.3,4.3,4.3,4.3,4.3,4.3,4.3,4.3,4.3,4.3,4.3,4.3,4.3,4.3,4.3,4.3,4.3,4.3126,4.3138,4.3165,4.319,4.3214,4.3314,4.3564,4.3501,4.3251,4.3214,4.3201,4.3225,4.3664,4.3826,4.4014,4.4215,4.4315,4.443,4.4491,4.4604,4.478,4.479,4.4803,4.483,4.484,4.4867,4.4943,4.5296,4.5384,4.5432,4.5583,4.5746,4.5294,4.4817,4.4842,4.4754,4.4677,4.4702,4.4916,4.4916,4.4614,4.4614,4.4916,4.4828,4.4704,4.4616,4.4704,4.4541,4.4466,4.4453,4.4278,4.389,4.3627,4.3564]}]]